﻿<?xml version="1.0" encoding="UTF-8"?>
<gpx xmlns:xsd="http://www.w3.org/2001/XMLSchema" xmlns:xsi="http://www.w3.org/2001/XMLSchema-instance" creator="Magellan VantagePoint GPX Export" version="1.0" schemaLocation="http://www.topografix.com/GPX/1/0 http://www.topografix.com/GPX/1/0/gpx.xsd http://www.groundspeak.com/cache/1/0/2 http://www.groundspeak.com/cache/1/0/2/cache.xsd" xmlns="http://www.topografix.com/GPX/1/0">
  <wpt lat="51.913432" lon="39.034283">
    <time>2013-05-30T09:48:51.000Z</time>
    <name>STOP</name>
    <ele>147</ele>
    <sym>Crossed Square</sym>
    <type>WP</type>
  </wpt>
  <trk>
    <name>NW_Training</name>
    <mgln:color xmlns:mgln="http://www.magellangps.com/mgln/1/0">248</mgln:color>
    <mgln:flags xmlns:mgln="http://www.magellangps.com/mgln/1/0">1</mgln:flags>
    <trkseg>
      <trkpt lat="51.7151935771" lon="39.173419755">
        <ele>196.25</ele>
        <time>2013-08-13T14:34:23.000Z</time>
        <speed>3.8432753812701E+249</speed>
      </trkpt>
      <trkpt lat="51.7153168749" lon="39.1735543683">
        <ele>201.53</ele>
        <time>2013-08-13T14:34:26.000Z</time>
        <speed>3.8432753812701E+249</speed>
      </trkpt>
      <trkpt lat="51.7154665757" lon="39.1736245248">
        <ele>204.42</ele>
        <time>2013-08-13T14:34:28.000Z</time>
        <speed>3.8432753812701E+249</speed>
      </trkpt>
      <trkpt lat="51.7155486345" lon="39.1737577133">
        <ele>206.82</ele>
        <time>2013-08-13T14:34:30.000Z</time>
        <speed>3.8432753812701E+249</speed>
      </trkpt>
      <trkpt lat="51.7156989221" lon="39.1742156167">
        <ele>210.67</ele>
        <time>2013-08-13T14:34:35.000Z</time>
        <speed>3.8432753812701E+249</speed>
      </trkpt>
      <trkpt lat="51.7157481238" lon="39.1743794829">
        <ele>212.11</ele>
        <time>2013-08-13T14:34:37.000Z</time>
        <speed>3.8432753812701E+249</speed>
      </trkpt>
      <trkpt lat="51.7159324419" lon="39.1747188661">
        <ele>213.55</ele>
        <time>2013-08-13T14:34:42.000Z</time>
        <speed>3.8432753812701E+249</speed>
      </trkpt>
      <trkpt lat="51.7167402059" lon="39.1752864886">
        <ele>214.99</ele>
        <time>2013-08-13T14:34:56.000Z</time>
        <speed>3.8432753812701E+249</speed>
      </trkpt>
      <trkpt lat="51.7169332411" lon="39.1753216926">
        <ele>214.99</ele>
        <time>2013-08-13T14:34:59.000Z</time>
        <speed>3.8432753812701E+249</speed>
      </trkpt>
      <trkpt lat="51.7170674354" lon="39.175317334">
        <ele>215.47</ele>
        <time>2013-08-13T14:35:01.000Z</time>
        <speed>3.8432753812701E+249</speed>
      </trkpt>
      <trkpt lat="51.7174612172" lon="39.1750812158">
        <ele>215.47</ele>
        <time>2013-08-13T14:35:07.000Z</time>
        <speed>3.8432753812701E+249</speed>
      </trkpt>
      <trkpt lat="51.7179577611" lon="39.1743628867">
        <ele>216.43</ele>
        <time>2013-08-13T14:35:17.000Z</time>
        <speed>3.8432753812701E+249</speed>
      </trkpt>
      <trkpt lat="51.7181088869" lon="39.174377555">
        <ele>215.95</ele>
        <time>2013-08-13T14:35:21.000Z</time>
        <speed>3.8432753812701E+249</speed>
      </trkpt>
      <trkpt lat="51.7188677005" lon="39.1754756682">
        <ele>214.99</ele>
        <time>2013-08-13T14:35:38.000Z</time>
        <speed>3.8432753812701E+249</speed>
      </trkpt>
      <trkpt lat="51.7196284421" lon="39.1765939817">
        <ele>214.51</ele>
        <time>2013-08-13T14:35:54.000Z</time>
        <speed>3.8432753812701E+249</speed>
      </trkpt>
      <trkpt lat="51.7197337188" lon="39.1771725006">
        <ele>214.99</ele>
        <time>2013-08-13T14:36:00.000Z</time>
        <speed>3.8432753812701E+249</speed>
      </trkpt>
      <trkpt lat="51.7197495606" lon="39.178377483">
        <ele>214.99</ele>
        <time>2013-08-13T14:36:11.000Z</time>
        <speed>3.8432753812701E+249</speed>
      </trkpt>
      <trkpt lat="51.7197585292" lon="39.1789495479">
        <ele>214.51</ele>
        <time>2013-08-13T14:36:17.000Z</time>
        <speed>3.8432753812701E+249</speed>
      </trkpt>
      <trkpt lat="51.7200216372" lon="39.1787573509">
        <ele>214.99</ele>
        <time>2013-08-13T14:36:22.000Z</time>
        <speed>3.8432753812701E+249</speed>
      </trkpt>
      <trkpt lat="51.7201490421" lon="39.1787130944">
        <ele>214.99</ele>
        <time>2013-08-13T14:36:24.000Z</time>
        <speed>3.8432753812701E+249</speed>
      </trkpt>
      <trkpt lat="51.721151853" lon="39.1785697639">
        <ele>215.95</ele>
        <time>2013-08-13T14:36:39.000Z</time>
        <speed>3.8432753812701E+249</speed>
      </trkpt>
      <trkpt lat="51.7222030275" lon="39.1784174647">
        <ele>214.99</ele>
        <time>2013-08-13T14:36:54.000Z</time>
        <speed>3.8432753812701E+249</speed>
      </trkpt>
      <trkpt lat="51.7224605195" lon="39.1783802491">
        <ele>214.99</ele>
        <time>2013-08-13T14:36:58.000Z</time>
        <speed>3.8432753812701E+249</speed>
      </trkpt>
      <trkpt lat="51.7230190057" lon="39.1785704345">
        <ele>214.99</ele>
        <time>2013-08-13T14:37:08.000Z</time>
        <speed>3.8432753812701E+249</speed>
      </trkpt>
      <trkpt lat="51.7231885716" lon="39.1787564289">
        <ele>214.51</ele>
        <time>2013-08-13T14:37:15.000Z</time>
        <speed>3.8432753812701E+249</speed>
      </trkpt>
      <trkpt lat="51.7231174931" lon="39.1787467059">
        <ele>214.51</ele>
        <time>2013-08-13T14:37:27.000Z</time>
        <speed>3.8432753812701E+249</speed>
      </trkpt>
      <trkpt lat="51.7231096141" lon="39.1787395813">
        <ele>214.03</ele>
        <time>2013-08-13T14:37:47.000Z</time>
        <speed>3.8432753812701E+249</speed>
      </trkpt>
      <trkpt lat="51.723106429" lon="39.1787426826">
        <ele>213.55</ele>
        <time>2013-08-13T14:38:09.000Z</time>
        <speed>3.8432753812701E+249</speed>
      </trkpt>
      <trkpt lat="51.7231007293" lon="39.1787608713">
        <ele>213.07</ele>
        <time>2013-08-13T14:38:28.000Z</time>
        <speed>3.8432753812701E+249</speed>
      </trkpt>
      <trkpt lat="51.7232232727" lon="39.1788357217">
        <ele>212.59</ele>
        <time>2013-08-13T14:38:42.000Z</time>
        <speed>3.8432753812701E+249</speed>
      </trkpt>
      <trkpt lat="51.723223608" lon="39.1788548324">
        <ele>212.59</ele>
        <time>2013-08-13T14:39:07.000Z</time>
        <speed>3.8432753812701E+249</speed>
      </trkpt>
      <trkpt lat="51.7232283857" lon="39.1788549162">
        <ele>211.63</ele>
        <time>2013-08-13T14:39:35.000Z</time>
        <speed>3.8432753812701E+249</speed>
      </trkpt>
      <trkpt lat="51.7232358456" lon="39.1788518988">
        <ele>160.2</ele>
        <time>2013-08-13T14:39:49.000Z</time>
        <speed>3.8432753812701E+249</speed>
      </trkpt>
      <trkpt lat="51.723236097" lon="39.1788521502">
        <ele>160.2</ele>
        <time>2013-08-13T14:39:50.000Z</time>
        <speed>3.8432753812701E+249</speed>
      </trkpt>
      <trkpt lat="51.7232326604" lon="39.1788595263">
        <ele>159.72</ele>
        <time>2013-08-13T14:40:01.000Z</time>
        <speed>3.8432753812701E+249</speed>
      </trkpt>
      <trkpt lat="51.7232361808" lon="39.1789334547">
        <ele>160.2</ele>
        <time>2013-08-13T14:40:05.000Z</time>
        <speed>3.8432753812701E+249</speed>
      </trkpt>
      <trkpt lat="51.7232589796" lon="39.1793741751">
        <ele>160.68</ele>
        <time>2013-08-13T14:40:23.000Z</time>
        <speed>3.8432753812701E+249</speed>
      </trkpt>
      <trkpt lat="51.7232580576" lon="39.1793702357">
        <ele>161.16</ele>
        <time>2013-08-13T14:40:50.000Z</time>
        <speed>3.8432753812701E+249</speed>
      </trkpt>
      <trkpt lat="51.7232683674" lon="39.1793892626">
        <ele>161.16</ele>
        <time>2013-08-13T14:41:18.000Z</time>
        <speed>3.8432753812701E+249</speed>
      </trkpt>
      <trkpt lat="51.7232824489" lon="39.179537287">
        <ele>161.16</ele>
        <time>2013-08-13T14:41:35.000Z</time>
        <speed>3.8432753812701E+249</speed>
      </trkpt>
      <trkpt lat="51.7233289685" lon="39.1795284022">
        <ele>161.64</ele>
        <time>2013-08-13T14:41:41.000Z</time>
        <speed>3.8432753812701E+249</speed>
      </trkpt>
      <trkpt lat="51.723433407" lon="39.1795186792">
        <ele>161.64</ele>
        <time>2013-08-13T14:41:45.000Z</time>
        <speed>3.8432753812701E+249</speed>
      </trkpt>
      <trkpt lat="51.7235279549" lon="39.1795043461">
        <ele>161.16</ele>
        <time>2013-08-13T14:41:47.000Z</time>
        <speed>3.8432753812701E+249</speed>
      </trkpt>
      <trkpt lat="51.7245134152" lon="39.1793667991">
        <ele>161.16</ele>
        <time>2013-08-13T14:42:01.000Z</time>
        <speed>3.8432753812701E+249</speed>
      </trkpt>
      <trkpt lat="51.7261093296" lon="39.179150546">
        <ele>160.68</ele>
        <time>2013-08-13T14:42:20.000Z</time>
        <speed>3.8432753812701E+249</speed>
      </trkpt>
      <trkpt lat="51.7276643403" lon="39.1789834946">
        <ele>160.2</ele>
        <time>2013-08-13T14:42:38.000Z</time>
        <speed>3.8432753812701E+249</speed>
      </trkpt>
      <trkpt lat="51.7289110646" lon="39.1790496279">
        <ele>160.2</ele>
        <time>2013-08-13T14:42:52.000Z</time>
        <speed>3.8432753812701E+249</speed>
      </trkpt>
      <trkpt lat="51.7304025404" lon="39.1793094669">
        <ele>159.72</ele>
        <time>2013-08-13T14:43:09.000Z</time>
        <speed>3.8432753812701E+249</speed>
      </trkpt>
      <trkpt lat="51.7314190138" lon="39.1796082817">
        <ele>159.72</ele>
        <time>2013-08-13T14:43:21.000Z</time>
        <speed>3.8432753812701E+249</speed>
      </trkpt>
      <trkpt lat="51.7327923048" lon="39.180063419">
        <ele>159.72</ele>
        <time>2013-08-13T14:43:38.000Z</time>
        <speed>3.8432753812701E+249</speed>
      </trkpt>
      <trkpt lat="51.734259557" lon="39.1805322189">
        <ele>160.68</ele>
        <time>2013-08-13T14:43:56.000Z</time>
        <speed>3.8432753812701E+249</speed>
      </trkpt>
      <trkpt lat="51.7358203512" lon="39.1810941417">
        <ele>161.64</ele>
        <time>2013-08-13T14:44:15.000Z</time>
        <speed>3.8432753812701E+249</speed>
      </trkpt>
      <trkpt lat="51.7373271659" lon="39.1816484369">
        <ele>162.12</ele>
        <time>2013-08-13T14:44:33.000Z</time>
        <speed>3.8432753812701E+249</speed>
      </trkpt>
      <trkpt lat="51.7385905702" lon="39.1820775066">
        <ele>163.08</ele>
        <time>2013-08-13T14:44:49.000Z</time>
        <speed>3.8432753812701E+249</speed>
      </trkpt>
      <trkpt lat="51.7398729175" lon="39.1824976075">
        <ele>164.04</ele>
        <time>2013-08-13T14:45:05.000Z</time>
        <speed>3.8432753812701E+249</speed>
      </trkpt>
      <trkpt lat="51.7406951822" lon="39.1827881243">
        <ele>164.04</ele>
        <time>2013-08-13T14:45:16.000Z</time>
        <speed>3.8432753812701E+249</speed>
      </trkpt>
      <trkpt lat="51.7414969113" lon="39.1831041221">
        <ele>164.04</ele>
        <time>2013-08-13T14:45:26.000Z</time>
        <speed>3.8432753812701E+249</speed>
      </trkpt>
      <trkpt lat="51.7428130377" lon="39.1835565772">
        <ele>164.52</ele>
        <time>2013-08-13T14:45:42.000Z</time>
        <speed>3.8432753812701E+249</speed>
      </trkpt>
      <trkpt lat="51.7446169909" lon="39.1841445677">
        <ele>163.56</ele>
        <time>2013-08-13T14:46:02.000Z</time>
        <speed>3.8432753812701E+249</speed>
      </trkpt>
      <trkpt lat="51.7459991667" lon="39.1846520081">
        <ele>163.08</ele>
        <time>2013-08-13T14:46:17.000Z</time>
        <speed>3.8432753812701E+249</speed>
      </trkpt>
      <trkpt lat="51.7475051433" lon="39.18514302">
        <ele>162.6</ele>
        <time>2013-08-13T14:46:33.000Z</time>
        <speed>3.8432753812701E+249</speed>
      </trkpt>
      <trkpt lat="51.7491377704" lon="39.1857018415">
        <ele>162.12</ele>
        <time>2013-08-13T14:46:50.000Z</time>
        <speed>3.8432753812701E+249</speed>
      </trkpt>
      <trkpt lat="51.7507838085" lon="39.1862876527">
        <ele>161.64</ele>
        <time>2013-08-13T14:47:07.000Z</time>
        <speed>3.8432753812701E+249</speed>
      </trkpt>
      <trkpt lat="51.7521845084" lon="39.1867426224">
        <ele>162.12</ele>
        <time>2013-08-13T14:47:23.000Z</time>
        <speed>3.8432753812701E+249</speed>
      </trkpt>
      <trkpt lat="51.7525887676" lon="39.1868981905">
        <ele>162.12</ele>
        <time>2013-08-13T14:47:29.000Z</time>
        <speed>3.8432753812701E+249</speed>
      </trkpt>
      <trkpt lat="51.7530772649" lon="39.1870830953">
        <ele>162.6</ele>
        <time>2013-08-13T14:49:02.000Z</time>
        <speed>3.8432753812701E+249</speed>
      </trkpt>
      <trkpt lat="51.7538913991" lon="39.1873503942">
        <ele>162.6</ele>
        <time>2013-08-13T14:49:16.000Z</time>
        <speed>3.8432753812701E+249</speed>
      </trkpt>
      <trkpt lat="51.7550983932" lon="39.1877709143">
        <ele>162.6</ele>
        <time>2013-08-13T14:49:35.000Z</time>
        <speed>3.8432753812701E+249</speed>
      </trkpt>
      <trkpt lat="51.7560450453" lon="39.1881122254">
        <ele>162.12</ele>
        <time>2013-08-13T14:49:49.000Z</time>
        <speed>3.8432753812701E+249</speed>
      </trkpt>
      <trkpt lat="51.7571708187" lon="39.1884897463">
        <ele>162.12</ele>
        <time>2013-08-13T14:50:05.000Z</time>
        <speed>3.8432753812701E+249</speed>
      </trkpt>
      <trkpt lat="51.7585228197" lon="39.1889489908">
        <ele>162.12</ele>
        <time>2013-08-13T14:50:24.000Z</time>
        <speed>3.8432753812701E+249</speed>
      </trkpt>
      <trkpt lat="51.7596304044" lon="39.189329613">
        <ele>162.12</ele>
        <time>2013-08-13T14:50:39.000Z</time>
        <speed>3.8432753812701E+249</speed>
      </trkpt>
      <trkpt lat="51.7607173696" lon="39.1896986682">
        <ele>160.68</ele>
        <time>2013-08-13T14:50:53.000Z</time>
        <speed>3.8432753812701E+249</speed>
      </trkpt>
      <trkpt lat="51.7618054245" lon="39.1900735069">
        <ele>161.16</ele>
        <time>2013-08-13T14:51:07.000Z</time>
        <speed>3.8432753812701E+249</speed>
      </trkpt>
      <trkpt lat="51.7630352173" lon="39.1905001458">
        <ele>160.2</ele>
        <time>2013-08-13T14:51:23.000Z</time>
        <speed>3.8432753812701E+249</speed>
      </trkpt>
      <trkpt lat="51.7644558661" lon="39.1909889784">
        <ele>160.2</ele>
        <time>2013-08-13T14:51:42.000Z</time>
        <speed>3.8432753812701E+249</speed>
      </trkpt>
      <trkpt lat="51.7657112237" lon="39.1914258432">
        <ele>159.72</ele>
        <time>2013-08-13T14:51:59.000Z</time>
        <speed>3.8432753812701E+249</speed>
      </trkpt>
      <trkpt lat="51.7672632169" lon="39.1919567529">
        <ele>159.72</ele>
        <time>2013-08-13T14:52:20.000Z</time>
        <speed>3.8432753812701E+249</speed>
      </trkpt>
      <trkpt lat="51.7683599051" lon="39.1923393868">
        <ele>160.2</ele>
        <time>2013-08-13T14:52:35.000Z</time>
        <speed>3.8432753812701E+249</speed>
      </trkpt>
      <trkpt lat="51.769637391" lon="39.1927604936">
        <ele>160.2</ele>
        <time>2013-08-13T14:52:52.000Z</time>
        <speed>3.8432753812701E+249</speed>
      </trkpt>
      <trkpt lat="51.7711270228" lon="39.1932866257">
        <ele>160.68</ele>
        <time>2013-08-13T14:53:12.000Z</time>
        <speed>3.8432753812701E+249</speed>
      </trkpt>
      <trkpt lat="51.7723739985" lon="39.1937096603">
        <ele>161.16</ele>
        <time>2013-08-13T14:53:29.000Z</time>
        <speed>3.8432753812701E+249</speed>
      </trkpt>
      <trkpt lat="51.7736804858" lon="39.1941431724">
        <ele>161.16</ele>
        <time>2013-08-13T14:53:46.000Z</time>
        <speed>3.8432753812701E+249</speed>
      </trkpt>
      <trkpt lat="51.77525796" lon="39.1946847271">
        <ele>161.64</ele>
        <time>2013-08-13T14:54:07.000Z</time>
        <speed>3.8432753812701E+249</speed>
      </trkpt>
      <trkpt lat="51.7764545605" lon="39.1951063368">
        <ele>161.64</ele>
        <time>2013-08-13T14:54:23.000Z</time>
        <speed>3.8432753812701E+249</speed>
      </trkpt>
      <trkpt lat="51.7779373191" lon="39.1956614703">
        <ele>162.12</ele>
        <time>2013-08-13T14:54:43.000Z</time>
        <speed>3.8432753812701E+249</speed>
      </trkpt>
      <trkpt lat="51.7792521045" lon="39.1961040348">
        <ele>163.08</ele>
        <time>2013-08-13T14:55:01.000Z</time>
        <speed>3.8432753812701E+249</speed>
      </trkpt>
      <trkpt lat="51.7805253156" lon="39.196516173">
        <ele>162.6</ele>
        <time>2013-08-13T14:55:18.000Z</time>
        <speed>3.8432753812701E+249</speed>
      </trkpt>
      <trkpt lat="51.7820812482" lon="39.1970213503">
        <ele>163.56</ele>
        <time>2013-08-13T14:55:38.000Z</time>
        <speed>3.8432753812701E+249</speed>
      </trkpt>
      <trkpt lat="51.7837111093" lon="39.1975761484">
        <ele>162.12</ele>
        <time>2013-08-13T14:55:59.000Z</time>
        <speed>3.8432753812701E+249</speed>
      </trkpt>
      <trkpt lat="51.7853347678" lon="39.1981399991">
        <ele>161.64</ele>
        <time>2013-08-13T14:56:20.000Z</time>
        <speed>3.8432753812701E+249</speed>
      </trkpt>
      <trkpt lat="51.7867373955" lon="39.1986227129">
        <ele>160.68</ele>
        <time>2013-08-13T14:56:38.000Z</time>
        <speed>3.8432753812701E+249</speed>
      </trkpt>
      <trkpt lat="51.7883983534" lon="39.1991599929">
        <ele>160.68</ele>
        <time>2013-08-13T14:57:00.000Z</time>
        <speed>3.8432753812701E+249</speed>
      </trkpt>
      <trkpt lat="51.7899110354" lon="39.1995555349">
        <ele>159.72</ele>
        <time>2013-08-13T14:57:20.000Z</time>
        <speed>3.8432753812701E+249</speed>
      </trkpt>
      <trkpt lat="51.7915670481" lon="39.1999395099">
        <ele>158.27</ele>
        <time>2013-08-13T14:57:42.000Z</time>
        <speed>3.8432753812701E+249</speed>
      </trkpt>
      <trkpt lat="51.7931166105" lon="39.2003461998">
        <ele>157.79</ele>
        <time>2013-08-13T14:58:02.000Z</time>
        <speed>3.8432753812701E+249</speed>
      </trkpt>
      <trkpt lat="51.7945627403" lon="39.2008113116">
        <ele>157.79</ele>
        <time>2013-08-13T14:58:21.000Z</time>
        <speed>3.8432753812701E+249</speed>
      </trkpt>
      <trkpt lat="51.7959451675" lon="39.2012748308">
        <ele>159.72</ele>
        <time>2013-08-13T14:58:40.000Z</time>
        <speed>3.8432753812701E+249</speed>
      </trkpt>
      <trkpt lat="51.7972638924" lon="39.2017306387">
        <ele>160.68</ele>
        <time>2013-08-13T14:58:58.000Z</time>
        <speed>3.8432753812701E+249</speed>
      </trkpt>
      <trkpt lat="51.7986967787" lon="39.2022123467">
        <ele>161.16</ele>
        <time>2013-08-13T14:59:17.000Z</time>
        <speed>3.8432753812701E+249</speed>
      </trkpt>
      <trkpt lat="51.7999757733" lon="39.2026527319">
        <ele>161.64</ele>
        <time>2013-08-13T14:59:34.000Z</time>
        <speed>3.8432753812701E+249</speed>
      </trkpt>
      <trkpt lat="51.8009788357" lon="39.2029288318">
        <ele>161.64</ele>
        <time>2013-08-13T14:59:47.000Z</time>
        <speed>3.8432753812701E+249</speed>
      </trkpt>
      <trkpt lat="51.8025812879" lon="39.2035114579">
        <ele>161.16</ele>
        <time>2013-08-13T15:00:09.000Z</time>
        <speed>3.8432753812701E+249</speed>
      </trkpt>
      <trkpt lat="51.8038288504" lon="39.2039635777">
        <ele>161.16</ele>
        <time>2013-08-13T15:00:26.000Z</time>
        <speed>3.8432753812701E+249</speed>
      </trkpt>
      <trkpt lat="51.8051962741" lon="39.2043729499">
        <ele>161.16</ele>
        <time>2013-08-13T15:00:45.000Z</time>
        <speed>3.8432753812701E+249</speed>
      </trkpt>
      <trkpt lat="51.8066273164" lon="39.2048489582">
        <ele>160.68</ele>
        <time>2013-08-13T15:01:04.000Z</time>
        <speed>3.8432753812701E+249</speed>
      </trkpt>
      <trkpt lat="51.8080844264" lon="39.2053597514">
        <ele>159.72</ele>
        <time>2013-08-13T15:01:23.000Z</time>
        <speed>3.8432753812701E+249</speed>
      </trkpt>
      <trkpt lat="51.8094060011" lon="39.2058140505">
        <ele>158.75</ele>
        <time>2013-08-13T15:01:40.000Z</time>
        <speed>3.8432753812701E+249</speed>
      </trkpt>
      <trkpt lat="51.810986409" lon="39.2063507438">
        <ele>156.35</ele>
        <time>2013-08-13T15:01:58.000Z</time>
        <speed>3.8432753812701E+249</speed>
      </trkpt>
      <trkpt lat="51.8128466886" lon="39.2069834936">
        <ele>155.39</ele>
        <time>2013-08-13T15:02:19.000Z</time>
        <speed>3.8432753812701E+249</speed>
      </trkpt>
      <trkpt lat="51.8142667506" lon="39.2074759305">
        <ele>156.35</ele>
        <time>2013-08-13T15:02:37.000Z</time>
        <speed>3.8432753812701E+249</speed>
      </trkpt>
      <trkpt lat="51.8157318234" lon="39.2079794314">
        <ele>157.79</ele>
        <time>2013-08-13T15:02:57.000Z</time>
        <speed>3.8432753812701E+249</speed>
      </trkpt>
      <trkpt lat="51.8173101358" lon="39.2085273564">
        <ele>158.75</ele>
        <time>2013-08-13T15:03:19.000Z</time>
        <speed>3.8432753812701E+249</speed>
      </trkpt>
      <trkpt lat="51.8185169622" lon="39.2089455295">
        <ele>157.79</ele>
        <time>2013-08-13T15:03:35.000Z</time>
        <speed>3.8432753812701E+249</speed>
      </trkpt>
      <trkpt lat="51.8199809454" lon="39.2094329372">
        <ele>156.83</ele>
        <time>2013-08-13T15:03:53.000Z</time>
        <speed>3.8432753812701E+249</speed>
      </trkpt>
      <trkpt lat="51.8212831579" lon="39.2098709755">
        <ele>155.39</ele>
        <time>2013-08-13T15:04:08.000Z</time>
        <speed>3.8432753812701E+249</speed>
      </trkpt>
      <trkpt lat="51.8232744467" lon="39.2105532624">
        <ele>152.51</ele>
        <time>2013-08-13T15:04:30.000Z</time>
        <speed>3.8432753812701E+249</speed>
      </trkpt>
      <trkpt lat="51.8249052297" lon="39.2111123353">
        <ele>150.58</ele>
        <time>2013-08-13T15:04:48.000Z</time>
        <speed>3.8432753812701E+249</speed>
      </trkpt>
      <trkpt lat="51.8266238552" lon="39.2116878368">
        <ele>151.54</ele>
        <time>2013-08-13T15:05:09.000Z</time>
        <speed>3.8432753812701E+249</speed>
      </trkpt>
      <trkpt lat="51.8280008342" lon="39.2121627554">
        <ele>153.47</ele>
        <time>2013-08-13T15:05:28.000Z</time>
        <speed>3.8432753812701E+249</speed>
      </trkpt>
      <trkpt lat="51.829402959" lon="39.2126474809">
        <ele>154.91</ele>
        <time>2013-08-13T15:05:49.000Z</time>
        <speed>3.8432753812701E+249</speed>
      </trkpt>
      <trkpt lat="51.8305786047" lon="39.2130426876">
        <ele>157.31</ele>
        <time>2013-08-13T15:06:07.000Z</time>
        <speed>3.8432753812701E+249</speed>
      </trkpt>
      <trkpt lat="51.8316723593" lon="39.2133524828">
        <ele>159.72</ele>
        <time>2013-08-13T15:06:25.000Z</time>
        <speed>3.8432753812701E+249</speed>
      </trkpt>
      <trkpt lat="51.8327943608" lon="39.2135910317">
        <ele>161.64</ele>
        <time>2013-08-13T15:06:43.000Z</time>
        <speed>3.8432753812701E+249</speed>
      </trkpt>
      <trkpt lat="51.8340546638" lon="39.2138114758">
        <ele>164.52</ele>
        <time>2013-08-13T15:07:03.000Z</time>
        <speed>3.8432753812701E+249</speed>
      </trkpt>
      <trkpt lat="51.8352293875" lon="39.2141959537">
        <ele>167.41</ele>
        <time>2013-08-13T15:07:23.000Z</time>
        <speed>3.8432753812701E+249</speed>
      </trkpt>
      <trkpt lat="51.8359862734" lon="39.2147180624">
        <ele>170.77</ele>
        <time>2013-08-13T15:07:38.000Z</time>
        <speed>3.8432753812701E+249</speed>
      </trkpt>
      <trkpt lat="51.8366896827" lon="39.2156208772">
        <ele>173.66</ele>
        <time>2013-08-13T15:07:54.000Z</time>
        <speed>3.8432753812701E+249</speed>
      </trkpt>
      <trkpt lat="51.8368491903" lon="39.2158791237">
        <ele>174.62</ele>
        <time>2013-08-13T15:07:58.000Z</time>
        <speed>3.8432753812701E+249</speed>
      </trkpt>
      <trkpt lat="51.8371218536" lon="39.2164650187">
        <ele>175.58</ele>
        <time>2013-08-13T15:08:06.000Z</time>
        <speed>3.8432753812701E+249</speed>
      </trkpt>
      <trkpt lat="51.8377709482" lon="39.2176967394">
        <ele>177.5</ele>
        <time>2013-08-13T15:08:23.000Z</time>
        <speed>3.8432753812701E+249</speed>
      </trkpt>
      <trkpt lat="51.8386081327" lon="39.2184989713">
        <ele>177.98</ele>
        <time>2013-08-13T15:08:38.000Z</time>
        <speed>3.8432753812701E+249</speed>
      </trkpt>
      <trkpt lat="51.8395980354" lon="39.2188148014">
        <ele>177.02</ele>
        <time>2013-08-13T15:08:52.000Z</time>
        <speed>3.8432753812701E+249</speed>
      </trkpt>
      <trkpt lat="51.8407190312" lon="39.2184594925">
        <ele>174.62</ele>
        <time>2013-08-13T15:09:06.000Z</time>
        <speed>3.8432753812701E+249</speed>
      </trkpt>
      <trkpt lat="51.8415989634" lon="39.2175274249">
        <ele>171.73</ele>
        <time>2013-08-13T15:09:17.000Z</time>
        <speed>3.8432753812701E+249</speed>
      </trkpt>
      <trkpt lat="51.842097519" lon="39.2166278791">
        <ele>168.85</ele>
        <time>2013-08-13T15:09:24.000Z</time>
        <speed>3.8432753812701E+249</speed>
      </trkpt>
      <trkpt lat="51.8430787046" lon="39.2152787279">
        <ele>165.48</ele>
        <time>2013-08-13T15:09:36.000Z</time>
        <speed>3.8432753812701E+249</speed>
      </trkpt>
      <trkpt lat="51.8441468105" lon="39.214775227">
        <ele>163.56</ele>
        <time>2013-08-13T15:09:47.000Z</time>
        <speed>3.8432753812701E+249</speed>
      </trkpt>
      <trkpt lat="51.8456228636" lon="39.21469694">
        <ele>163.08</ele>
        <time>2013-08-13T15:10:04.000Z</time>
        <speed>3.8432753812701E+249</speed>
      </trkpt>
      <trkpt lat="51.8473418243" lon="39.2148379236">
        <ele>160.68</ele>
        <time>2013-08-13T15:10:24.000Z</time>
        <speed>3.8432753812701E+249</speed>
      </trkpt>
      <trkpt lat="51.848785691" lon="39.2149602994">
        <ele>158.75</ele>
        <time>2013-08-13T15:10:40.000Z</time>
        <speed>3.8432753812701E+249</speed>
      </trkpt>
      <trkpt lat="51.8498397991" lon="39.2150229961">
        <ele>155.87</ele>
        <time>2013-08-13T15:10:51.000Z</time>
        <speed>3.8432753812701E+249</speed>
      </trkpt>
      <trkpt lat="51.8508469686" lon="39.2151166219">
        <ele>152.51</ele>
        <time>2013-08-13T15:11:02.000Z</time>
        <speed>3.8432753812701E+249</speed>
      </trkpt>
      <trkpt lat="51.8523003906" lon="39.2151875328">
        <ele>149.62</ele>
        <time>2013-08-13T15:11:17.000Z</time>
        <speed>3.8432753812701E+249</speed>
      </trkpt>
      <trkpt lat="51.8539901823" lon="39.2153268401">
        <ele>147.22</ele>
        <time>2013-08-13T15:11:34.000Z</time>
        <speed>3.8432753812701E+249</speed>
      </trkpt>
      <trkpt lat="51.8544740696" lon="39.2153594457">
        <ele>148.18</ele>
        <time>2013-08-13T15:11:39.000Z</time>
        <speed>3.8432753812701E+249</speed>
      </trkpt>
      <trkpt lat="51.8563783541" lon="39.2154943943">
        <ele>150.1</ele>
        <time>2013-08-13T15:12:00.000Z</time>
        <speed>3.8432753812701E+249</speed>
      </trkpt>
      <trkpt lat="51.8578875158" lon="39.215595983">
        <ele>151.06</ele>
        <time>2013-08-13T15:12:19.000Z</time>
        <speed>3.8432753812701E+249</speed>
      </trkpt>
      <trkpt lat="51.8593146186" lon="39.2156903632">
        <ele>151.06</ele>
        <time>2013-08-13T15:12:36.000Z</time>
        <speed>3.8432753812701E+249</speed>
      </trkpt>
      <trkpt lat="51.8611082621" lon="39.2158374656">
        <ele>148.66</ele>
        <time>2013-08-13T15:12:56.000Z</time>
        <speed>3.8432753812701E+249</speed>
      </trkpt>
      <trkpt lat="51.8612014689" lon="39.21584283">
        <ele>149.14</ele>
        <time>2013-08-13T15:12:57.000Z</time>
        <speed>3.8432753812701E+249</speed>
      </trkpt>
      <trkpt lat="51.8628273904" lon="39.2159595061">
        <ele>145.78</ele>
        <time>2013-08-13T15:13:13.000Z</time>
        <speed>3.8432753812701E+249</speed>
      </trkpt>
      <trkpt lat="51.8641663995" lon="39.216074422">
        <ele>142.89</ele>
        <time>2013-08-13T15:13:24.000Z</time>
        <speed>3.8432753812701E+249</speed>
      </trkpt>
      <trkpt lat="51.8654684443" lon="39.2161830515">
        <ele>139.53</ele>
        <time>2013-08-13T15:13:34.000Z</time>
        <speed>3.8432753812701E+249</speed>
      </trkpt>
      <trkpt lat="51.8665755261" lon="39.2162720673">
        <ele>136.64</ele>
        <time>2013-08-13T15:13:43.000Z</time>
        <speed>3.8432753812701E+249</speed>
      </trkpt>
      <trkpt lat="51.8679266889" lon="39.2163725663">
        <ele>133.28</ele>
        <time>2013-08-13T15:13:54.000Z</time>
        <speed>3.8432753812701E+249</speed>
      </trkpt>
      <trkpt lat="51.8696384411" lon="39.2165200878">
        <ele>130.4</ele>
        <time>2013-08-13T15:14:09.000Z</time>
        <speed>3.8432753812701E+249</speed>
      </trkpt>
      <trkpt lat="51.8698387686" lon="39.216531571">
        <ele>132.8</ele>
        <time>2013-08-13T15:14:11.000Z</time>
        <speed>3.8432753812701E+249</speed>
      </trkpt>
      <trkpt lat="51.870039599" lon="39.2165442277">
        <ele>131.36</ele>
        <time>2013-08-13T15:14:13.000Z</time>
        <speed>3.8432753812701E+249</speed>
      </trkpt>
      <trkpt lat="51.8712507002" lon="39.2166337464">
        <ele>134.24</ele>
        <time>2013-08-13T15:14:27.000Z</time>
        <speed>3.8432753812701E+249</speed>
      </trkpt>
      <trkpt lat="51.8721931614" lon="39.2167106085">
        <ele>137.13</ele>
        <time>2013-08-13T15:14:41.000Z</time>
        <speed>3.8432753812701E+249</speed>
      </trkpt>
      <trkpt lat="51.8730415776" lon="39.2167614866">
        <ele>140.49</ele>
        <time>2013-08-13T15:14:55.000Z</time>
        <speed>3.8432753812701E+249</speed>
      </trkpt>
      <trkpt lat="51.8740100227" lon="39.2168258596">
        <ele>143.85</ele>
        <time>2013-08-13T15:15:11.000Z</time>
        <speed>3.8432753812701E+249</speed>
      </trkpt>
      <trkpt lat="51.8743099272" lon="39.2168572918">
        <ele>144.34</ele>
        <time>2013-08-13T15:15:16.000Z</time>
        <speed>3.8432753812701E+249</speed>
      </trkpt>
      <trkpt lat="51.8752605189" lon="39.2169181444">
        <ele>147.22</ele>
        <time>2013-08-13T15:15:32.000Z</time>
        <speed>3.8432753812701E+249</speed>
      </trkpt>
      <trkpt lat="51.8763496634" lon="39.2169971857">
        <ele>150.1</ele>
        <time>2013-08-13T15:15:50.000Z</time>
        <speed>3.8432753812701E+249</speed>
      </trkpt>
      <trkpt lat="51.8773338664" lon="39.2170774844">
        <ele>152.51</ele>
        <time>2013-08-13T15:16:06.000Z</time>
        <speed>3.8432753812701E+249</speed>
      </trkpt>
      <trkpt lat="51.8784686923" lon="39.2171521671">
        <ele>154.91</ele>
        <time>2013-08-13T15:16:24.000Z</time>
        <speed>3.8432753812701E+249</speed>
      </trkpt>
      <trkpt lat="51.8796361238" lon="39.2172312085">
        <ele>155.87</ele>
        <time>2013-08-13T15:16:41.000Z</time>
        <speed>3.8432753812701E+249</speed>
      </trkpt>
      <trkpt lat="51.8808928225" lon="39.2173353955">
        <ele>156.35</ele>
        <time>2013-08-13T15:16:58.000Z</time>
        <speed>3.8432753812701E+249</speed>
      </trkpt>
      <trkpt lat="51.8823117949" lon="39.2174366489">
        <ele>156.35</ele>
        <time>2013-08-13T15:17:16.000Z</time>
        <speed>3.8432753812701E+249</speed>
      </trkpt>
      <trkpt lat="51.8840486929" lon="39.2175581027">
        <ele>152.99</ele>
        <time>2013-08-13T15:17:36.000Z</time>
        <speed>3.8432753812701E+249</speed>
      </trkpt>
      <trkpt lat="51.8842987251" lon="39.2175752856">
        <ele>156.35</ele>
        <time>2013-08-13T15:17:39.000Z</time>
        <speed>3.8432753812701E+249</speed>
      </trkpt>
      <trkpt lat="51.8857622892" lon="39.2177412473">
        <ele>153.47</ele>
        <time>2013-08-13T15:17:56.000Z</time>
        <speed>3.8432753812701E+249</speed>
      </trkpt>
      <trkpt lat="51.8871737178" lon="39.2178430874">
        <ele>153.95</ele>
        <time>2013-08-13T15:18:13.000Z</time>
        <speed>3.8432753812701E+249</speed>
      </trkpt>
      <trkpt lat="51.8888136372" lon="39.2179633677">
        <ele>155.39</ele>
        <time>2013-08-13T15:18:34.000Z</time>
        <speed>3.8432753812701E+249</speed>
      </trkpt>
      <trkpt lat="51.8900270853" lon="39.2180681415">
        <ele>156.83</ele>
        <time>2013-08-13T15:18:50.000Z</time>
        <speed>3.8432753812701E+249</speed>
      </trkpt>
      <trkpt lat="51.8911640067" lon="39.218169814">
        <ele>156.83</ele>
        <time>2013-08-13T15:19:05.000Z</time>
        <speed>3.8432753812701E+249</speed>
      </trkpt>
      <trkpt lat="51.8915733788" lon="39.2188180704">
        <ele>156.35</ele>
        <time>2013-08-13T15:19:13.000Z</time>
        <speed>3.8432753812701E+249</speed>
      </trkpt>
      <trkpt lat="51.8914358318" lon="39.2194405105">
        <ele>157.31</ele>
        <time>2013-08-13T15:19:19.000Z</time>
        <speed>3.8432753812701E+249</speed>
      </trkpt>
      <trkpt lat="51.8906496931" lon="39.2204973008">
        <ele>158.27</ele>
        <time>2013-08-13T15:19:34.000Z</time>
        <speed>3.8432753812701E+249</speed>
      </trkpt>
      <trkpt lat="51.8903165124" lon="39.2206909228">
        <ele>158.27</ele>
        <time>2013-08-13T15:19:39.000Z</time>
        <speed>3.8432753812701E+249</speed>
      </trkpt>
      <trkpt lat="51.8900390714" lon="39.2207463272">
        <ele>158.27</ele>
        <time>2013-08-13T15:19:43.000Z</time>
        <speed>3.8432753812701E+249</speed>
      </trkpt>
      <trkpt lat="51.8896131031" lon="39.2206179164">
        <ele>158.27</ele>
        <time>2013-08-13T15:19:49.000Z</time>
        <speed>3.8432753812701E+249</speed>
      </trkpt>
      <trkpt lat="51.8893010449" lon="39.2203626037">
        <ele>158.27</ele>
        <time>2013-08-13T15:19:54.000Z</time>
        <speed>3.8432753812701E+249</speed>
      </trkpt>
      <trkpt lat="51.8890635855" lon="39.2199782934">
        <ele>158.75</ele>
        <time>2013-08-13T15:19:59.000Z</time>
        <speed>3.8432753812701E+249</speed>
      </trkpt>
      <trkpt lat="51.8889521062" lon="39.219703367">
        <ele>159.24</ele>
        <time>2013-08-13T15:20:02.000Z</time>
        <speed>3.8432753812701E+249</speed>
      </trkpt>
      <trkpt lat="51.8888977915" lon="39.2195099127">
        <ele>159.72</ele>
        <time>2013-08-13T15:20:04.000Z</time>
        <speed>3.8432753812701E+249</speed>
      </trkpt>
      <trkpt lat="51.8888376094" lon="39.2190833576">
        <ele>160.2</ele>
        <time>2013-08-13T15:20:08.000Z</time>
        <speed>3.8432753812701E+249</speed>
      </trkpt>
      <trkpt lat="51.8888806924" lon="39.2173784785">
        <ele>161.64</ele>
        <time>2013-08-13T15:20:24.000Z</time>
        <speed>3.8432753812701E+249</speed>
      </trkpt>
      <trkpt lat="51.8889589794" lon="39.2157518025">
        <ele>158.27</ele>
        <time>2013-08-13T15:20:36.000Z</time>
        <speed>3.8432753812701E+249</speed>
      </trkpt>
      <trkpt lat="51.8890233524" lon="39.2143261246">
        <ele>154.91</ele>
        <time>2013-08-13T15:20:45.000Z</time>
        <speed>3.8432753812701E+249</speed>
      </trkpt>
      <trkpt lat="51.8890790921" lon="39.2131497245">
        <ele>152.03</ele>
        <time>2013-08-13T15:20:52.000Z</time>
        <speed>3.8432753812701E+249</speed>
      </trkpt>
      <trkpt lat="51.8891866319" lon="39.2108733673">
        <ele>149.62</ele>
        <time>2013-08-13T15:21:07.000Z</time>
        <speed>3.8432753812701E+249</speed>
      </trkpt>
      <trkpt lat="51.8893047329" lon="39.208766995">
        <ele>148.18</ele>
        <time>2013-08-13T15:21:23.000Z</time>
        <speed>3.8432753812701E+249</speed>
      </trkpt>
      <trkpt lat="51.8894069083" lon="39.20679993">
        <ele>147.22</ele>
        <time>2013-08-13T15:21:40.000Z</time>
        <speed>3.8432753812701E+249</speed>
      </trkpt>
      <trkpt lat="51.8895175494" lon="39.2047384847">
        <ele>145.78</ele>
        <time>2013-08-13T15:21:57.000Z</time>
        <speed>3.8432753812701E+249</speed>
      </trkpt>
      <trkpt lat="51.889616875" lon="39.2028442584">
        <ele>144.82</ele>
        <time>2013-08-13T15:22:13.000Z</time>
        <speed>3.8432753812701E+249</speed>
      </trkpt>
      <trkpt lat="51.8897398375" lon="39.2004005983">
        <ele>143.85</ele>
        <time>2013-08-13T15:22:33.000Z</time>
        <speed>3.8432753812701E+249</speed>
      </trkpt>
      <trkpt lat="51.8898561783" lon="39.1982458625">
        <ele>143.37</ele>
        <time>2013-08-13T15:22:51.000Z</time>
        <speed>3.8432753812701E+249</speed>
      </trkpt>
      <trkpt lat="51.8899827451" lon="39.195879316">
        <ele>142.41</ele>
        <time>2013-08-13T15:23:10.000Z</time>
        <speed>3.8432753812701E+249</speed>
      </trkpt>
      <trkpt lat="51.8900914583" lon="39.1937447805">
        <ele>141.93</ele>
        <time>2013-08-13T15:23:27.000Z</time>
        <speed>3.8432753812701E+249</speed>
      </trkpt>
      <trkpt lat="51.890200926" lon="39.1917947307">
        <ele>141.45</ele>
        <time>2013-08-13T15:23:43.000Z</time>
        <speed>3.8432753812701E+249</speed>
      </trkpt>
      <trkpt lat="51.8903362099" lon="39.1893436946">
        <ele>140.49</ele>
        <time>2013-08-13T15:24:02.000Z</time>
        <speed>3.8432753812701E+249</speed>
      </trkpt>
      <trkpt lat="51.8904628605" lon="39.1870763898">
        <ele>139.53</ele>
        <time>2013-08-13T15:24:20.000Z</time>
        <speed>3.8432753812701E+249</speed>
      </trkpt>
      <trkpt lat="51.8905459251" lon="39.185371343">
        <ele>137.61</ele>
        <time>2013-08-13T15:24:34.000Z</time>
        <speed>3.8432753812701E+249</speed>
      </trkpt>
      <trkpt lat="51.890791012" lon="39.1832694132">
        <ele>135.2</ele>
        <time>2013-08-13T15:24:50.000Z</time>
        <speed>3.8432753812701E+249</speed>
      </trkpt>
      <trkpt lat="51.8913067505" lon="39.1814720817">
        <ele>133.28</ele>
        <time>2013-08-13T15:25:05.000Z</time>
        <speed>3.8432753812701E+249</speed>
      </trkpt>
      <trkpt lat="51.8920622952" lon="39.1797080263">
        <ele>132.32</ele>
        <time>2013-08-13T15:25:22.000Z</time>
        <speed>3.8432753812701E+249</speed>
      </trkpt>
      <trkpt lat="51.8924859166" lon="39.1780342441">
        <ele>129.43</ele>
        <time>2013-08-13T15:25:36.000Z</time>
        <speed>3.8432753812701E+249</speed>
      </trkpt>
      <trkpt lat="51.8927506171" lon="39.1761344019">
        <ele>126.07</ele>
        <time>2013-08-13T15:25:50.000Z</time>
        <speed>3.8432753812701E+249</speed>
      </trkpt>
      <trkpt lat="51.8930396251" lon="39.1740467213">
        <ele>123.19</ele>
        <time>2013-08-13T15:26:05.000Z</time>
        <speed>3.8432753812701E+249</speed>
      </trkpt>
      <trkpt lat="51.893342128" lon="39.171890812">
        <ele>119.82</ele>
        <time>2013-08-13T15:26:21.000Z</time>
        <speed>3.8432753812701E+249</speed>
      </trkpt>
      <trkpt lat="51.8936718721" lon="39.1698928177">
        <ele>116.94</ele>
        <time>2013-08-13T15:26:36.000Z</time>
        <speed>3.8432753812701E+249</speed>
      </trkpt>
      <trkpt lat="51.8940250855" lon="39.1682088096">
        <ele>113.57</ele>
        <time>2013-08-13T15:26:48.000Z</time>
        <speed>3.8432753812701E+249</speed>
      </trkpt>
      <trkpt lat="51.8944200408" lon="39.1664349474">
        <ele>113.57</ele>
        <time>2013-08-13T15:27:03.000Z</time>
        <speed>3.8432753812701E+249</speed>
      </trkpt>
      <trkpt lat="51.8948887568" lon="39.1643058602">
        <ele>113.09</ele>
        <time>2013-08-13T15:27:22.000Z</time>
        <speed>3.8432753812701E+249</speed>
      </trkpt>
      <trkpt lat="51.8952865619" lon="39.1624884121">
        <ele>111.17</ele>
        <time>2013-08-13T15:27:38.000Z</time>
        <speed>3.8432753812701E+249</speed>
      </trkpt>
      <trkpt lat="51.8957281206" lon="39.1604863945">
        <ele>109.73</ele>
        <time>2013-08-13T15:27:55.000Z</time>
        <speed>3.8432753812701E+249</speed>
      </trkpt>
      <trkpt lat="51.8961785641" lon="39.158400055">
        <ele>108.29</ele>
        <time>2013-08-13T15:28:12.000Z</time>
        <speed>3.8432753812701E+249</speed>
      </trkpt>
      <trkpt lat="51.8966018502" lon="39.1561791021">
        <ele>107.32</ele>
        <time>2013-08-13T15:28:31.000Z</time>
        <speed>3.8432753812701E+249</speed>
      </trkpt>
      <trkpt lat="51.8969521299" lon="39.1540765017">
        <ele>107.81</ele>
        <time>2013-08-13T15:28:50.000Z</time>
        <speed>3.8432753812701E+249</speed>
      </trkpt>
      <trkpt lat="51.8972449936" lon="39.1521207523">
        <ele>107.81</ele>
        <time>2013-08-13T15:29:08.000Z</time>
        <speed>3.8432753812701E+249</speed>
      </trkpt>
      <trkpt lat="51.8975433894" lon="39.1501954291">
        <ele>107.81</ele>
        <time>2013-08-13T15:29:26.000Z</time>
        <speed>3.8432753812701E+249</speed>
      </trkpt>
      <trkpt lat="51.897775149" lon="39.1486135963">
        <ele>107.81</ele>
        <time>2013-08-13T15:29:41.000Z</time>
        <speed>3.8432753812701E+249</speed>
      </trkpt>
      <trkpt lat="51.8980704434" lon="39.1467264108">
        <ele>108.29</ele>
        <time>2013-08-13T15:29:59.000Z</time>
        <speed>3.8432753812701E+249</speed>
      </trkpt>
      <trkpt lat="51.8983001076" lon="39.1455398686">
        <ele>108.77</ele>
        <time>2013-08-13T15:30:11.000Z</time>
        <speed>3.8432753812701E+249</speed>
      </trkpt>
      <trkpt lat="51.8983967509" lon="39.1450705659">
        <ele>108.77</ele>
        <time>2013-08-13T15:30:16.000Z</time>
        <speed>3.8432753812701E+249</speed>
      </trkpt>
      <trkpt lat="51.8982649036" lon="39.1444553342">
        <ele>109.25</ele>
        <time>2013-08-13T15:30:23.000Z</time>
        <speed>3.8432753812701E+249</speed>
      </trkpt>
      <trkpt lat="51.8982147798" lon="39.1444011871">
        <ele>109.25</ele>
        <time>2013-08-13T15:30:24.000Z</time>
        <speed>3.8432753812701E+249</speed>
      </trkpt>
      <trkpt lat="51.8971827161" lon="39.1434048302">
        <ele>111.17</ele>
        <time>2013-08-13T15:30:44.000Z</time>
        <speed>3.8432753812701E+249</speed>
      </trkpt>
      <trkpt lat="51.896313848" lon="39.1425532289">
        <ele>112.61</ele>
        <time>2013-08-13T15:31:01.000Z</time>
        <speed>3.8432753812701E+249</speed>
      </trkpt>
      <trkpt lat="51.8954270426" lon="39.141689809">
        <ele>114.53</ele>
        <time>2013-08-13T15:31:19.000Z</time>
        <speed>3.8432753812701E+249</speed>
      </trkpt>
      <trkpt lat="51.8945788778" lon="39.1408725735">
        <ele>116.46</ele>
        <time>2013-08-13T15:31:37.000Z</time>
        <speed>3.8432753812701E+249</speed>
      </trkpt>
      <trkpt lat="51.8935974408" lon="39.1399161983">
        <ele>119.82</ele>
        <time>2013-08-13T15:31:58.000Z</time>
        <speed>3.8432753812701E+249</speed>
      </trkpt>
      <trkpt lat="51.8927931972" lon="39.1391270421">
        <ele>121.26</ele>
        <time>2013-08-13T15:32:14.000Z</time>
        <speed>3.8432753812701E+249</speed>
      </trkpt>
      <trkpt lat="51.8922467809" lon="39.1385833919">
        <ele>121.74</ele>
        <time>2013-08-13T15:32:25.000Z</time>
        <speed>3.8432753812701E+249</speed>
      </trkpt>
      <trkpt lat="51.8913425412" lon="39.1377027892">
        <ele>121.74</ele>
        <time>2013-08-13T15:32:42.000Z</time>
        <speed>3.8432753812701E+249</speed>
      </trkpt>
      <trkpt lat="51.8904897664" lon="39.1368640959">
        <ele>122.71</ele>
        <time>2013-08-13T15:32:58.000Z</time>
        <speed>3.8432753812701E+249</speed>
      </trkpt>
      <trkpt lat="51.8895929027" lon="39.1359871812">
        <ele>123.19</ele>
        <time>2013-08-13T15:33:15.000Z</time>
        <speed>3.8432753812701E+249</speed>
      </trkpt>
      <trkpt lat="51.8886472564" lon="39.1350693628">
        <ele>124.15</ele>
        <time>2013-08-13T15:33:33.000Z</time>
        <speed>3.8432753812701E+249</speed>
      </trkpt>
      <trkpt lat="51.8875908852" lon="39.1340536438">
        <ele>125.59</ele>
        <time>2013-08-13T15:33:53.000Z</time>
        <speed>3.8432753812701E+249</speed>
      </trkpt>
      <trkpt lat="51.8867953587" lon="39.1332696844">
        <ele>127.51</ele>
        <time>2013-08-13T15:34:10.000Z</time>
        <speed>3.8432753812701E+249</speed>
      </trkpt>
      <trkpt lat="51.8858368043" lon="39.1323504411">
        <ele>129.43</ele>
        <time>2013-08-13T15:34:31.000Z</time>
        <speed>3.8432753812701E+249</speed>
      </trkpt>
      <trkpt lat="51.884964332" lon="39.1315117478">
        <ele>131.84</ele>
        <time>2013-08-13T15:34:50.000Z</time>
        <speed>3.8432753812701E+249</speed>
      </trkpt>
      <trkpt lat="51.8840283249" lon="39.1305952705">
        <ele>133.76</ele>
        <time>2013-08-13T15:35:11.000Z</time>
        <speed>3.8432753812701E+249</speed>
      </trkpt>
      <trkpt lat="51.8839824758" lon="39.1305482481">
        <ele>133.76</ele>
        <time>2013-08-13T15:35:12.000Z</time>
        <speed>3.8432753812701E+249</speed>
      </trkpt>
      <trkpt lat="51.8831696827" lon="39.1297740955">
        <ele>136.16</ele>
        <time>2013-08-13T15:35:30.000Z</time>
        <speed>3.8432753812701E+249</speed>
      </trkpt>
      <trkpt lat="51.8825294729" lon="39.1291621327">
        <ele>139.05</ele>
        <time>2013-08-13T15:35:45.000Z</time>
        <speed>3.8432753812701E+249</speed>
      </trkpt>
      <trkpt lat="51.8824745715" lon="39.1287499107">
        <ele>140.01</ele>
        <time>2013-08-13T15:35:51.000Z</time>
        <speed>3.8432753812701E+249</speed>
      </trkpt>
      <trkpt lat="51.8830017094" lon="39.1274944693">
        <ele>142.89</ele>
        <time>2013-08-13T15:36:10.000Z</time>
        <speed>3.8432753812701E+249</speed>
      </trkpt>
      <trkpt lat="51.8834130932" lon="39.1265925765">
        <ele>144.82</ele>
        <time>2013-08-13T15:36:24.000Z</time>
        <speed>3.8432753812701E+249</speed>
      </trkpt>
      <trkpt lat="51.883935621" lon="39.1254257318">
        <ele>148.18</ele>
        <time>2013-08-13T15:36:42.000Z</time>
        <speed>3.8432753812701E+249</speed>
      </trkpt>
      <trkpt lat="51.8843690492" lon="39.1244792473">
        <ele>150.58</ele>
        <time>2013-08-13T15:36:57.000Z</time>
        <speed>3.8432753812701E+249</speed>
      </trkpt>
      <trkpt lat="51.884764256" lon="39.1235870775">
        <ele>152.99</ele>
        <time>2013-08-13T15:37:11.000Z</time>
        <speed>3.8432753812701E+249</speed>
      </trkpt>
      <trkpt lat="51.8849778268" lon="39.1231466085">
        <ele>154.43</ele>
        <time>2013-08-13T15:37:18.000Z</time>
        <speed>3.8432753812701E+249</speed>
      </trkpt>
      <trkpt lat="51.8850905634" lon="39.1228709277">
        <ele>154.43</ele>
        <time>2013-08-13T15:37:22.000Z</time>
        <speed>3.8432753812701E+249</speed>
      </trkpt>
      <trkpt lat="51.8856220599" lon="39.1217009816">
        <ele>157.31</ele>
        <time>2013-08-13T15:37:40.000Z</time>
        <speed>3.8432753812701E+249</speed>
      </trkpt>
      <trkpt lat="51.8860060349" lon="39.1208463628">
        <ele>159.24</ele>
        <time>2013-08-13T15:37:53.000Z</time>
        <speed>3.8432753812701E+249</speed>
      </trkpt>
      <trkpt lat="51.8861733377" lon="39.1205163673">
        <ele>159.72</ele>
        <time>2013-08-13T15:37:58.000Z</time>
        <speed>3.8432753812701E+249</speed>
      </trkpt>
      <trkpt lat="51.8866438977" lon="39.1194869857">
        <ele>161.64</ele>
        <time>2013-08-13T15:38:13.000Z</time>
        <speed>3.8432753812701E+249</speed>
      </trkpt>
      <trkpt lat="51.8869506754" lon="39.1188074648">
        <ele>162.6</ele>
        <time>2013-08-13T15:38:23.000Z</time>
        <speed>3.8432753812701E+249</speed>
      </trkpt>
      <trkpt lat="51.8875442818" lon="39.1175043304">
        <ele>164.52</ele>
        <time>2013-08-13T15:38:42.000Z</time>
        <speed>3.8432753812701E+249</speed>
      </trkpt>
      <trkpt lat="51.8877976667" lon="39.116981132">
        <ele>165.96</ele>
        <time>2013-08-13T15:38:50.000Z</time>
        <speed>3.8432753812701E+249</speed>
      </trkpt>
      <trkpt lat="51.8881429173" lon="39.1163022816">
        <ele>165.96</ele>
        <time>2013-08-13T15:39:00.000Z</time>
        <speed>3.8432753812701E+249</speed>
      </trkpt>
      <trkpt lat="51.8884668779" lon="39.1158071626">
        <ele>165.96</ele>
        <time>2013-08-13T15:39:08.000Z</time>
        <speed>3.8432753812701E+249</speed>
      </trkpt>
      <trkpt lat="51.8885332625" lon="39.115663413">
        <ele>166.45</ele>
        <time>2013-08-13T15:39:10.000Z</time>
        <speed>3.8432753812701E+249</speed>
      </trkpt>
      <trkpt lat="51.8888179958" lon="39.1150696389">
        <ele>167.41</ele>
        <time>2013-08-13T15:39:18.000Z</time>
        <speed>3.8432753812701E+249</speed>
      </trkpt>
      <trkpt lat="51.8892976921" lon="39.1140028741">
        <ele>167.41</ele>
        <time>2013-08-13T15:39:32.000Z</time>
        <speed>3.8432753812701E+249</speed>
      </trkpt>
      <trkpt lat="51.8894950859" lon="39.1136775725">
        <ele>167.89</ele>
        <time>2013-08-13T15:39:37.000Z</time>
        <speed>3.8432753812701E+249</speed>
      </trkpt>
      <trkpt lat="51.8896787334" lon="39.1133471578">
        <ele>167.89</ele>
        <time>2013-08-13T15:39:42.000Z</time>
        <speed>3.8432753812701E+249</speed>
      </trkpt>
      <trkpt lat="51.8898130953" lon="39.1131811962">
        <ele>167.89</ele>
        <time>2013-08-13T15:39:45.000Z</time>
        <speed>3.8432753812701E+249</speed>
      </trkpt>
      <trkpt lat="51.890501501" lon="39.112238735">
        <ele>167.41</ele>
        <time>2013-08-13T15:40:00.000Z</time>
        <speed>3.8432753812701E+249</speed>
      </trkpt>
      <trkpt lat="51.8905468471" lon="39.1121706739">
        <ele>167.41</ele>
        <time>2013-08-13T15:40:01.000Z</time>
        <speed>3.8432753812701E+249</speed>
      </trkpt>
      <trkpt lat="51.8914795015" lon="39.1109823715">
        <ele>165</ele>
        <time>2013-08-13T15:40:19.000Z</time>
        <speed>3.8432753812701E+249</speed>
      </trkpt>
      <trkpt lat="51.8921121676" lon="39.1101828218">
        <ele>161.64</ele>
        <time>2013-08-13T15:40:30.000Z</time>
        <speed>3.8432753812701E+249</speed>
      </trkpt>
      <trkpt lat="51.8929333426" lon="39.1091481596">
        <ele>159.72</ele>
        <time>2013-08-13T15:40:44.000Z</time>
        <speed>3.8432753812701E+249</speed>
      </trkpt>
      <trkpt lat="51.8929874059" lon="39.1090723034">
        <ele>159.72</ele>
        <time>2013-08-13T15:40:45.000Z</time>
        <speed>3.8432753812701E+249</speed>
      </trkpt>
      <trkpt lat="51.89386365" lon="39.1078992561">
        <ele>158.27</ele>
        <time>2013-08-13T15:41:02.000Z</time>
        <speed>3.8432753812701E+249</speed>
      </trkpt>
      <trkpt lat="51.8940638937" lon="39.1076019499">
        <ele>157.31</ele>
        <time>2013-08-13T15:41:06.000Z</time>
        <speed>3.8432753812701E+249</speed>
      </trkpt>
      <trkpt lat="51.8944689073" lon="39.1066437308">
        <ele>155.87</ele>
        <time>2013-08-13T15:41:17.000Z</time>
        <speed>3.8432753812701E+249</speed>
      </trkpt>
      <trkpt lat="51.8945069611" lon="39.1065609176">
        <ele>155.87</ele>
        <time>2013-08-13T15:41:18.000Z</time>
        <speed>3.8432753812701E+249</speed>
      </trkpt>
      <trkpt lat="51.8946787901" lon="39.1063135676">
        <ele>157.31</ele>
        <time>2013-08-13T15:41:22.000Z</time>
        <speed>3.8432753812701E+249</speed>
      </trkpt>
      <trkpt lat="51.8948318437" lon="39.1060998291">
        <ele>158.75</ele>
        <time>2013-08-13T15:41:26.000Z</time>
        <speed>3.8432753812701E+249</speed>
      </trkpt>
      <trkpt lat="51.895183716" lon="39.1055448633">
        <ele>161.64</ele>
        <time>2013-08-13T15:41:36.000Z</time>
        <speed>3.8432753812701E+249</speed>
      </trkpt>
      <trkpt lat="51.8957951758" lon="39.1045098659">
        <ele>165</ele>
        <time>2013-08-13T15:41:54.000Z</time>
        <speed>3.8432753812701E+249</speed>
      </trkpt>
      <trkpt lat="51.8964382354" lon="39.1034264211">
        <ele>167.41</ele>
        <time>2013-08-13T15:42:13.000Z</time>
        <speed>3.8432753812701E+249</speed>
      </trkpt>
      <trkpt lat="51.8965416681" lon="39.1032556817">
        <ele>167.89</ele>
        <time>2013-08-13T15:42:16.000Z</time>
        <speed>3.8432753812701E+249</speed>
      </trkpt>
      <trkpt lat="51.8972294871" lon="39.1021535452">
        <ele>169.33</ele>
        <time>2013-08-13T15:42:34.000Z</time>
        <speed>3.8432753812701E+249</speed>
      </trkpt>
      <trkpt lat="51.8977856264" lon="39.1012303624">
        <ele>170.29</ele>
        <time>2013-08-13T15:42:48.000Z</time>
        <speed>3.8432753812701E+249</speed>
      </trkpt>
      <trkpt lat="51.8982576113" lon="39.1004422959">
        <ele>171.25</ele>
        <time>2013-08-13T15:43:00.000Z</time>
        <speed>3.8432753812701E+249</speed>
      </trkpt>
      <trkpt lat="51.8988896906" lon="39.0993911214">
        <ele>172.21</ele>
        <time>2013-08-13T15:43:16.000Z</time>
        <speed>3.8432753812701E+249</speed>
      </trkpt>
      <trkpt lat="51.899601398" lon="39.0982044116">
        <ele>173.17</ele>
        <time>2013-08-13T15:43:34.000Z</time>
        <speed>3.8432753812701E+249</speed>
      </trkpt>
      <trkpt lat="51.8997982051" lon="39.0978648607">
        <ele>173.17</ele>
        <time>2013-08-13T15:43:39.000Z</time>
        <speed>3.8432753812701E+249</speed>
      </trkpt>
      <trkpt lat="51.900284104" lon="39.0970925521">
        <ele>173.66</ele>
        <time>2013-08-13T15:43:51.000Z</time>
        <speed>3.8432753812701E+249</speed>
      </trkpt>
      <trkpt lat="51.9004685059" lon="39.0968558472">
        <ele>173.17</ele>
        <time>2013-08-13T15:43:55.000Z</time>
        <speed>3.8432753812701E+249</speed>
      </trkpt>
      <trkpt lat="51.9005506486" lon="39.0967188869">
        <ele>173.17</ele>
        <time>2013-08-13T15:43:57.000Z</time>
        <speed>3.8432753812701E+249</speed>
      </trkpt>
      <trkpt lat="51.9007214718" lon="39.0964532644">
        <ele>173.17</ele>
        <time>2013-08-13T15:44:01.000Z</time>
        <speed>3.8432753812701E+249</speed>
      </trkpt>
      <trkpt lat="51.9008000102" lon="39.0963101853">
        <ele>173.17</ele>
        <time>2013-08-13T15:44:03.000Z</time>
        <speed>3.8432753812701E+249</speed>
      </trkpt>
      <trkpt lat="51.9015030842" lon="39.095101431">
        <ele>172.69</ele>
        <time>2013-08-13T15:44:20.000Z</time>
        <speed>3.8432753812701E+249</speed>
      </trkpt>
      <trkpt lat="51.9017293118" lon="39.0947597008">
        <ele>172.69</ele>
        <time>2013-08-13T15:44:25.000Z</time>
        <speed>3.8432753812701E+249</speed>
      </trkpt>
      <trkpt lat="51.9018500112" lon="39.0945360716">
        <ele>172.21</ele>
        <time>2013-08-13T15:44:28.000Z</time>
        <speed>3.8432753812701E+249</speed>
      </trkpt>
      <trkpt lat="51.9023734611" lon="39.0936904214">
        <ele>171.73</ele>
        <time>2013-08-13T15:44:40.000Z</time>
        <speed>3.8432753812701E+249</speed>
      </trkpt>
      <trkpt lat="51.9031930435" lon="39.0923084971">
        <ele>170.77</ele>
        <time>2013-08-13T15:44:58.000Z</time>
        <speed>3.8432753812701E+249</speed>
      </trkpt>
      <trkpt lat="51.9039326627" lon="39.0910269041">
        <ele>168.85</ele>
        <time>2013-08-13T15:45:14.000Z</time>
        <speed>3.8432753812701E+249</speed>
      </trkpt>
      <trkpt lat="51.9046607148" lon="39.0898948442">
        <ele>167.89</ele>
        <time>2013-08-13T15:45:29.000Z</time>
        <speed>3.8432753812701E+249</speed>
      </trkpt>
      <trkpt lat="51.904879231" lon="39.0893885773">
        <ele>167.41</ele>
        <time>2013-08-13T15:45:35.000Z</time>
        <speed>3.8432753812701E+249</speed>
      </trkpt>
      <trkpt lat="51.9049095735" lon="39.0890808776">
        <ele>166.45</ele>
        <time>2013-08-13T15:45:38.000Z</time>
        <speed>3.8432753812701E+249</speed>
      </trkpt>
      <trkpt lat="51.9051380642" lon="39.0886857547">
        <ele>166.93</ele>
        <time>2013-08-13T15:45:44.000Z</time>
        <speed>3.8432753812701E+249</speed>
      </trkpt>
      <trkpt lat="51.9052482024" lon="39.0886206273">
        <ele>167.41</ele>
        <time>2013-08-13T15:45:46.000Z</time>
        <speed>3.8432753812701E+249</speed>
      </trkpt>
      <trkpt lat="51.9055667985" lon="39.0883010253">
        <ele>167.41</ele>
        <time>2013-08-13T15:45:53.000Z</time>
        <speed>3.8432753812701E+249</speed>
      </trkpt>
      <trkpt lat="51.9056733325" lon="39.0880835988">
        <ele>167.41</ele>
        <time>2013-08-13T15:45:56.000Z</time>
        <speed>3.8432753812701E+249</speed>
      </trkpt>
      <trkpt lat="51.9059312437" lon="39.0876730531">
        <ele>167.41</ele>
        <time>2013-08-13T15:46:02.000Z</time>
        <speed>3.8432753812701E+249</speed>
      </trkpt>
      <trkpt lat="51.9064493291" lon="39.086712487">
        <ele>167.89</ele>
        <time>2013-08-13T15:46:15.000Z</time>
        <speed>3.8432753812701E+249</speed>
      </trkpt>
      <trkpt lat="51.9065288734" lon="39.0865657199">
        <ele>168.37</ele>
        <time>2013-08-13T15:46:17.000Z</time>
        <speed>3.8432753812701E+249</speed>
      </trkpt>
      <trkpt lat="51.9071313646" lon="39.0855954308">
        <ele>168.37</ele>
        <time>2013-08-13T15:46:31.000Z</time>
        <speed>3.8432753812701E+249</speed>
      </trkpt>
      <trkpt lat="51.9076686446" lon="39.0845591761">
        <ele>167.89</ele>
        <time>2013-08-13T15:46:45.000Z</time>
        <speed>3.8432753812701E+249</speed>
      </trkpt>
      <trkpt lat="51.9077898469" lon="39.084339235">
        <ele>164.04</ele>
        <time>2013-08-13T15:46:48.000Z</time>
        <speed>3.8432753812701E+249</speed>
      </trkpt>
      <trkpt lat="51.9078299962" lon="39.0842684917">
        <ele>172.21</ele>
        <time>2013-08-13T15:46:49.000Z</time>
        <speed>3.8432753812701E+249</speed>
      </trkpt>
      <trkpt lat="51.907869475" lon="39.0841973294">
        <ele>167.89</ele>
        <time>2013-08-13T15:46:50.000Z</time>
        <speed>3.8432753812701E+249</speed>
      </trkpt>
      <trkpt lat="51.9086661749" lon="39.0827715676">
        <ele>165.96</ele>
        <time>2013-08-13T15:47:08.000Z</time>
        <speed>3.8432753812701E+249</speed>
      </trkpt>
      <trkpt lat="51.9091446977" lon="39.0817151964">
        <ele>165</ele>
        <time>2013-08-13T15:47:20.000Z</time>
        <speed>3.8432753812701E+249</speed>
      </trkpt>
      <trkpt lat="51.9091991801" lon="39.0815344825">
        <ele>164.52</ele>
        <time>2013-08-13T15:47:22.000Z</time>
        <speed>3.8432753812701E+249</speed>
      </trkpt>
      <trkpt lat="51.9097383041" lon="39.0802742634">
        <ele>162.6</ele>
        <time>2013-08-13T15:47:35.000Z</time>
        <speed>3.8432753812701E+249</speed>
      </trkpt>
      <trkpt lat="51.909868978" lon="39.080001181">
        <ele>162.12</ele>
        <time>2013-08-13T15:47:38.000Z</time>
        <speed>3.8432753812701E+249</speed>
      </trkpt>
      <trkpt lat="51.9100495242" lon="39.0796600375">
        <ele>162.12</ele>
        <time>2013-08-13T15:47:42.000Z</time>
        <speed>3.8432753812701E+249</speed>
      </trkpt>
      <trkpt lat="51.9101750851" lon="39.0792651661">
        <ele>162.12</ele>
        <time>2013-08-13T15:47:46.000Z</time>
        <speed>3.8432753812701E+249</speed>
      </trkpt>
      <trkpt lat="51.9102758355" lon="39.0786824562">
        <ele>163.56</ele>
        <time>2013-08-13T15:47:52.000Z</time>
        <speed>3.8432753812701E+249</speed>
      </trkpt>
      <trkpt lat="51.9102243707" lon="39.0782178473">
        <ele>165</ele>
        <time>2013-08-13T15:47:58.000Z</time>
        <speed>3.8432753812701E+249</speed>
      </trkpt>
      <trkpt lat="51.9102475047" lon="39.0779589303">
        <ele>164.52</ele>
        <time>2013-08-13T15:48:02.000Z</time>
        <speed>3.8432753812701E+249</speed>
      </trkpt>
      <trkpt lat="51.9102837145" lon="39.077669587">
        <ele>165</ele>
        <time>2013-08-13T15:48:06.000Z</time>
        <speed>3.8432753812701E+249</speed>
      </trkpt>
      <trkpt lat="51.9103557989" lon="39.0771352407">
        <ele>165.48</ele>
        <time>2013-08-13T15:48:14.000Z</time>
        <speed>3.8432753812701E+249</speed>
      </trkpt>
      <trkpt lat="51.9101860654" lon="39.0765662771">
        <ele>165.48</ele>
        <time>2013-08-13T15:48:24.000Z</time>
        <speed>3.8432753812701E+249</speed>
      </trkpt>
      <trkpt lat="51.9096393138" lon="39.075576961">
        <ele>166.45</ele>
        <time>2013-08-13T15:48:40.000Z</time>
        <speed>3.8432753812701E+249</speed>
      </trkpt>
      <trkpt lat="51.9092295226" lon="39.0744823683">
        <ele>166.45</ele>
        <time>2013-08-13T15:48:54.000Z</time>
        <speed>3.8432753812701E+249</speed>
      </trkpt>
      <trkpt lat="51.9091156963" lon="39.0739459265">
        <ele>165.96</ele>
        <time>2013-08-13T15:49:00.000Z</time>
        <speed>3.8432753812701E+249</speed>
      </trkpt>
      <trkpt lat="51.9089026283" lon="39.0737845749">
        <ele>165.96</ele>
        <time>2013-08-13T15:49:06.000Z</time>
        <speed>3.8432753812701E+249</speed>
      </trkpt>
      <trkpt lat="51.908864826" lon="39.0738313459">
        <ele>165.96</ele>
        <time>2013-08-13T15:49:07.000Z</time>
        <speed>3.8432753812701E+249</speed>
      </trkpt>
      <trkpt lat="51.9087933283" lon="39.0739434958">
        <ele>165.96</ele>
        <time>2013-08-13T15:49:09.000Z</time>
        <speed>3.8432753812701E+249</speed>
      </trkpt>
      <trkpt lat="51.9084819406" lon="39.0738758538">
        <ele>166.93</ele>
        <time>2013-08-13T15:49:16.000Z</time>
        <speed>3.8432753812701E+249</speed>
      </trkpt>
      <trkpt lat="51.9080682937" lon="39.0732850973">
        <ele>167.89</ele>
        <time>2013-08-13T15:49:26.000Z</time>
        <speed>3.8432753812701E+249</speed>
      </trkpt>
      <trkpt lat="51.9079488516" lon="39.0731044672">
        <ele>167.89</ele>
        <time>2013-08-13T15:49:29.000Z</time>
        <speed>3.8432753812701E+249</speed>
      </trkpt>
      <trkpt lat="51.9074059557" lon="39.0722655226">
        <ele>169.33</ele>
        <time>2013-08-13T15:49:43.000Z</time>
        <speed>3.8432753812701E+249</speed>
      </trkpt>
      <trkpt lat="51.9068670832" lon="39.0714243148">
        <ele>171.25</ele>
        <time>2013-08-13T15:49:58.000Z</time>
        <speed>3.8432753812701E+249</speed>
      </trkpt>
      <trkpt lat="51.9065713696" lon="39.0710079018">
        <ele>171.73</ele>
        <time>2013-08-13T15:50:06.000Z</time>
        <speed>3.8432753812701E+249</speed>
      </trkpt>
      <trkpt lat="51.9059180841" lon="39.0700262133">
        <ele>176.54</ele>
        <time>2013-08-13T15:50:23.000Z</time>
        <speed>3.8432753812701E+249</speed>
      </trkpt>
      <trkpt lat="51.9058813713" lon="39.0699741617">
        <ele>173.66</ele>
        <time>2013-08-13T15:50:24.000Z</time>
        <speed>3.8432753812701E+249</speed>
      </trkpt>
      <trkpt lat="51.9055101369" lon="39.0694786236">
        <ele>173.66</ele>
        <time>2013-08-13T15:50:33.000Z</time>
        <speed>3.8432753812701E+249</speed>
      </trkpt>
      <trkpt lat="51.9053593464" lon="39.0692446847">
        <ele>174.14</ele>
        <time>2013-08-13T15:50:37.000Z</time>
        <speed>3.8432753812701E+249</speed>
      </trkpt>
      <trkpt lat="51.9050981663" lon="39.0688014496">
        <ele>174.14</ele>
        <time>2013-08-13T15:50:44.000Z</time>
        <speed>3.8432753812701E+249</speed>
      </trkpt>
      <trkpt lat="51.9044699427" lon="39.0679040831">
        <ele>173.66</ele>
        <time>2013-08-13T15:50:58.000Z</time>
        <speed>3.8432753812701E+249</speed>
      </trkpt>
      <trkpt lat="51.9035790302" lon="39.0666476358">
        <ele>172.69</ele>
        <time>2013-08-13T15:51:16.000Z</time>
        <speed>3.8432753812701E+249</speed>
      </trkpt>
      <trkpt lat="51.9032731745" lon="39.0662472323">
        <ele>172.21</ele>
        <time>2013-08-13T15:51:22.000Z</time>
        <speed>3.8432753812701E+249</speed>
      </trkpt>
      <trkpt lat="51.902460549" lon="39.0650274977">
        <ele>172.21</ele>
        <time>2013-08-13T15:51:40.000Z</time>
        <speed>3.8432753812701E+249</speed>
      </trkpt>
      <trkpt lat="51.9017677009" lon="39.0639415383">
        <ele>170.29</ele>
        <time>2013-08-13T15:51:55.000Z</time>
        <speed>3.8432753812701E+249</speed>
      </trkpt>
      <trkpt lat="51.9016449898" lon="39.0636220202">
        <ele>170.77</ele>
        <time>2013-08-13T15:51:59.000Z</time>
        <speed>3.8432753812701E+249</speed>
      </trkpt>
      <trkpt lat="51.9016161561" lon="39.0633495245">
        <ele>170.77</ele>
        <time>2013-08-13T15:52:04.000Z</time>
        <speed>3.8432753812701E+249</speed>
      </trkpt>
      <trkpt lat="51.9017032441" lon="39.0633022506">
        <ele>170.77</ele>
        <time>2013-08-13T15:52:06.000Z</time>
        <speed>3.8432753812701E+249</speed>
      </trkpt>
      <trkpt lat="51.9018288888" lon="39.0631590039">
        <ele>170.29</ele>
        <time>2013-08-13T15:52:09.000Z</time>
        <speed>3.8432753812701E+249</speed>
      </trkpt>
      <trkpt lat="51.9024229143" lon="39.0626218915">
        <ele>170.77</ele>
        <time>2013-08-13T15:52:22.000Z</time>
        <speed>3.8432753812701E+249</speed>
      </trkpt>
      <trkpt lat="51.9027936459" lon="39.0622680075">
        <ele>170.77</ele>
        <time>2013-08-13T15:52:30.000Z</time>
        <speed>3.8432753812701E+249</speed>
      </trkpt>
      <trkpt lat="51.9030653872" lon="39.0619948413">
        <ele>170.77</ele>
        <time>2013-08-13T15:52:36.000Z</time>
        <speed>3.8432753812701E+249</speed>
      </trkpt>
      <trkpt lat="51.9037677068" lon="39.0612196829">
        <ele>170.77</ele>
        <time>2013-08-13T15:52:51.000Z</time>
        <speed>3.8432753812701E+249</speed>
      </trkpt>
      <trkpt lat="51.9040027354" lon="39.060940817">
        <ele>171.25</ele>
        <time>2013-08-13T15:52:56.000Z</time>
        <speed>3.8432753812701E+249</speed>
      </trkpt>
      <trkpt lat="51.9040910807" lon="39.0608082991">
        <ele>171.25</ele>
        <time>2013-08-13T15:52:58.000Z</time>
        <speed>3.8432753812701E+249</speed>
      </trkpt>
      <trkpt lat="51.9042130373" lon="39.0604655631">
        <ele>171.25</ele>
        <time>2013-08-13T15:53:02.000Z</time>
        <speed>3.8432753812701E+249</speed>
      </trkpt>
      <trkpt lat="51.9043845311" lon="39.0595604014">
        <ele>170.77</ele>
        <time>2013-08-13T15:53:11.000Z</time>
        <speed>3.8432753812701E+249</speed>
      </trkpt>
      <trkpt lat="51.9043678511" lon="39.0591500234">
        <ele>171.25</ele>
        <time>2013-08-13T15:53:15.000Z</time>
        <speed>3.8432753812701E+249</speed>
      </trkpt>
      <trkpt lat="51.9041248597" lon="39.057319751">
        <ele>170.77</ele>
        <time>2013-08-13T15:53:33.000Z</time>
        <speed>3.8432753812701E+249</speed>
      </trkpt>
      <trkpt lat="51.9040272105" lon="39.0567438304">
        <ele>170.77</ele>
        <time>2013-08-13T15:53:39.000Z</time>
        <speed>3.8432753812701E+249</speed>
      </trkpt>
      <trkpt lat="51.9040950201" lon="39.056167407">
        <ele>170.29</ele>
        <time>2013-08-13T15:53:45.000Z</time>
        <speed>3.8432753812701E+249</speed>
      </trkpt>
      <trkpt lat="51.904267855" lon="39.0557717811">
        <ele>170.77</ele>
        <time>2013-08-13T15:53:50.000Z</time>
        <speed>3.8432753812701E+249</speed>
      </trkpt>
      <trkpt lat="51.9049061369" lon="39.0547582414">
        <ele>170.77</ele>
        <time>2013-08-13T15:54:05.000Z</time>
        <speed>3.8432753812701E+249</speed>
      </trkpt>
      <trkpt lat="51.9057382084" lon="39.0536774788">
        <ele>170.77</ele>
        <time>2013-08-13T15:54:23.000Z</time>
        <speed>3.8432753812701E+249</speed>
      </trkpt>
      <trkpt lat="51.9057832193" lon="39.053619476">
        <ele>170.77</ele>
        <time>2013-08-13T15:54:24.000Z</time>
        <speed>3.8432753812701E+249</speed>
      </trkpt>
      <trkpt lat="51.9065523427" lon="39.0526586585">
        <ele>169.81</ele>
        <time>2013-08-13T15:54:40.000Z</time>
        <speed>3.8432753812701E+249</speed>
      </trkpt>
      <trkpt lat="51.9074221328" lon="39.0516043827">
        <ele>169.81</ele>
        <time>2013-08-13T15:54:58.000Z</time>
        <speed>3.8432753812701E+249</speed>
      </trkpt>
      <trkpt lat="51.9077994023" lon="39.0511556156">
        <ele>169.81</ele>
        <time>2013-08-13T15:55:06.000Z</time>
        <speed>3.8432753812701E+249</speed>
      </trkpt>
      <trkpt lat="51.9078830536" lon="39.0510372631">
        <ele>169.33</ele>
        <time>2013-08-13T15:55:08.000Z</time>
        <speed>3.8432753812701E+249</speed>
      </trkpt>
      <trkpt lat="51.9084054977" lon="39.0497837495">
        <ele>168.85</ele>
        <time>2013-08-13T15:55:24.000Z</time>
        <speed>3.8432753812701E+249</speed>
      </trkpt>
      <trkpt lat="51.9086834416" lon="39.0491855331">
        <ele>168.37</ele>
        <time>2013-08-13T15:55:34.000Z</time>
        <speed>3.8432753812701E+249</speed>
      </trkpt>
      <trkpt lat="51.9090863597" lon="39.0483280644">
        <ele>167.89</ele>
        <time>2013-08-13T15:55:47.000Z</time>
        <speed>3.8432753812701E+249</speed>
      </trkpt>
      <trkpt lat="51.909290459" lon="39.0478888527">
        <ele>167.41</ele>
        <time>2013-08-13T15:55:54.000Z</time>
        <speed>3.8432753812701E+249</speed>
      </trkpt>
      <trkpt lat="51.9096062053" lon="39.0472570248">
        <ele>166.45</ele>
        <time>2013-08-13T15:56:03.000Z</time>
        <speed>3.8432753812701E+249</speed>
      </trkpt>
      <trkpt lat="51.9101800304" lon="39.0460843127">
        <ele>165.48</ele>
        <time>2013-08-13T15:56:19.000Z</time>
        <speed>3.8432753812701E+249</speed>
      </trkpt>
      <trkpt lat="51.9107631594" lon="39.0448968485">
        <ele>164.52</ele>
        <time>2013-08-13T15:56:35.000Z</time>
        <speed>3.8432753812701E+249</speed>
      </trkpt>
      <trkpt lat="51.9113062229" lon="39.0437741764">
        <ele>163.56</ele>
        <time>2013-08-13T15:56:50.000Z</time>
        <speed>3.8432753812701E+249</speed>
      </trkpt>
      <trkpt lat="51.911890693" lon="39.0425910708">
        <ele>162.12</ele>
        <time>2013-08-13T15:57:06.000Z</time>
        <speed>3.8432753812701E+249</speed>
      </trkpt>
      <trkpt lat="51.9121130649" lon="39.042198211">
        <ele>161.64</ele>
        <time>2013-08-13T15:57:12.000Z</time>
        <speed>3.8432753812701E+249</speed>
      </trkpt>
      <trkpt lat="51.9121016655" lon="39.0416720789">
        <ele>161.16</ele>
        <time>2013-08-13T15:57:19.000Z</time>
        <speed>3.8432753812701E+249</speed>
      </trkpt>
      <trkpt lat="51.9118531421" lon="39.0410943143">
        <ele>160.2</ele>
        <time>2013-08-13T15:57:31.000Z</time>
        <speed>3.8432753812701E+249</speed>
      </trkpt>
      <trkpt lat="51.9117630366" lon="39.0408909693">
        <ele>159.72</ele>
        <time>2013-08-13T15:57:35.000Z</time>
        <speed>3.8432753812701E+249</speed>
      </trkpt>
      <trkpt lat="51.9116844144" lon="39.0405955072">
        <ele>158.75</ele>
        <time>2013-08-13T15:57:40.000Z</time>
        <speed>3.8432753812701E+249</speed>
      </trkpt>
      <trkpt lat="51.9117076322" lon="39.0401337482">
        <ele>156.83</ele>
        <time>2013-08-13T15:57:46.000Z</time>
        <speed>3.8432753812701E+249</speed>
      </trkpt>
      <trkpt lat="51.9118228834" lon="39.0396750066">
        <ele>155.87</ele>
        <time>2013-08-13T15:57:52.000Z</time>
        <speed>3.8432753812701E+249</speed>
      </trkpt>
      <trkpt lat="51.9118823949" lon="39.0395450033">
        <ele>155.87</ele>
        <time>2013-08-13T15:57:54.000Z</time>
        <speed>3.8432753812701E+249</speed>
      </trkpt>
      <trkpt lat="51.912200572" lon="39.0391192026">
        <ele>154.91</ele>
        <time>2013-08-13T15:58:02.000Z</time>
        <speed>3.8432753812701E+249</speed>
      </trkpt>
      <trkpt lat="51.9123158231" lon="39.0387931466">
        <ele>154.91</ele>
        <time>2013-08-13T15:58:07.000Z</time>
        <speed>3.8432753812701E+249</speed>
      </trkpt>
      <trkpt lat="51.9123153202" lon="39.0384592116">
        <ele>154.43</ele>
        <time>2013-08-13T15:58:11.000Z</time>
        <speed>3.8432753812701E+249</speed>
      </trkpt>
      <trkpt lat="51.9126222655" lon="39.0375819616">
        <ele>152.99</ele>
        <time>2013-08-13T15:58:23.000Z</time>
        <speed>3.8432753812701E+249</speed>
      </trkpt>
      <trkpt lat="51.9127780851" lon="39.037228832">
        <ele>152.03</ele>
        <time>2013-08-13T15:58:28.000Z</time>
        <speed>3.8432753812701E+249</speed>
      </trkpt>
      <trkpt lat="51.9128525164" lon="39.0370200388">
        <ele>152.03</ele>
        <time>2013-08-13T15:58:31.000Z</time>
        <speed>3.8432753812701E+249</speed>
      </trkpt>
      <trkpt lat="51.9133377448" lon="39.0359332412">
        <ele>151.06</ele>
        <time>2013-08-13T15:58:47.000Z</time>
        <speed>3.8432753812701E+249</speed>
      </trkpt>
      <trkpt lat="51.9135565124" lon="39.0351555683">
        <ele>150.1</ele>
        <time>2013-08-13T15:58:59.000Z</time>
        <speed>3.8432753812701E+249</speed>
      </trkpt>
      <trkpt lat="51.9135673251" lon="39.0347249061">
        <ele>148.66</ele>
        <time>2013-08-13T15:59:05.000Z</time>
        <speed>3.8432753812701E+249</speed>
      </trkpt>
      <trkpt lat="51.9134711847" lon="39.0343479719">
        <ele>146.74</ele>
        <time>2013-08-13T15:59:10.000Z</time>
        <speed>3.8432753812701E+249</speed>
      </trkpt>
      <trkpt lat="51.91331679" lon="39.0340391826">
        <ele>143.85</ele>
        <time>2013-08-13T15:59:20.000Z</time>
        <speed>3.8432753812701E+249</speed>
      </trkpt>
      <trkpt lat="51.9132823404" lon="39.0339994524">
        <ele>142.41</ele>
        <time>2013-08-13T15:59:25.000Z</time>
        <speed>3.8432753812701E+249</speed>
      </trkpt>
      <trkpt lat="51.9132018741" lon="39.0338740591">
        <ele>139.53</ele>
        <time>2013-08-13T15:59:35.000Z</time>
        <speed>3.8432753812701E+249</speed>
      </trkpt>
      <trkpt lat="51.9131931569" lon="39.0338380169">
        <ele>139.53</ele>
        <time>2013-08-13T15:59:38.000Z</time>
        <speed>3.8432753812701E+249</speed>
      </trkpt>
      <trkpt lat="51.9131794106" lon="39.033791665">
        <ele>138.57</ele>
        <time>2013-08-13T15:59:40.000Z</time>
        <speed>3.8432753812701E+249</speed>
      </trkpt>
      <trkpt lat="51.9130756427" lon="39.0336338338">
        <ele>135.2</ele>
        <time>2013-08-13T15:59:49.000Z</time>
        <speed>3.8432753812701E+249</speed>
      </trkpt>
      <trkpt lat="51.9130584598" lon="39.033593433">
        <ele>134.24</ele>
        <time>2013-08-13T15:59:53.000Z</time>
        <speed>3.8432753812701E+249</speed>
      </trkpt>
      <trkpt lat="51.912898114" lon="39.0334497672">
        <ele>131.84</ele>
        <time>2013-08-13T15:59:59.000Z</time>
        <speed>3.8432753812701E+249</speed>
      </trkpt>
      <trkpt lat="51.912656799" lon="39.0335489251">
        <ele>134.24</ele>
        <time>2013-08-13T16:00:11.000Z</time>
        <speed>3.8432753812701E+249</speed>
      </trkpt>
      <trkpt lat="51.9125475828" lon="39.0336197522">
        <ele>137.13</ele>
        <time>2013-08-13T16:00:22.000Z</time>
        <speed>3.8432753812701E+249</speed>
      </trkpt>
      <trkpt lat="51.9124480896" lon="39.0336706303">
        <ele>138.57</ele>
        <time>2013-08-13T16:00:31.000Z</time>
        <speed>3.8432753812701E+249</speed>
      </trkpt>
      <trkpt lat="51.9122444931" lon="39.0337758232">
        <ele>140.01</ele>
        <time>2013-08-13T16:00:47.000Z</time>
        <speed>3.8432753812701E+249</speed>
      </trkpt>
      <trkpt lat="51.9122221973" lon="39.0337872226">
        <ele>140.49</ele>
        <time>2013-08-13T16:00:52.000Z</time>
        <speed>3.8432753812701E+249</speed>
      </trkpt>
      <trkpt lat="51.9120799564" lon="39.0338169783">
        <ele>140.49</ele>
        <time>2013-08-13T16:01:01.000Z</time>
        <speed>3.8432753812701E+249</speed>
      </trkpt>
      <trkpt lat="51.9120025914" lon="39.0336127952">
        <ele>140.97</ele>
        <time>2013-08-13T16:01:08.000Z</time>
        <speed>3.8432753812701E+249</speed>
      </trkpt>
      <trkpt lat="51.9119308423" lon="39.0333570633">
        <ele>136.16</ele>
        <time>2013-08-13T16:01:13.000Z</time>
        <speed>3.8432753812701E+249</speed>
      </trkpt>
      <trkpt lat="51.9119139109" lon="39.0333094541">
        <ele>143.37</ele>
        <time>2013-08-13T16:01:14.000Z</time>
        <speed>3.8432753812701E+249</speed>
      </trkpt>
      <trkpt lat="51.9118802156" lon="39.0331553947">
        <ele>140.49</ele>
        <time>2013-08-13T16:01:17.000Z</time>
        <speed>3.8432753812701E+249</speed>
      </trkpt>
      <trkpt lat="51.911708219" lon="39.0326521453">
        <ele>140.97</ele>
        <time>2013-08-13T16:01:25.000Z</time>
        <speed>3.8432753812701E+249</speed>
      </trkpt>
      <trkpt lat="51.9116632082" lon="39.0325083118">
        <ele>140.97</ele>
        <time>2013-08-13T16:01:27.000Z</time>
        <speed>3.8432753812701E+249</speed>
      </trkpt>
      <trkpt lat="51.9114629645" lon="39.0316611528">
        <ele>142.41</ele>
        <time>2013-08-13T16:01:38.000Z</time>
        <speed>3.8432753812701E+249</speed>
      </trkpt>
      <trkpt lat="51.9114040397" lon="39.0314574726">
        <ele>142.41</ele>
        <time>2013-08-13T16:01:41.000Z</time>
        <speed>3.8432753812701E+249</speed>
      </trkpt>
      <trkpt lat="51.9113421813" lon="39.0312417224">
        <ele>142.89</ele>
        <time>2013-08-13T16:01:44.000Z</time>
        <speed>3.8432753812701E+249</speed>
      </trkpt>
      <trkpt lat="51.9113155268" lon="39.0310824662">
        <ele>142.89</ele>
        <time>2013-08-13T16:01:46.000Z</time>
        <speed>3.8432753812701E+249</speed>
      </trkpt>
      <trkpt lat="51.9112599548" lon="39.0308563225">
        <ele>142.89</ele>
        <time>2013-08-13T16:01:49.000Z</time>
        <speed>3.8432753812701E+249</speed>
      </trkpt>
      <trkpt lat="51.9109974336" lon="39.0297794994">
        <ele>144.82</ele>
        <time>2013-08-13T16:02:03.000Z</time>
        <speed>3.8432753812701E+249</speed>
      </trkpt>
      <trkpt lat="51.9109558593" lon="39.0296256915">
        <ele>145.3</ele>
        <time>2013-08-13T16:02:05.000Z</time>
        <speed>3.8432753812701E+249</speed>
      </trkpt>
      <trkpt lat="51.9108483195" lon="39.0286981501">
        <ele>143.85</ele>
        <time>2013-08-13T16:02:15.000Z</time>
        <speed>3.8432753812701E+249</speed>
      </trkpt>
      <trkpt lat="51.9108204916" lon="39.0285191126">
        <ele>143.85</ele>
        <time>2013-08-13T16:02:17.000Z</time>
        <speed>3.8432753812701E+249</speed>
      </trkpt>
      <trkpt lat="51.9105821103" lon="39.027270712">
        <ele>141.45</ele>
        <time>2013-08-13T16:02:31.000Z</time>
        <speed>3.8432753812701E+249</speed>
      </trkpt>
      <trkpt lat="51.9105321541" lon="39.0269200131">
        <ele>141.45</ele>
        <time>2013-08-13T16:02:35.000Z</time>
        <speed>3.8432753812701E+249</speed>
      </trkpt>
      <trkpt lat="51.9104642607" lon="39.0265721641">
        <ele>141.45</ele>
        <time>2013-08-13T16:02:39.000Z</time>
        <speed>3.8432753812701E+249</speed>
      </trkpt>
      <trkpt lat="51.9102395419" lon="39.0260313638">
        <ele>141.45</ele>
        <time>2013-08-13T16:02:47.000Z</time>
        <speed>3.8432753812701E+249</speed>
      </trkpt>
      <trkpt lat="51.9101988897" lon="39.0260038711">
        <ele>141.93</ele>
        <time>2013-08-13T16:02:54.000Z</time>
        <speed>3.8432753812701E+249</speed>
      </trkpt>
      <trkpt lat="51.9102034159" lon="39.0259972494">
        <ele>141.45</ele>
        <time>2013-08-13T16:03:17.000Z</time>
        <speed>3.8432753812701E+249</speed>
      </trkpt>
      <trkpt lat="51.9102017395" lon="39.0259990096">
        <ele>141.93</ele>
        <time>2013-08-13T16:03:44.000Z</time>
        <speed>3.8432753812701E+249</speed>
      </trkpt>
      <trkpt lat="51.9101463351" lon="39.025962716">
        <ele>141.93</ele>
        <time>2013-08-13T16:03:48.000Z</time>
        <speed>3.8432753812701E+249</speed>
      </trkpt>
      <trkpt lat="51.9096696563" lon="39.025715366">
        <ele>138.57</ele>
        <time>2013-08-13T16:03:58.000Z</time>
        <speed>3.8432753812701E+249</speed>
      </trkpt>
      <trkpt lat="51.9095423352" lon="39.0256483946">
        <ele>138.09</ele>
        <time>2013-08-13T16:04:00.000Z</time>
        <speed>3.8432753812701E+249</speed>
      </trkpt>
      <trkpt lat="51.9089165423" lon="39.0255102608">
        <ele>140.01</ele>
        <time>2013-08-13T16:04:10.000Z</time>
        <speed>3.8432753812701E+249</speed>
      </trkpt>
      <trkpt lat="51.9087238424" lon="39.025401799">
        <ele>139.05</ele>
        <time>2013-08-13T16:04:15.000Z</time>
        <speed>3.8432753812701E+249</speed>
      </trkpt>
      <trkpt lat="51.9085388537" lon="39.0250594821">
        <ele>138.09</ele>
        <time>2013-08-13T16:04:21.000Z</time>
        <speed>3.8432753812701E+249</speed>
      </trkpt>
      <trkpt lat="51.9085270353" lon="39.0248597413">
        <ele>138.09</ele>
        <time>2013-08-13T16:04:24.000Z</time>
        <speed>3.8432753812701E+249</speed>
      </trkpt>
      <trkpt lat="51.908887038" lon="39.0246845596">
        <ele>139.05</ele>
        <time>2013-08-13T16:04:32.000Z</time>
        <speed>3.8432753812701E+249</speed>
      </trkpt>
      <trkpt lat="51.9089390058" lon="39.0246874932">
        <ele>139.05</ele>
        <time>2013-08-13T16:04:33.000Z</time>
        <speed>3.8432753812701E+249</speed>
      </trkpt>
      <trkpt lat="51.9091999345" lon="39.0245310031">
        <ele>142.41</ele>
        <time>2013-08-13T16:04:41.000Z</time>
        <speed>3.8432753812701E+249</speed>
      </trkpt>
      <trkpt lat="51.9092514832" lon="39.024306871">
        <ele>142.89</ele>
        <time>2013-08-13T16:04:45.000Z</time>
        <speed>3.8432753812701E+249</speed>
      </trkpt>
      <trkpt lat="51.9091710169" lon="39.0235555172">
        <ele>146.74</ele>
        <time>2013-08-13T16:04:58.000Z</time>
        <speed>3.8432753812701E+249</speed>
      </trkpt>
      <trkpt lat="51.909128353" lon="39.0229073446">
        <ele>149.14</ele>
        <time>2013-08-13T16:05:09.000Z</time>
        <speed>3.8432753812701E+249</speed>
      </trkpt>
      <trkpt lat="51.909132963" lon="39.0218234807">
        <ele>151.54</ele>
        <time>2013-08-13T16:05:25.000Z</time>
        <speed>3.8432753812701E+249</speed>
      </trkpt>
      <trkpt lat="51.909133466" lon="39.0216828324">
        <ele>151.54</ele>
        <time>2013-08-13T16:05:27.000Z</time>
        <speed>3.8432753812701E+249</speed>
      </trkpt>
      <trkpt lat="51.9092178717" lon="39.0208689496">
        <ele>152.51</ele>
        <time>2013-08-13T16:05:38.000Z</time>
        <speed>3.8432753812701E+249</speed>
      </trkpt>
      <trkpt lat="51.9092319533" lon="39.0207101963">
        <ele>152.51</ele>
        <time>2013-08-13T16:05:40.000Z</time>
        <speed>3.8432753812701E+249</speed>
      </trkpt>
      <trkpt lat="51.9092241582" lon="39.0205629263">
        <ele>152.99</ele>
        <time>2013-08-13T16:05:42.000Z</time>
        <speed>3.8432753812701E+249</speed>
      </trkpt>
      <trkpt lat="51.9090747088" lon="39.0203521214">
        <ele>154.43</ele>
        <time>2013-08-13T16:05:48.000Z</time>
        <speed>3.8432753812701E+249</speed>
      </trkpt>
      <trkpt lat="51.9088017102" lon="39.020466283">
        <ele>155.39</ele>
        <time>2013-08-13T16:05:54.000Z</time>
        <speed>3.8432753812701E+249</speed>
      </trkpt>
      <trkpt lat="51.9084582198" lon="39.0204014909">
        <ele>156.83</ele>
        <time>2013-08-13T16:06:01.000Z</time>
        <speed>3.8432753812701E+249</speed>
      </trkpt>
      <trkpt lat="51.9075995777" lon="39.0203473438">
        <ele>159.24</ele>
        <time>2013-08-13T16:06:18.000Z</time>
        <speed>3.8432753812701E+249</speed>
      </trkpt>
      <trkpt lat="51.907282155" lon="39.0202704817">
        <ele>160.2</ele>
        <time>2013-08-13T16:06:24.000Z</time>
        <speed>3.8432753812701E+249</speed>
      </trkpt>
      <trkpt lat="51.9071840867" lon="39.0202080365">
        <ele>160.2</ele>
        <time>2013-08-13T16:06:26.000Z</time>
        <speed>3.8432753812701E+249</speed>
      </trkpt>
      <trkpt lat="51.9068857748" lon="39.0199746005">
        <ele>161.16</ele>
        <time>2013-08-13T16:06:32.000Z</time>
        <speed>3.8432753812701E+249</speed>
      </trkpt>
      <trkpt lat="51.9064581301" lon="39.0200528037">
        <ele>162.12</ele>
        <time>2013-08-13T16:06:40.000Z</time>
        <speed>3.8432753812701E+249</speed>
      </trkpt>
      <trkpt lat="51.9063126203" lon="39.0202430729">
        <ele>162.12</ele>
        <time>2013-08-13T16:06:43.000Z</time>
        <speed>3.8432753812701E+249</speed>
      </trkpt>
      <trkpt lat="51.9059501868" lon="39.020307865">
        <ele>161.64</ele>
        <time>2013-08-13T16:06:49.000Z</time>
        <speed>3.8432753812701E+249</speed>
      </trkpt>
      <trkpt lat="51.9050753675" lon="39.0195318684">
        <ele>164.52</ele>
        <time>2013-08-13T16:07:06.000Z</time>
        <speed>3.8432753812701E+249</speed>
      </trkpt>
      <trkpt lat="51.9045983534" lon="39.0191687644">
        <ele>165.48</ele>
        <time>2013-08-13T16:07:15.000Z</time>
        <speed>3.8432753812701E+249</speed>
      </trkpt>
      <trkpt lat="51.9044287875" lon="39.0190962609">
        <ele>165.96</ele>
        <time>2013-08-13T16:07:18.000Z</time>
        <speed>3.8432753812701E+249</speed>
      </trkpt>
      <trkpt lat="51.9037602469" lon="39.0190239251">
        <ele>165.96</ele>
        <time>2013-08-13T16:07:29.000Z</time>
        <speed>3.8432753812701E+249</speed>
      </trkpt>
      <trkpt lat="51.902888529" lon="39.0183495171">
        <ele>166.45</ele>
        <time>2013-08-13T16:07:44.000Z</time>
        <speed>3.8432753812701E+249</speed>
      </trkpt>
      <trkpt lat="51.9021571241" lon="39.0177404042">
        <ele>167.41</ele>
        <time>2013-08-13T16:07:57.000Z</time>
        <speed>3.8432753812701E+249</speed>
      </trkpt>
      <trkpt lat="51.9013728295" lon="39.0170867834">
        <ele>167.89</ele>
        <time>2013-08-13T16:08:11.000Z</time>
        <speed>3.8432753812701E+249</speed>
      </trkpt>
      <trkpt lat="51.9003064837" lon="39.0161878243">
        <ele>169.33</ele>
        <time>2013-08-13T16:08:30.000Z</time>
        <speed>3.8432753812701E+249</speed>
      </trkpt>
      <trkpt lat="51.8993312493" lon="39.0153520647">
        <ele>171.25</ele>
        <time>2013-08-13T16:08:48.000Z</time>
        <speed>3.8432753812701E+249</speed>
      </trkpt>
      <trkpt lat="51.8984405883" lon="39.0146202408">
        <ele>173.17</ele>
        <time>2013-08-13T16:09:04.000Z</time>
        <speed>3.8432753812701E+249</speed>
      </trkpt>
      <trkpt lat="51.8972853944" lon="39.0136455093">
        <ele>173.66</ele>
        <time>2013-08-13T16:09:24.000Z</time>
        <speed>3.8432753812701E+249</speed>
      </trkpt>
      <trkpt lat="51.8964714278" lon="39.0129599534">
        <ele>173.17</ele>
        <time>2013-08-13T16:09:37.000Z</time>
        <speed>3.8432753812701E+249</speed>
      </trkpt>
      <trkpt lat="51.8953678664" lon="39.0120388661">
        <ele>172.21</ele>
        <time>2013-08-13T16:09:54.000Z</time>
        <speed>3.8432753812701E+249</speed>
      </trkpt>
      <trkpt lat="51.8943272531" lon="39.0111738537">
        <ele>171.25</ele>
        <time>2013-08-13T16:10:10.000Z</time>
        <speed>3.8432753812701E+249</speed>
      </trkpt>
      <trkpt lat="51.8932721391" lon="39.010278834">
        <ele>168.37</ele>
        <time>2013-08-13T16:10:26.000Z</time>
        <speed>3.8432753812701E+249</speed>
      </trkpt>
      <trkpt lat="51.8930088636" lon="39.0100536123">
        <ele>168.85</ele>
        <time>2013-08-13T16:10:30.000Z</time>
        <speed>3.8432753812701E+249</speed>
      </trkpt>
      <trkpt lat="51.8919597007" lon="39.0091629513">
        <ele>167.41</ele>
        <time>2013-08-13T16:10:46.000Z</time>
        <speed>3.8432753812701E+249</speed>
      </trkpt>
      <trkpt lat="51.8907422293" lon="39.0081339888">
        <ele>166.45</ele>
        <time>2013-08-13T16:11:05.000Z</time>
        <speed>3.8432753812701E+249</speed>
      </trkpt>
      <trkpt lat="51.8896698486" lon="39.007233521">
        <ele>164.52</ele>
        <time>2013-08-13T16:11:21.000Z</time>
        <speed>3.8432753812701E+249</speed>
      </trkpt>
      <trkpt lat="51.8886216078" lon="39.0063551813">
        <ele>162.6</ele>
        <time>2013-08-13T16:11:36.000Z</time>
        <speed>3.8432753812701E+249</speed>
      </trkpt>
      <trkpt lat="51.8877062201" lon="39.0055811964">
        <ele>164.52</ele>
        <time>2013-08-13T16:11:52.000Z</time>
        <speed>3.8432753812701E+249</speed>
      </trkpt>
      <trkpt lat="51.8867436424" lon="39.0047613624">
        <ele>166.45</ele>
        <time>2013-08-13T16:12:10.000Z</time>
        <speed>3.8432753812701E+249</speed>
      </trkpt>
      <trkpt lat="51.8857573438" lon="39.0039291233">
        <ele>166.93</ele>
        <time>2013-08-13T16:12:28.000Z</time>
        <speed>3.8432753812701E+249</speed>
      </trkpt>
      <trkpt lat="51.8847262859" lon="39.003068218">
        <ele>166.93</ele>
        <time>2013-08-13T16:12:46.000Z</time>
        <speed>3.8432753812701E+249</speed>
      </trkpt>
      <trkpt lat="51.8834760413" lon="39.0020240843">
        <ele>168.85</ele>
        <time>2013-08-13T16:13:09.000Z</time>
        <speed>3.8432753812701E+249</speed>
      </trkpt>
      <trkpt lat="51.8824559636" lon="39.0011406317">
        <ele>169.33</ele>
        <time>2013-08-13T16:13:27.000Z</time>
        <speed>3.8432753812701E+249</speed>
      </trkpt>
      <trkpt lat="51.8815434258" lon="39.0002726857">
        <ele>169.33</ele>
        <time>2013-08-13T16:13:43.000Z</time>
        <speed>3.8432753812701E+249</speed>
      </trkpt>
      <trkpt lat="51.8814373948" lon="39.0001447778">
        <ele>169.33</ele>
        <time>2013-08-13T16:13:45.000Z</time>
        <speed>3.8432753812701E+249</speed>
      </trkpt>
      <trkpt lat="51.8805819377" lon="38.9991267119">
        <ele>169.81</ele>
        <time>2013-08-13T16:14:01.000Z</time>
        <speed>3.8432753812701E+249</speed>
      </trkpt>
      <trkpt lat="51.8794981577" lon="38.9978023712">
        <ele>169.81</ele>
        <time>2013-08-13T16:14:21.000Z</time>
        <speed>3.8432753812701E+249</speed>
      </trkpt>
      <trkpt lat="51.8787255976" lon="38.9968801104">
        <ele>170.77</ele>
        <time>2013-08-13T16:14:36.000Z</time>
        <speed>3.8432753812701E+249</speed>
      </trkpt>
      <trkpt lat="51.8778066896" lon="38.9957736991">
        <ele>171.73</ele>
        <time>2013-08-13T16:14:54.000Z</time>
        <speed>3.8432753812701E+249</speed>
      </trkpt>
      <trkpt lat="51.8767136894" lon="38.9944295771">
        <ele>170.77</ele>
        <time>2013-08-13T16:15:14.000Z</time>
        <speed>3.8432753812701E+249</speed>
      </trkpt>
      <trkpt lat="51.8757449929" lon="38.9932147879">
        <ele>168.37</ele>
        <time>2013-08-13T16:15:30.000Z</time>
        <speed>3.8432753812701E+249</speed>
      </trkpt>
      <trkpt lat="51.8747522403" lon="38.9920475241">
        <ele>165</ele>
        <time>2013-08-13T16:15:44.000Z</time>
        <speed>3.8432753812701E+249</speed>
      </trkpt>
      <trkpt lat="51.873552287" lon="38.9913772233">
        <ele>162.12</ele>
        <time>2013-08-13T16:15:58.000Z</time>
        <speed>3.8432753812701E+249</speed>
      </trkpt>
      <trkpt lat="51.8723743781" lon="38.9907485805">
        <ele>158.75</ele>
        <time>2013-08-13T16:16:12.000Z</time>
        <speed>3.8432753812701E+249</speed>
      </trkpt>
      <trkpt lat="51.871792255" lon="38.9904442336">
        <ele>155.87</ele>
        <time>2013-08-13T16:16:18.000Z</time>
        <speed>3.8432753812701E+249</speed>
      </trkpt>
      <trkpt lat="51.8712384626" lon="38.9902309142">
        <ele>152.03</ele>
        <time>2013-08-13T16:16:23.000Z</time>
        <speed>3.8432753812701E+249</speed>
      </trkpt>
      <trkpt lat="51.8706501368" lon="38.9900823031">
        <ele>149.14</ele>
        <time>2013-08-13T16:16:28.000Z</time>
        <speed>3.8432753812701E+249</speed>
      </trkpt>
      <trkpt lat="51.8695496768" lon="38.9897946361">
        <ele>149.14</ele>
        <time>2013-08-13T16:16:40.000Z</time>
        <speed>3.8432753812701E+249</speed>
      </trkpt>
      <trkpt lat="51.8690185994" lon="38.9896360505">
        <ele>152.51</ele>
        <time>2013-08-13T16:16:48.000Z</time>
        <speed>3.8432753812701E+249</speed>
      </trkpt>
      <trkpt lat="51.8685413338" lon="38.989480231">
        <ele>155.39</ele>
        <time>2013-08-13T16:16:57.000Z</time>
        <speed>3.8432753812701E+249</speed>
      </trkpt>
      <trkpt lat="51.8681956641" lon="38.989372775">
        <ele>157.31</ele>
        <time>2013-08-13T16:17:04.000Z</time>
        <speed>3.8432753812701E+249</speed>
      </trkpt>
      <trkpt lat="51.867518574" lon="38.9891594555">
        <ele>159.72</ele>
        <time>2013-08-13T16:17:18.000Z</time>
        <speed>3.8432753812701E+249</speed>
      </trkpt>
      <trkpt lat="51.8667155039" lon="38.9889053162">
        <ele>161.64</ele>
        <time>2013-08-13T16:17:34.000Z</time>
        <speed>3.8432753812701E+249</speed>
      </trkpt>
      <trkpt lat="51.8657127768" lon="38.9885357581">
        <ele>163.08</ele>
        <time>2013-08-13T16:17:53.000Z</time>
        <speed>3.8432753812701E+249</speed>
      </trkpt>
      <trkpt lat="51.8647698965" lon="38.9880516194">
        <ele>163.08</ele>
        <time>2013-08-13T16:18:09.000Z</time>
        <speed>3.8432753812701E+249</speed>
      </trkpt>
      <trkpt lat="51.8635437079" lon="38.987400094">
        <ele>164.52</ele>
        <time>2013-08-13T16:18:30.000Z</time>
        <speed>3.8432753812701E+249</speed>
      </trkpt>
      <trkpt lat="51.8626484368" lon="38.9869226608">
        <ele>165</ele>
        <time>2013-08-13T16:18:45.000Z</time>
        <speed>3.8432753812701E+249</speed>
      </trkpt>
      <trkpt lat="51.8619533256" lon="38.9865373448">
        <ele>164.52</ele>
        <time>2013-08-13T16:18:56.000Z</time>
        <speed>3.8432753812701E+249</speed>
      </trkpt>
      <trkpt lat="51.8606373668" lon="38.9860594925">
        <ele>162.12</ele>
        <time>2013-08-13T16:19:14.000Z</time>
        <speed>3.8432753812701E+249</speed>
      </trkpt>
      <trkpt lat="51.8593018781" lon="38.9857496135">
        <ele>161.16</ele>
        <time>2013-08-13T16:19:31.000Z</time>
        <speed>3.8432753812701E+249</speed>
      </trkpt>
      <trkpt lat="51.8577057961" lon="38.9854359627">
        <ele>159.72</ele>
        <time>2013-08-13T16:19:53.000Z</time>
        <speed>3.8432753812701E+249</speed>
      </trkpt>
      <trkpt lat="51.8564925157" lon="38.9851426799">
        <ele>157.31</ele>
        <time>2013-08-13T16:20:09.000Z</time>
        <speed>3.8432753812701E+249</speed>
      </trkpt>
      <trkpt lat="51.8552787323" lon="38.9849130157">
        <ele>153.95</ele>
        <time>2013-08-13T16:20:23.000Z</time>
        <speed>3.8432753812701E+249</speed>
      </trkpt>
      <trkpt lat="51.8551925663" lon="38.9848981798">
        <ele>153.47</ele>
        <time>2013-08-13T16:20:24.000Z</time>
        <speed>3.8432753812701E+249</speed>
      </trkpt>
      <trkpt lat="51.8549345713" lon="38.9844567887">
        <ele>152.51</ele>
        <time>2013-08-13T16:20:29.000Z</time>
        <speed>3.8432753812701E+249</speed>
      </trkpt>
      <trkpt lat="51.8550139479" lon="38.9840541221">
        <ele>151.54</ele>
        <time>2013-08-13T16:20:32.000Z</time>
        <speed>3.8432753812701E+249</speed>
      </trkpt>
      <trkpt lat="51.8553017825" lon="38.982198704">
        <ele>147.7</ele>
        <time>2013-08-13T16:20:45.000Z</time>
        <speed>3.8432753812701E+249</speed>
      </trkpt>
      <trkpt lat="51.8553379923" lon="38.98192361">
        <ele>147.22</ele>
        <time>2013-08-13T16:20:47.000Z</time>
        <speed>3.8432753812701E+249</speed>
      </trkpt>
      <trkpt lat="51.8552513234" lon="38.9810879342">
        <ele>145.3</ele>
        <time>2013-08-13T16:20:54.000Z</time>
        <speed>3.8432753812701E+249</speed>
      </trkpt>
      <trkpt lat="51.8551054783" lon="38.9809316956">
        <ele>144.34</ele>
        <time>2013-08-13T16:20:56.000Z</time>
        <speed>3.8432753812701E+249</speed>
      </trkpt>
      <trkpt lat="51.8544554617" lon="38.9803408552">
        <ele>140.97</ele>
        <time>2013-08-13T16:21:04.000Z</time>
        <speed>3.8432753812701E+249</speed>
      </trkpt>
      <trkpt lat="51.8537653796" lon="38.9798688702">
        <ele>137.61</ele>
        <time>2013-08-13T16:21:12.000Z</time>
        <speed>3.8432753812701E+249</speed>
      </trkpt>
      <trkpt lat="51.8536700774" lon="38.9798482507">
        <ele>137.13</ele>
        <time>2013-08-13T16:21:13.000Z</time>
        <speed>3.8432753812701E+249</speed>
      </trkpt>
      <trkpt lat="51.8530930672" lon="38.9800857101">
        <ele>134.24</ele>
        <time>2013-08-13T16:21:19.000Z</time>
        <speed>3.8432753812701E+249</speed>
      </trkpt>
      <trkpt lat="51.8527266104" lon="38.9804144483">
        <ele>133.76</ele>
        <time>2013-08-13T16:21:23.000Z</time>
        <speed>3.8432753812701E+249</speed>
      </trkpt>
      <trkpt lat="51.8523635902" lon="38.9805274364">
        <ele>133.28</ele>
        <time>2013-08-13T16:21:27.000Z</time>
        <speed>3.8432753812701E+249</speed>
      </trkpt>
      <trkpt lat="51.8518484384" lon="38.9803639892">
        <ele>136.16</ele>
        <time>2013-08-13T16:21:35.000Z</time>
        <speed>3.8432753812701E+249</speed>
      </trkpt>
      <trkpt lat="51.8512523174" lon="38.9802685194">
        <ele>138.09</ele>
        <time>2013-08-13T16:21:45.000Z</time>
        <speed>3.8432753812701E+249</speed>
      </trkpt>
      <trkpt lat="51.8504356686" lon="38.9802187309">
        <ele>139.05</ele>
        <time>2013-08-13T16:21:58.000Z</time>
        <speed>3.8432753812701E+249</speed>
      </trkpt>
      <trkpt lat="51.849316936" lon="38.9802891389">
        <ele>138.09</ele>
        <time>2013-08-13T16:22:13.000Z</time>
        <speed>3.8432753812701E+249</speed>
      </trkpt>
      <trkpt lat="51.8481433019" lon="38.9807820786">
        <ele>138.09</ele>
        <time>2013-08-13T16:22:29.000Z</time>
        <speed>3.8432753812701E+249</speed>
      </trkpt>
      <trkpt lat="51.8471731804" lon="38.9812372997">
        <ele>136.64</ele>
        <time>2013-08-13T16:22:42.000Z</time>
        <speed>3.8432753812701E+249</speed>
      </trkpt>
      <trkpt lat="51.8461501691" lon="38.9817923494">
        <ele>134.24</ele>
        <time>2013-08-13T16:22:55.000Z</time>
        <speed>3.8432753812701E+249</speed>
      </trkpt>
      <trkpt lat="51.8456869014" lon="38.9823247679">
        <ele>130.88</ele>
        <time>2013-08-13T16:23:01.000Z</time>
        <speed>3.8432753812701E+249</speed>
      </trkpt>
      <trkpt lat="51.8450328615" lon="38.9831702504">
        <ele>127.99</ele>
        <time>2013-08-13T16:23:09.000Z</time>
        <speed>3.8432753812701E+249</speed>
      </trkpt>
      <trkpt lat="51.8445182964" lon="38.9838580694">
        <ele>127.51</ele>
        <time>2013-08-13T16:23:16.000Z</time>
        <speed>3.8432753812701E+249</speed>
      </trkpt>
      <trkpt lat="51.8443388399" lon="38.9843105245">
        <ele>127.51</ele>
        <time>2013-08-13T16:23:20.000Z</time>
        <speed>3.8432753812701E+249</speed>
      </trkpt>
      <trkpt lat="51.8440809287" lon="38.9857030101">
        <ele>127.99</ele>
        <time>2013-08-13T16:23:32.000Z</time>
        <speed>3.8432753812701E+249</speed>
      </trkpt>
      <trkpt lat="51.843737103" lon="38.9866017178">
        <ele>131.36</ele>
        <time>2013-08-13T16:23:44.000Z</time>
        <speed>3.8432753812701E+249</speed>
      </trkpt>
      <trkpt lat="51.8435038347" lon="38.9869024605">
        <ele>134.24</ele>
        <time>2013-08-13T16:23:52.000Z</time>
        <speed>3.8432753812701E+249</speed>
      </trkpt>
      <trkpt lat="51.8431788683" lon="38.9871758781">
        <ele>137.61</ele>
        <time>2013-08-13T16:24:03.000Z</time>
        <speed>3.8432753812701E+249</speed>
      </trkpt>
      <trkpt lat="51.8426974118" lon="38.9873598609">
        <ele>140.49</ele>
        <time>2013-08-13T16:24:17.000Z</time>
        <speed>3.8432753812701E+249</speed>
      </trkpt>
      <trkpt lat="51.8420161307" lon="38.9875428379">
        <ele>142.41</ele>
        <time>2013-08-13T16:24:34.000Z</time>
        <speed>3.8432753812701E+249</speed>
      </trkpt>
      <trkpt lat="51.841428224" lon="38.9877512958">
        <ele>142.89</ele>
        <time>2013-08-13T16:24:47.000Z</time>
        <speed>3.8432753812701E+249</speed>
      </trkpt>
      <trkpt lat="51.840536138" lon="38.9881602488">
        <ele>140.97</ele>
        <time>2013-08-13T16:25:02.000Z</time>
        <speed>3.8432753812701E+249</speed>
      </trkpt>
      <trkpt lat="51.8399719521" lon="38.9884362649">
        <ele>138.09</ele>
        <time>2013-08-13T16:25:09.000Z</time>
        <speed>3.8432753812701E+249</speed>
      </trkpt>
      <trkpt lat="51.8393968698" lon="38.9887047373">
        <ele>134.72</ele>
        <time>2013-08-13T16:25:15.000Z</time>
        <speed>3.8432753812701E+249</speed>
      </trkpt>
      <trkpt lat="51.8389999028" lon="38.9888902288">
        <ele>131.84</ele>
        <time>2013-08-13T16:25:19.000Z</time>
        <speed>3.8432753812701E+249</speed>
      </trkpt>
      <trkpt lat="51.8381260894" lon="38.9892763831">
        <ele>128.47</ele>
        <time>2013-08-13T16:25:28.000Z</time>
        <speed>3.8432753812701E+249</speed>
      </trkpt>
      <trkpt lat="51.8370905891" lon="38.9897091407">
        <ele>129.43</ele>
        <time>2013-08-13T16:25:41.000Z</time>
        <speed>3.8432753812701E+249</speed>
      </trkpt>
      <trkpt lat="51.8364283349" lon="38.9899757691">
        <ele>132.32</ele>
        <time>2013-08-13T16:25:52.000Z</time>
        <speed>3.8432753812701E+249</speed>
      </trkpt>
      <trkpt lat="51.8362297677" lon="38.9900519606">
        <ele>133.76</ele>
        <time>2013-08-13T16:25:56.000Z</time>
        <speed>3.8432753812701E+249</speed>
      </trkpt>
      <trkpt lat="51.8356499914" lon="38.9903016575">
        <ele>136.16</ele>
        <time>2013-08-13T16:26:08.000Z</time>
        <speed>3.8432753812701E+249</speed>
      </trkpt>
      <trkpt lat="51.8349584006" lon="38.9906009752">
        <ele>138.09</ele>
        <time>2013-08-13T16:26:22.000Z</time>
        <speed>3.8432753812701E+249</speed>
      </trkpt>
      <trkpt lat="51.8341343757" lon="38.9910002053">
        <ele>139.05</ele>
        <time>2013-08-13T16:26:38.000Z</time>
        <speed>3.8432753812701E+249</speed>
      </trkpt>
      <trkpt lat="51.8334556092" lon="38.9913011156">
        <ele>139.53</ele>
        <time>2013-08-13T16:26:50.000Z</time>
        <speed>3.8432753812701E+249</speed>
      </trkpt>
      <trkpt lat="51.8326837197" lon="38.9916477073">
        <ele>141.45</ele>
        <time>2013-08-13T16:27:04.000Z</time>
        <speed>3.8432753812701E+249</speed>
      </trkpt>
      <trkpt lat="51.8325860705" lon="38.9916795585">
        <ele>141.93</ele>
        <time>2013-08-13T16:27:06.000Z</time>
        <speed>3.8432753812701E+249</speed>
      </trkpt>
      <trkpt lat="51.831794735" lon="38.9920203667">
        <ele>144.34</ele>
        <time>2013-08-13T16:27:22.000Z</time>
        <speed>3.8432753812701E+249</speed>
      </trkpt>
      <trkpt lat="51.83137279" lon="38.9922171738">
        <ele>144.82</ele>
        <time>2013-08-13T16:27:30.000Z</time>
        <speed>3.8432753812701E+249</speed>
      </trkpt>
      <trkpt lat="51.8310494162" lon="38.9923535474">
        <ele>145.3</ele>
        <time>2013-08-13T16:27:36.000Z</time>
        <speed>3.8432753812701E+249</speed>
      </trkpt>
      <trkpt lat="51.8300713319" lon="38.9927709661">
        <ele>147.22</ele>
        <time>2013-08-13T16:27:54.000Z</time>
        <speed>3.8432753812701E+249</speed>
      </trkpt>
      <trkpt lat="51.8295601197" lon="38.9930337388">
        <ele>148.66</ele>
        <time>2013-08-13T16:28:04.000Z</time>
        <speed>3.8432753812701E+249</speed>
      </trkpt>
      <trkpt lat="51.8287051655" lon="38.993514441">
        <ele>150.58</ele>
        <time>2013-08-13T16:28:21.000Z</time>
        <speed>3.8432753812701E+249</speed>
      </trkpt>
      <trkpt lat="51.8279455137" lon="38.9939348772">
        <ele>152.03</ele>
        <time>2013-08-13T16:28:36.000Z</time>
        <speed>3.8432753812701E+249</speed>
      </trkpt>
      <trkpt lat="51.8272507377" lon="38.9943250548">
        <ele>152.99</ele>
        <time>2013-08-13T16:28:49.000Z</time>
        <speed>3.8432753812701E+249</speed>
      </trkpt>
      <trkpt lat="51.8265236076" lon="38.9947317448">
        <ele>154.91</ele>
        <time>2013-08-13T16:29:03.000Z</time>
        <speed>3.8432753812701E+249</speed>
      </trkpt>
      <trkpt lat="51.8257199507" lon="38.9951728005">
        <ele>156.83</ele>
        <time>2013-08-13T16:29:19.000Z</time>
        <speed>3.8432753812701E+249</speed>
      </trkpt>
      <trkpt lat="51.8247380108" lon="38.9957486372">
        <ele>158.27</ele>
        <time>2013-08-13T16:29:37.000Z</time>
        <speed>3.8432753812701E+249</speed>
      </trkpt>
      <trkpt lat="51.8239254691" lon="38.9962148387">
        <ele>159.72</ele>
        <time>2013-08-13T16:29:52.000Z</time>
        <speed>3.8432753812701E+249</speed>
      </trkpt>
      <trkpt lat="51.8230716884" lon="38.9967522863">
        <ele>160.2</ele>
        <time>2013-08-13T16:30:07.000Z</time>
        <speed>3.8432753812701E+249</speed>
      </trkpt>
      <trkpt lat="51.8220811151" lon="38.9973728824">
        <ele>158.75</ele>
        <time>2013-08-13T16:30:23.000Z</time>
        <speed>3.8432753812701E+249</speed>
      </trkpt>
      <trkpt lat="51.8210994266" lon="38.9980267547">
        <ele>155.87</ele>
        <time>2013-08-13T16:30:37.000Z</time>
        <speed>3.8432753812701E+249</speed>
      </trkpt>
      <trkpt lat="51.8202940933" lon="38.998558335">
        <ele>152.51</ele>
        <time>2013-08-13T16:30:47.000Z</time>
        <speed>3.8432753812701E+249</speed>
      </trkpt>
      <trkpt lat="51.8194649555" lon="38.9991136361">
        <ele>149.14</ele>
        <time>2013-08-13T16:30:57.000Z</time>
        <speed>3.8432753812701E+249</speed>
      </trkpt>
      <trkpt lat="51.8193776999" lon="38.9991680346">
        <ele>149.14</ele>
        <time>2013-08-13T16:30:58.000Z</time>
        <speed>3.8432753812701E+249</speed>
      </trkpt>
      <trkpt lat="51.8188331276" lon="38.9995368384">
        <ele>146.26</ele>
        <time>2013-08-13T16:31:04.000Z</time>
        <speed>3.8432753812701E+249</speed>
      </trkpt>
      <trkpt lat="51.8182491604" lon="38.9999261778">
        <ele>142.89</ele>
        <time>2013-08-13T16:31:10.000Z</time>
        <speed>3.8432753812701E+249</speed>
      </trkpt>
      <trkpt lat="51.8169183657" lon="39.0008279867">
        <ele>141.45</ele>
        <time>2013-08-13T16:31:25.000Z</time>
        <speed>3.8432753812701E+249</speed>
      </trkpt>
      <trkpt lat="51.8161540199" lon="39.0013307333">
        <ele>144.34</ele>
        <time>2013-08-13T16:31:38.000Z</time>
        <speed>3.8432753812701E+249</speed>
      </trkpt>
      <trkpt lat="51.8155238684" lon="39.0017467272">
        <ele>147.7</ele>
        <time>2013-08-13T16:31:52.000Z</time>
        <speed>3.8432753812701E+249</speed>
      </trkpt>
      <trkpt lat="51.8154833" lon="39.0017743874">
        <ele>147.7</ele>
        <time>2013-08-13T16:31:53.000Z</time>
        <speed>3.8432753812701E+249</speed>
      </trkpt>
      <trkpt lat="51.8148011807" lon="39.0022098273">
        <ele>150.58</ele>
        <time>2013-08-13T16:32:09.000Z</time>
        <speed>3.8432753812701E+249</speed>
      </trkpt>
      <trkpt lat="51.8140347395" lon="39.0026912">
        <ele>152.51</ele>
        <time>2013-08-13T16:32:26.000Z</time>
        <speed>3.8432753812701E+249</speed>
      </trkpt>
      <trkpt lat="51.813345328" lon="39.0031300765">
        <ele>153.95</ele>
        <time>2013-08-13T16:32:41.000Z</time>
        <speed>3.8432753812701E+249</speed>
      </trkpt>
      <trkpt lat="51.8131116405" lon="39.0032910928">
        <ele>153.95</ele>
        <time>2013-08-13T16:32:46.000Z</time>
        <speed>3.8432753812701E+249</speed>
      </trkpt>
      <trkpt lat="51.8129099719" lon="39.0034182463">
        <ele>154.43</ele>
        <time>2013-08-13T16:32:50.000Z</time>
        <speed>3.8432753812701E+249</speed>
      </trkpt>
      <trkpt lat="51.8119825982" lon="39.004022833">
        <ele>153.95</ele>
        <time>2013-08-13T16:33:07.000Z</time>
        <speed>3.8432753812701E+249</speed>
      </trkpt>
      <trkpt lat="51.811150359" lon="39.0045803133">
        <ele>152.99</ele>
        <time>2013-08-13T16:33:21.000Z</time>
        <speed>3.8432753812701E+249</speed>
      </trkpt>
      <trkpt lat="51.8102547526" lon="39.0051595028">
        <ele>152.03</ele>
        <time>2013-08-13T16:33:35.000Z</time>
        <speed>3.8432753812701E+249</speed>
      </trkpt>
      <trkpt lat="51.8091702182" lon="39.0058638342">
        <ele>151.54</ele>
        <time>2013-08-13T16:33:52.000Z</time>
        <speed>3.8432753812701E+249</speed>
      </trkpt>
      <trkpt lat="51.8082834966" lon="39.0064544231">
        <ele>152.51</ele>
        <time>2013-08-13T16:34:07.000Z</time>
        <speed>3.8432753812701E+249</speed>
      </trkpt>
      <trkpt lat="51.807391746" lon="39.0070437547">
        <ele>152.99</ele>
        <time>2013-08-13T16:34:22.000Z</time>
        <speed>3.8432753812701E+249</speed>
      </trkpt>
      <trkpt lat="51.8064409029" lon="39.0076639317">
        <ele>152.03</ele>
        <time>2013-08-13T16:34:37.000Z</time>
        <speed>3.8432753812701E+249</speed>
      </trkpt>
      <trkpt lat="51.8056420237" lon="39.0081943385">
        <ele>152.03</ele>
        <time>2013-08-13T16:34:50.000Z</time>
        <speed>3.8432753812701E+249</speed>
      </trkpt>
      <trkpt lat="51.8045526277" lon="39.0088937245">
        <ele>152.51</ele>
        <time>2013-08-13T16:35:08.000Z</time>
        <speed>3.8432753812701E+249</speed>
      </trkpt>
      <trkpt lat="51.8036798202" lon="39.0093811322">
        <ele>153.47</ele>
        <time>2013-08-13T16:35:23.000Z</time>
        <speed>3.8432753812701E+249</speed>
      </trkpt>
      <trkpt lat="51.8035063986" lon="39.0094315913">
        <ele>153.95</ele>
        <time>2013-08-13T16:35:26.000Z</time>
        <speed>3.8432753812701E+249</speed>
      </trkpt>
      <trkpt lat="51.8025609199" lon="39.0096537955">
        <ele>155.39</ele>
        <time>2013-08-13T16:35:42.000Z</time>
        <speed>3.8432753812701E+249</speed>
      </trkpt>
      <trkpt lat="51.8017241545" lon="39.009799473">
        <ele>155.87</ele>
        <time>2013-08-13T16:35:56.000Z</time>
        <speed>3.8432753812701E+249</speed>
      </trkpt>
      <trkpt lat="51.8008484971" lon="39.0099543706">
        <ele>156.35</ele>
        <time>2013-08-13T16:36:10.000Z</time>
        <speed>3.8432753812701E+249</speed>
      </trkpt>
      <trkpt lat="51.8006600719" lon="39.0100003872">
        <ele>156.35</ele>
        <time>2013-08-13T16:36:13.000Z</time>
        <speed>3.8432753812701E+249</speed>
      </trkpt>
      <trkpt lat="51.8000517134" lon="39.0100936778">
        <ele>156.83</ele>
        <time>2013-08-13T16:36:22.000Z</time>
        <speed>3.8432753812701E+249</speed>
      </trkpt>
      <trkpt lat="51.7988979444" lon="39.0102854557">
        <ele>155.39</ele>
        <time>2013-08-13T16:36:38.000Z</time>
        <speed>3.8432753812701E+249</speed>
      </trkpt>
      <trkpt lat="51.7976798024" lon="39.0104722045">
        <ele>153.95</ele>
        <time>2013-08-13T16:36:54.000Z</time>
        <speed>3.8432753812701E+249</speed>
      </trkpt>
      <trkpt lat="51.7963819485" lon="39.010548396">
        <ele>150.58</ele>
        <time>2013-08-13T16:37:09.000Z</time>
        <speed>3.8432753812701E+249</speed>
      </trkpt>
      <trkpt lat="51.7956007551" lon="39.0105962567">
        <ele>147.7</ele>
        <time>2013-08-13T16:37:17.000Z</time>
        <speed>3.8432753812701E+249</speed>
      </trkpt>
      <trkpt lat="51.7949620541" lon="39.0106359031">
        <ele>144.34</ele>
        <time>2013-08-13T16:37:23.000Z</time>
        <speed>3.8432753812701E+249</speed>
      </trkpt>
      <trkpt lat="51.7947350722" lon="39.010654008">
        <ele>143.37</ele>
        <time>2013-08-13T16:37:25.000Z</time>
        <speed>3.8432753812701E+249</speed>
      </trkpt>
      <trkpt lat="51.7942596506" lon="39.0106959175">
        <ele>140.49</ele>
        <time>2013-08-13T16:37:29.000Z</time>
        <speed>3.8432753812701E+249</speed>
      </trkpt>
      <trkpt lat="51.7934909463" lon="39.0108076483">
        <ele>136.64</ele>
        <time>2013-08-13T16:37:35.000Z</time>
        <speed>3.8432753812701E+249</speed>
      </trkpt>
      <trkpt lat="51.7928636447" lon="39.0109647252">
        <ele>133.76</ele>
        <time>2013-08-13T16:37:40.000Z</time>
        <speed>3.8432753812701E+249</speed>
      </trkpt>
      <trkpt lat="51.792375315" lon="39.0111262444">
        <ele>130.4</ele>
        <time>2013-08-13T16:37:44.000Z</time>
        <speed>3.8432753812701E+249</speed>
      </trkpt>
      <trkpt lat="51.7917768471" lon="39.0113312658">
        <ele>127.51</ele>
        <time>2013-08-13T16:37:49.000Z</time>
        <speed>3.8432753812701E+249</speed>
      </trkpt>
      <trkpt lat="51.7911725119" lon="39.0115320962">
        <ele>124.15</ele>
        <time>2013-08-13T16:37:54.000Z</time>
        <speed>3.8432753812701E+249</speed>
      </trkpt>
      <trkpt lat="51.7906231619" lon="39.0117233712">
        <ele>120.78</ele>
        <time>2013-08-13T16:37:58.000Z</time>
        <speed>3.8432753812701E+249</speed>
      </trkpt>
      <trkpt lat="51.7900486663" lon="39.0119360201">
        <ele>116.94</ele>
        <time>2013-08-13T16:38:02.000Z</time>
        <speed>3.8432753812701E+249</speed>
      </trkpt>
      <trkpt lat="51.7894901801" lon="39.0121563803">
        <ele>113.09</ele>
        <time>2013-08-13T16:38:06.000Z</time>
        <speed>3.8432753812701E+249</speed>
      </trkpt>
      <trkpt lat="51.7889497988" lon="39.0123683587">
        <ele>109.73</ele>
        <time>2013-08-13T16:38:10.000Z</time>
        <speed>3.8432753812701E+249</speed>
      </trkpt>
      <trkpt lat="51.7886913009" lon="39.0124714561">
        <ele>108.77</ele>
        <time>2013-08-13T16:38:12.000Z</time>
        <speed>3.8432753812701E+249</speed>
      </trkpt>
      <trkpt lat="51.7885709368" lon="39.0125199035">
        <ele>108.77</ele>
        <time>2013-08-13T16:38:13.000Z</time>
        <speed>3.8432753812701E+249</speed>
      </trkpt>
      <trkpt lat="51.7875795253" lon="39.0128736198">
        <ele>108.29</ele>
        <time>2013-08-13T16:38:23.000Z</time>
        <speed>3.8432753812701E+249</speed>
      </trkpt>
      <trkpt lat="51.7864502314" lon="39.0132728498">
        <ele>107.81</ele>
        <time>2013-08-13T16:38:37.000Z</time>
        <speed>3.8432753812701E+249</speed>
      </trkpt>
      <trkpt lat="51.7856657691" lon="39.0134406555">
        <ele>109.73</ele>
        <time>2013-08-13T16:38:49.000Z</time>
        <speed>3.8432753812701E+249</speed>
      </trkpt>
      <trkpt lat="51.7851797864" lon="39.0132716764">
        <ele>113.09</ele>
        <time>2013-08-13T16:39:00.000Z</time>
        <speed>3.8432753812701E+249</speed>
      </trkpt>
      <trkpt lat="51.784683913" lon="39.0130432695">
        <ele>116.46</ele>
        <time>2013-08-13T16:39:13.000Z</time>
        <speed>3.8432753812701E+249</speed>
      </trkpt>
      <trkpt lat="51.7843304481" lon="39.012880493">
        <ele>119.34</ele>
        <time>2013-08-13T16:39:23.000Z</time>
        <speed>3.8432753812701E+249</speed>
      </trkpt>
      <trkpt lat="51.7839733791" lon="39.0127037186">
        <ele>122.71</ele>
        <time>2013-08-13T16:39:34.000Z</time>
        <speed>3.8432753812701E+249</speed>
      </trkpt>
      <trkpt lat="51.7836334929" lon="39.012541445">
        <ele>125.59</ele>
        <time>2013-08-13T16:39:44.000Z</time>
        <speed>3.8432753812701E+249</speed>
      </trkpt>
      <trkpt lat="51.7831463367" lon="39.0123305563">
        <ele>128.95</ele>
        <time>2013-08-13T16:39:58.000Z</time>
        <speed>3.8432753812701E+249</speed>
      </trkpt>
      <trkpt lat="51.7825719249" lon="39.0121853817">
        <ele>132.8</ele>
        <time>2013-08-13T16:40:13.000Z</time>
        <speed>3.8432753812701E+249</speed>
      </trkpt>
      <trkpt lat="51.7822325416" lon="39.0121231042">
        <ele>133.28</ele>
        <time>2013-08-13T16:40:21.000Z</time>
        <speed>3.8432753812701E+249</speed>
      </trkpt>
      <trkpt lat="51.782143442" lon="39.0121128783">
        <ele>135.68</ele>
        <time>2013-08-13T16:40:23.000Z</time>
        <speed>3.8432753812701E+249</speed>
      </trkpt>
      <trkpt lat="51.7820987664" lon="39.0121070109">
        <ele>119.34</ele>
        <time>2013-08-13T16:40:24.000Z</time>
        <speed>3.8432753812701E+249</speed>
      </trkpt>
      <trkpt lat="51.7820557673" lon="39.0120973717">
        <ele>140.49</ele>
        <time>2013-08-13T16:40:25.000Z</time>
        <speed>3.8432753812701E+249</speed>
      </trkpt>
      <trkpt lat="51.7820126843" lon="39.0120893251">
        <ele>127.03</ele>
        <time>2013-08-13T16:40:26.000Z</time>
        <speed>3.8432753812701E+249</speed>
      </trkpt>
      <trkpt lat="51.7819687631" lon="39.0120823681">
        <ele>141.45</ele>
        <time>2013-08-13T16:40:27.000Z</time>
        <speed>3.8432753812701E+249</speed>
      </trkpt>
      <trkpt lat="51.7819271889" lon="39.0120780934">
        <ele>134.24</ele>
        <time>2013-08-13T16:40:28.000Z</time>
        <speed>3.8432753812701E+249</speed>
      </trkpt>
      <trkpt lat="51.7815591395" lon="39.012001399">
        <ele>133.76</ele>
        <time>2013-08-13T16:40:39.000Z</time>
        <speed>3.8432753812701E+249</speed>
      </trkpt>
      <trkpt lat="51.7811699677" lon="39.0119015705">
        <ele>134.24</ele>
        <time>2013-08-13T16:40:48.000Z</time>
        <speed>3.8432753812701E+249</speed>
      </trkpt>
      <trkpt lat="51.780624222" lon="39.0119159874">
        <ele>134.72</ele>
        <time>2013-08-13T16:40:59.000Z</time>
        <speed>3.8432753812701E+249</speed>
      </trkpt>
      <trkpt lat="51.7804788798" lon="39.0119495988">
        <ele>134.24</ele>
        <time>2013-08-13T16:41:02.000Z</time>
        <speed>3.8432753812701E+249</speed>
      </trkpt>
      <trkpt lat="51.7802638002" lon="39.0120196715">
        <ele>134.24</ele>
        <time>2013-08-13T16:41:06.000Z</time>
        <speed>3.8432753812701E+249</speed>
      </trkpt>
      <trkpt lat="51.7794541921" lon="39.0123132896">
        <ele>133.76</ele>
        <time>2013-08-13T16:41:19.000Z</time>
        <speed>3.8432753812701E+249</speed>
      </trkpt>
      <trkpt lat="51.7791795172" lon="39.0124339052">
        <ele>133.28</ele>
        <time>2013-08-13T16:41:23.000Z</time>
        <speed>3.8432753812701E+249</speed>
      </trkpt>
      <trkpt lat="51.778883636" lon="39.0125768166">
        <ele>133.28</ele>
        <time>2013-08-13T16:41:27.000Z</time>
        <speed>3.8432753812701E+249</speed>
      </trkpt>
      <trkpt lat="51.7779238243" lon="39.0130508132">
        <ele>130.88</ele>
        <time>2013-08-13T16:41:40.000Z</time>
        <speed>3.8432753812701E+249</speed>
      </trkpt>
      <trkpt lat="51.7770996317" lon="39.013443673">
        <ele>127.99</ele>
        <time>2013-08-13T16:41:49.000Z</time>
        <speed>3.8432753812701E+249</speed>
      </trkpt>
      <trkpt lat="51.7764802929" lon="39.0137579106">
        <ele>124.15</ele>
        <time>2013-08-13T16:41:55.000Z</time>
        <speed>3.8432753812701E+249</speed>
      </trkpt>
      <trkpt lat="51.7758733593" lon="39.0140641015">
        <ele>120.78</ele>
        <time>2013-08-13T16:42:00.000Z</time>
        <speed>3.8432753812701E+249</speed>
      </trkpt>
      <trkpt lat="51.7753484007" lon="39.0143169835">
        <ele>117.42</ele>
        <time>2013-08-13T16:42:04.000Z</time>
        <speed>3.8432753812701E+249</speed>
      </trkpt>
      <trkpt lat="51.7747047544" lon="39.0146260243">
        <ele>114.53</ele>
        <time>2013-08-13T16:42:09.000Z</time>
        <speed>3.8432753812701E+249</speed>
      </trkpt>
      <trkpt lat="51.774082901" lon="39.0149311256">
        <ele>111.17</ele>
        <time>2013-08-13T16:42:14.000Z</time>
        <speed>3.8432753812701E+249</speed>
      </trkpt>
      <trkpt lat="51.7735128477" lon="39.0152065549">
        <ele>107.81</ele>
        <time>2013-08-13T16:42:19.000Z</time>
        <speed>3.8432753812701E+249</speed>
      </trkpt>
      <trkpt lat="51.7730872147" lon="39.0154281724">
        <ele>106.36</ele>
        <time>2013-08-13T16:42:23.000Z</time>
        <speed>3.8432753812701E+249</speed>
      </trkpt>
      <trkpt lat="51.7719419114" lon="39.0160036739">
        <ele>103.96</ele>
        <time>2013-08-13T16:42:35.000Z</time>
        <speed>3.8432753812701E+249</speed>
      </trkpt>
      <trkpt lat="51.7706384417" lon="39.0166624915">
        <ele>103.48</ele>
        <time>2013-08-13T16:42:51.000Z</time>
        <speed>3.8432753812701E+249</speed>
      </trkpt>
      <trkpt lat="51.7695980798" lon="39.0171697643">
        <ele>102.52</ele>
        <time>2013-08-13T16:43:05.000Z</time>
        <speed>3.8432753812701E+249</speed>
      </trkpt>
      <trkpt lat="51.7684639245" lon="39.0177662205">
        <ele>102.52</ele>
        <time>2013-08-13T16:43:21.000Z</time>
        <speed>3.8432753812701E+249</speed>
      </trkpt>
      <trkpt lat="51.7681410536" lon="39.0179543942">
        <ele>103.96</ele>
        <time>2013-08-13T16:43:26.000Z</time>
        <speed>3.8432753812701E+249</speed>
      </trkpt>
      <trkpt lat="51.7679703981" lon="39.0181098785">
        <ele>102.52</ele>
        <time>2013-08-13T16:43:29.000Z</time>
        <speed>3.8432753812701E+249</speed>
      </trkpt>
      <trkpt lat="51.7678719107" lon="39.0182326734">
        <ele>102.52</ele>
        <time>2013-08-13T16:43:31.000Z</time>
        <speed>3.8432753812701E+249</speed>
      </trkpt>
      <trkpt lat="51.7676648777" lon="39.0181421489">
        <ele>103</ele>
        <time>2013-08-13T16:43:37.000Z</time>
        <speed>3.8432753812701E+249</speed>
      </trkpt>
      <trkpt lat="51.7675170209" lon="39.0177378897">
        <ele>105.4</ele>
        <time>2013-08-13T16:43:45.000Z</time>
        <speed>3.8432753812701E+249</speed>
      </trkpt>
      <trkpt lat="51.7674807273" lon="39.0176562499">
        <ele>105.88</ele>
        <time>2013-08-13T16:43:47.000Z</time>
        <speed>3.8432753812701E+249</speed>
      </trkpt>
      <trkpt lat="51.7673494667" lon="39.0173731931">
        <ele>109.25</ele>
        <time>2013-08-13T16:43:54.000Z</time>
        <speed>3.8432753812701E+249</speed>
      </trkpt>
      <trkpt lat="51.7672208045" lon="39.017242603">
        <ele>112.13</ele>
        <time>2013-08-13T16:43:59.000Z</time>
        <speed>3.8432753812701E+249</speed>
      </trkpt>
      <trkpt lat="51.7670063954" lon="39.0174146835">
        <ele>113.57</ele>
        <time>2013-08-13T16:44:07.000Z</time>
        <speed>3.8432753812701E+249</speed>
      </trkpt>
      <trkpt lat="51.7665684409" lon="39.0179522987">
        <ele>114.53</ele>
        <time>2013-08-13T16:44:21.000Z</time>
        <speed>3.8432753812701E+249</speed>
      </trkpt>
      <trkpt lat="51.7662364338" lon="39.0182252135">
        <ele>115.01</ele>
        <time>2013-08-13T16:44:29.000Z</time>
        <speed>3.8432753812701E+249</speed>
      </trkpt>
      <trkpt lat="51.7656280752" lon="39.0183799434">
        <ele>117.42</ele>
        <time>2013-08-13T16:44:44.000Z</time>
        <speed>3.8432753812701E+249</speed>
      </trkpt>
      <trkpt lat="51.7651502229" lon="39.0183100384">
        <ele>120.78</ele>
        <time>2013-08-13T16:44:57.000Z</time>
        <speed>3.8432753812701E+249</speed>
      </trkpt>
      <trkpt lat="51.764636999" lon="39.018081883">
        <ele>123.67</ele>
        <time>2013-08-13T16:45:12.000Z</time>
        <speed>3.8432753812701E+249</speed>
      </trkpt>
      <trkpt lat="51.7641949374" lon="39.017778961">
        <ele>126.55</ele>
        <time>2013-08-13T16:45:25.000Z</time>
        <speed>3.8432753812701E+249</speed>
      </trkpt>
      <trkpt lat="51.7638646066" lon="39.0176549926">
        <ele>128.47</ele>
        <time>2013-08-13T16:45:34.000Z</time>
        <speed>3.8432753812701E+249</speed>
      </trkpt>
      <trkpt lat="51.7634885106" lon="39.0175929666">
        <ele>129.43</ele>
        <time>2013-08-13T16:45:43.000Z</time>
        <speed>3.8432753812701E+249</speed>
      </trkpt>
      <trkpt lat="51.7632199544" lon="39.0175430942">
        <ele>129.92</ele>
        <time>2013-08-13T16:45:49.000Z</time>
        <speed>3.8432753812701E+249</speed>
      </trkpt>
      <trkpt lat="51.7623147089" lon="39.01760621">
        <ele>127.03</ele>
        <time>2013-08-13T16:46:05.000Z</time>
        <speed>3.8432753812701E+249</speed>
      </trkpt>
      <trkpt lat="51.7620911635" lon="39.0175721794">
        <ele>126.07</ele>
        <time>2013-08-13T16:46:08.000Z</time>
        <speed>3.8432753812701E+249</speed>
      </trkpt>
      <trkpt lat="51.7617233656" lon="39.0172427706">
        <ele>122.71</ele>
        <time>2013-08-13T16:46:13.000Z</time>
        <speed>3.8432753812701E+249</speed>
      </trkpt>
      <trkpt lat="51.7611783743" lon="39.0169266891">
        <ele>118.86</ele>
        <time>2013-08-13T16:46:19.000Z</time>
        <speed>3.8432753812701E+249</speed>
      </trkpt>
      <trkpt lat="51.7606793158" lon="39.0166986175">
        <ele>115.5</ele>
        <time>2013-08-13T16:46:24.000Z</time>
        <speed>3.8432753812701E+249</speed>
      </trkpt>
      <trkpt lat="51.7601730488" lon="39.0164542012">
        <ele>112.13</ele>
        <time>2013-08-13T16:46:29.000Z</time>
        <speed>3.8432753812701E+249</speed>
      </trkpt>
      <trkpt lat="51.759576425" lon="39.0161858965">
        <ele>108.77</ele>
        <time>2013-08-13T16:46:35.000Z</time>
        <speed>3.8432753812701E+249</speed>
      </trkpt>
      <trkpt lat="51.759098405" lon="39.0159852337">
        <ele>106.36</ele>
        <time>2013-08-13T16:46:40.000Z</time>
        <speed>3.8432753812701E+249</speed>
      </trkpt>
      <trkpt lat="51.7582892999" lon="39.0156165138">
        <ele>104.44</ele>
        <time>2013-08-13T16:46:50.000Z</time>
        <speed>3.8432753812701E+249</speed>
      </trkpt>
      <trkpt lat="51.7580342386" lon="39.015260702">
        <ele>103.96</ele>
        <time>2013-08-13T16:46:55.000Z</time>
        <speed>3.8432753812701E+249</speed>
      </trkpt>
      <trkpt lat="51.7578303907" lon="39.014992984">
        <ele>103.48</ele>
        <time>2013-08-13T16:46:59.000Z</time>
        <speed>3.8432753812701E+249</speed>
      </trkpt>
      <trkpt lat="51.757078534" lon="39.0141159017">
        <ele>103.48</ele>
        <time>2013-08-13T16:47:14.000Z</time>
        <speed>3.8432753812701E+249</speed>
      </trkpt>
      <trkpt lat="51.7569146678" lon="39.0139747504">
        <ele>103.48</ele>
        <time>2013-08-13T16:47:17.000Z</time>
        <speed>3.8432753812701E+249</speed>
      </trkpt>
      <trkpt lat="51.7562090792" lon="39.0133539028">
        <ele>103.48</ele>
        <time>2013-08-13T16:47:30.000Z</time>
        <speed>3.8432753812701E+249</speed>
      </trkpt>
      <trkpt lat="51.7553148139" lon="39.0128162038">
        <ele>102.52</ele>
        <time>2013-08-13T16:47:45.000Z</time>
        <speed>3.8432753812701E+249</speed>
      </trkpt>
      <trkpt lat="51.754465811" lon="39.0121694561">
        <ele>103.48</ele>
        <time>2013-08-13T16:48:01.000Z</time>
        <speed>3.8432753812701E+249</speed>
      </trkpt>
      <trkpt lat="51.7539898027" lon="39.0118209366">
        <ele>103.48</ele>
        <time>2013-08-13T16:48:10.000Z</time>
        <speed>3.8432753812701E+249</speed>
      </trkpt>
      <trkpt lat="51.7532780953" lon="39.0113513824">
        <ele>104.44</ele>
        <time>2013-08-13T16:48:24.000Z</time>
        <speed>3.8432753812701E+249</speed>
      </trkpt>
      <trkpt lat="51.7530180048" lon="39.0112093929">
        <ele>104.44</ele>
        <time>2013-08-13T16:48:29.000Z</time>
        <speed>3.8432753812701E+249</speed>
      </trkpt>
      <trkpt lat="51.752817845" lon="39.0110678226">
        <ele>104.44</ele>
        <time>2013-08-13T16:48:33.000Z</time>
        <speed>3.8432753812701E+249</speed>
      </trkpt>
      <trkpt lat="51.7523542419" lon="39.0107166208">
        <ele>104.44</ele>
        <time>2013-08-13T16:48:43.000Z</time>
        <speed>3.8432753812701E+249</speed>
      </trkpt>
      <trkpt lat="51.7522239871" lon="39.0105872042">
        <ele>104.92</ele>
        <time>2013-08-13T16:48:46.000Z</time>
        <speed>3.8432753812701E+249</speed>
      </trkpt>
      <trkpt lat="51.7520801537" lon="39.0104720369">
        <ele>104.92</ele>
        <time>2013-08-13T16:48:49.000Z</time>
        <speed>3.8432753812701E+249</speed>
      </trkpt>
      <trkpt lat="51.7518477235" lon="39.0102921613">
        <ele>104.92</ele>
        <time>2013-08-13T16:48:54.000Z</time>
        <speed>3.8432753812701E+249</speed>
      </trkpt>
      <trkpt lat="51.7517127749" lon="39.0102255251">
        <ele>104.92</ele>
        <time>2013-08-13T16:48:57.000Z</time>
        <speed>3.8432753812701E+249</speed>
      </trkpt>
      <trkpt lat="51.7515614815" lon="39.0101965237">
        <ele>104.44</ele>
        <time>2013-08-13T16:49:00.000Z</time>
        <speed>3.8432753812701E+249</speed>
      </trkpt>
      <trkpt lat="51.7513322365" lon="39.0099656861">
        <ele>104.92</ele>
        <time>2013-08-13T16:49:05.000Z</time>
        <speed>3.8432753812701E+249</speed>
      </trkpt>
      <trkpt lat="51.7507668771" lon="39.0094891749">
        <ele>105.4</ele>
        <time>2013-08-13T16:49:16.000Z</time>
        <speed>3.8432753812701E+249</speed>
      </trkpt>
      <trkpt lat="51.7505704891" lon="39.0092773642">
        <ele>104.44</ele>
        <time>2013-08-13T16:49:21.000Z</time>
        <speed>3.8432753812701E+249</speed>
      </trkpt>
      <trkpt lat="51.7503126618" lon="39.0090264939">
        <ele>105.4</ele>
        <time>2013-08-13T16:49:27.000Z</time>
        <speed>3.8432753812701E+249</speed>
      </trkpt>
      <trkpt lat="51.7500533257" lon="39.0088401642">
        <ele>104.44</ele>
        <time>2013-08-13T16:49:32.000Z</time>
        <speed>3.8432753812701E+249</speed>
      </trkpt>
      <trkpt lat="51.7496816721" lon="39.0086261742">
        <ele>103.48</ele>
        <time>2013-08-13T16:49:39.000Z</time>
        <speed>3.8432753812701E+249</speed>
      </trkpt>
      <trkpt lat="51.7491680291" lon="39.0087311994">
        <ele>102.52</ele>
        <time>2013-08-13T16:49:48.000Z</time>
        <speed>3.8432753812701E+249</speed>
      </trkpt>
      <trkpt lat="51.7491122056" lon="39.0087418444">
        <ele>102.04</ele>
        <time>2013-08-13T16:49:49.000Z</time>
        <speed>3.8432753812701E+249</speed>
      </trkpt>
      <trkpt lat="51.7488366924" lon="39.0087420959">
        <ele>102.04</ele>
        <time>2013-08-13T16:49:54.000Z</time>
        <speed>3.8432753812701E+249</speed>
      </trkpt>
      <trkpt lat="51.7486843094" lon="39.008734636">
        <ele>102.04</ele>
        <time>2013-08-13T16:49:57.000Z</time>
        <speed>3.8432753812701E+249</speed>
      </trkpt>
      <trkpt lat="51.7484116461" lon="39.0083864518">
        <ele>101.08</ele>
        <time>2013-08-13T16:50:04.000Z</time>
        <speed>3.8432753812701E+249</speed>
      </trkpt>
      <trkpt lat="51.7482576706" lon="39.0078915004">
        <ele>102.52</ele>
        <time>2013-08-13T16:50:11.000Z</time>
        <speed>3.8432753812701E+249</speed>
      </trkpt>
      <trkpt lat="51.7481703311" lon="39.0073284879">
        <ele>103.96</ele>
        <time>2013-08-13T16:50:19.000Z</time>
        <speed>3.8432753812701E+249</speed>
      </trkpt>
      <trkpt lat="51.7480182834" lon="39.006575793">
        <ele>106.36</ele>
        <time>2013-08-13T16:50:32.000Z</time>
        <speed>3.8432753812701E+249</speed>
      </trkpt>
      <trkpt lat="51.747677559" lon="39.0063742921">
        <ele>107.32</ele>
        <time>2013-08-13T16:50:42.000Z</time>
        <speed>3.8432753812701E+249</speed>
      </trkpt>
      <trkpt lat="51.7470964417" lon="39.0062123537">
        <ele>107.81</ele>
        <time>2013-08-13T16:50:57.000Z</time>
        <speed>3.8432753812701E+249</speed>
      </trkpt>
      <trkpt lat="51.7468954436" lon="39.0061691869">
        <ele>108.77</ele>
        <time>2013-08-13T16:51:02.000Z</time>
        <speed>3.8432753812701E+249</speed>
      </trkpt>
      <trkpt lat="51.7465797812" lon="39.0061277803">
        <ele>109.73</ele>
        <time>2013-08-13T16:51:10.000Z</time>
        <speed>3.8432753812701E+249</speed>
      </trkpt>
      <trkpt lat="51.7461914476" lon="39.0060965996">
        <ele>110.69</ele>
        <time>2013-08-13T16:51:20.000Z</time>
        <speed>3.8432753812701E+249</speed>
      </trkpt>
      <trkpt lat="51.7457467876" lon="39.0060039796">
        <ele>112.13</ele>
        <time>2013-08-13T16:51:32.000Z</time>
        <speed>3.8432753812701E+249</speed>
      </trkpt>
      <trkpt lat="51.7454845179" lon="39.0060044825">
        <ele>113.09</ele>
        <time>2013-08-13T16:51:39.000Z</time>
        <speed>3.8432753812701E+249</speed>
      </trkpt>
      <trkpt lat="51.7450722121" lon="39.0059532691">
        <ele>114.53</ele>
        <time>2013-08-13T16:51:50.000Z</time>
        <speed>3.8432753812701E+249</speed>
      </trkpt>
      <trkpt lat="51.7445769254" lon="39.0058143809">
        <ele>117.9</ele>
        <time>2013-08-13T16:52:03.000Z</time>
        <speed>3.8432753812701E+249</speed>
      </trkpt>
      <trkpt lat="51.7439692374" lon="39.0056778397">
        <ele>119.82</ele>
        <time>2013-08-13T16:52:18.000Z</time>
        <speed>3.8432753812701E+249</speed>
      </trkpt>
      <trkpt lat="51.7435449455" lon="39.0056615788">
        <ele>121.26</ele>
        <time>2013-08-13T16:52:28.000Z</time>
        <speed>3.8432753812701E+249</speed>
      </trkpt>
      <trkpt lat="51.7434172053" lon="39.0056527779">
        <ele>121.26</ele>
        <time>2013-08-13T16:52:31.000Z</time>
        <speed>3.8432753812701E+249</speed>
      </trkpt>
      <trkpt lat="51.7429313902" lon="39.0057065058">
        <ele>122.71</ele>
        <time>2013-08-13T16:52:42.000Z</time>
        <speed>3.8432753812701E+249</speed>
      </trkpt>
      <trkpt lat="51.742624864" lon="39.0058834478">
        <ele>122.71</ele>
        <time>2013-08-13T16:52:49.000Z</time>
        <speed>3.8432753812701E+249</speed>
      </trkpt>
      <trkpt lat="51.7423119675" lon="39.0060814284">
        <ele>122.71</ele>
        <time>2013-08-13T16:52:56.000Z</time>
        <speed>3.8432753812701E+249</speed>
      </trkpt>
      <trkpt lat="51.7415000126" lon="39.0065351408">
        <ele>122.71</ele>
        <time>2013-08-13T16:53:12.000Z</time>
        <speed>3.8432753812701E+249</speed>
      </trkpt>
      <trkpt lat="51.7406922486" lon="39.0070118196">
        <ele>122.71</ele>
        <time>2013-08-13T16:53:27.000Z</time>
        <speed>3.8432753812701E+249</speed>
      </trkpt>
      <trkpt lat="51.7397740111" lon="39.0076970402">
        <ele>120.3</ele>
        <time>2013-08-13T16:53:44.000Z</time>
        <speed>3.8432753812701E+249</speed>
      </trkpt>
      <trkpt lat="51.7388564441" lon="39.0084835142">
        <ele>118.38</ele>
        <time>2013-08-13T16:54:01.000Z</time>
        <speed>3.8432753812701E+249</speed>
      </trkpt>
      <trkpt lat="51.7383837048" lon="39.0089004301">
        <ele>117.42</ele>
        <time>2013-08-13T16:54:10.000Z</time>
        <speed>3.8432753812701E+249</speed>
      </trkpt>
      <trkpt lat="51.7382045835" lon="39.0092771128">
        <ele>116.46</ele>
        <time>2013-08-13T16:54:15.000Z</time>
        <speed>3.8432753812701E+249</speed>
      </trkpt>
      <trkpt lat="51.7381175794" lon="39.0095610078">
        <ele>115.5</ele>
        <time>2013-08-13T16:54:18.000Z</time>
        <speed>3.8432753812701E+249</speed>
      </trkpt>
      <trkpt lat="51.7380536254" lon="39.0100167319">
        <ele>114.05</ele>
        <time>2013-08-13T16:54:22.000Z</time>
        <speed>3.8432753812701E+249</speed>
      </trkpt>
      <trkpt lat="51.7381345946" lon="39.0106447879">
        <ele>111.65</ele>
        <time>2013-08-13T16:54:28.000Z</time>
        <speed>3.8432753812701E+249</speed>
      </trkpt>
      <trkpt lat="51.7381173279" lon="39.0111645497">
        <ele>107.32</ele>
        <time>2013-08-13T16:54:35.000Z</time>
        <speed>3.8432753812701E+249</speed>
      </trkpt>
      <trkpt lat="51.7380359396" lon="39.0111813974">
        <ele>106.84</ele>
        <time>2013-08-13T16:54:37.000Z</time>
        <speed>3.8432753812701E+249</speed>
      </trkpt>
      <trkpt lat="51.7378424015" lon="39.0110030305">
        <ele>106.36</ele>
        <time>2013-08-13T16:54:42.000Z</time>
        <speed>3.8432753812701E+249</speed>
      </trkpt>
      <trkpt lat="51.7377612647" lon="39.010773534">
        <ele>105.88</ele>
        <time>2013-08-13T16:54:45.000Z</time>
        <speed>3.8432753812701E+249</speed>
      </trkpt>
      <trkpt lat="51.7375528067" lon="39.0100979526">
        <ele>103.96</ele>
        <time>2013-08-13T16:54:53.000Z</time>
        <speed>3.8432753812701E+249</speed>
      </trkpt>
      <trkpt lat="51.7372452747" lon="39.0098987985">
        <ele>102.04</ele>
        <time>2013-08-13T16:55:00.000Z</time>
        <speed>3.8432753812701E+249</speed>
      </trkpt>
      <trkpt lat="51.7372121662" lon="39.0099250339">
        <ele>102.04</ele>
        <time>2013-08-13T16:55:01.000Z</time>
        <speed>3.8432753812701E+249</speed>
      </trkpt>
      <trkpt lat="51.7369239125" lon="39.0099688713">
        <ele>104.44</ele>
        <time>2013-08-13T16:55:11.000Z</time>
        <speed>3.8432753812701E+249</speed>
      </trkpt>
      <trkpt lat="51.7367344815" lon="39.0098231938">
        <ele>107.32</ele>
        <time>2013-08-13T16:55:19.000Z</time>
        <speed>3.8432753812701E+249</speed>
      </trkpt>
      <trkpt lat="51.7365441285" lon="39.0096755046">
        <ele>110.69</ele>
        <time>2013-08-13T16:55:27.000Z</time>
        <speed>3.8432753812701E+249</speed>
      </trkpt>
      <trkpt lat="51.7362829484" lon="39.0093263146">
        <ele>113.57</ele>
        <time>2013-08-13T16:55:40.000Z</time>
        <speed>3.8432753812701E+249</speed>
      </trkpt>
      <trkpt lat="51.7359573115" lon="39.0090919565">
        <ele>116.94</ele>
        <time>2013-08-13T16:55:54.000Z</time>
        <speed>3.8432753812701E+249</speed>
      </trkpt>
      <trkpt lat="51.7355977278" lon="39.0088612027">
        <ele>120.3</ele>
        <time>2013-08-13T16:56:09.000Z</time>
        <speed>3.8432753812701E+249</speed>
      </trkpt>
      <trkpt lat="51.7352547403" lon="39.0086661559">
        <ele>122.71</ele>
        <time>2013-08-13T16:56:23.000Z</time>
        <speed>3.8432753812701E+249</speed>
      </trkpt>
      <trkpt lat="51.7348759621" lon="39.0085568558">
        <ele>125.11</ele>
        <time>2013-08-13T16:56:37.000Z</time>
        <speed>3.8432753812701E+249</speed>
      </trkpt>
      <trkpt lat="51.7344862875" lon="39.0085438639">
        <ele>127.03</ele>
        <time>2013-08-13T16:56:49.000Z</time>
        <speed>3.8432753812701E+249</speed>
      </trkpt>
      <trkpt lat="51.7340502609" lon="39.0085581969">
        <ele>128.95</ele>
        <time>2013-08-13T16:57:02.000Z</time>
        <speed>3.8432753812701E+249</speed>
      </trkpt>
      <trkpt lat="51.7336867377" lon="39.0084624756">
        <ele>129.92</ele>
        <time>2013-08-13T16:57:13.000Z</time>
        <speed>3.8432753812701E+249</speed>
      </trkpt>
      <trkpt lat="51.7335090414" lon="39.008333059">
        <ele>130.88</ele>
        <time>2013-08-13T16:57:19.000Z</time>
        <speed>3.8432753812701E+249</speed>
      </trkpt>
      <trkpt lat="51.7334007472" lon="39.0086609591">
        <ele>130.88</ele>
        <time>2013-08-13T16:57:26.000Z</time>
        <speed>3.8432753812701E+249</speed>
      </trkpt>
      <trkpt lat="51.7333440017" lon="39.0088434331">
        <ele>130.88</ele>
        <time>2013-08-13T16:57:29.000Z</time>
        <speed>3.8432753812701E+249</speed>
      </trkpt>
      <trkpt lat="51.7331138346" lon="39.0094128996">
        <ele>130.4</ele>
        <time>2013-08-13T16:57:38.000Z</time>
        <speed>3.8432753812701E+249</speed>
      </trkpt>
      <trkpt lat="51.7330380622" lon="39.0095980559">
        <ele>130.88</ele>
        <time>2013-08-13T16:57:41.000Z</time>
        <speed>3.8432753812701E+249</speed>
      </trkpt>
      <trkpt lat="51.7327436898" lon="39.0100254491">
        <ele>131.36</ele>
        <time>2013-08-13T16:57:51.000Z</time>
        <speed>3.8432753812701E+249</speed>
      </trkpt>
      <trkpt lat="51.7325787339" lon="39.0101187397">
        <ele>131.36</ele>
        <time>2013-08-13T16:57:55.000Z</time>
        <speed>3.8432753812701E+249</speed>
      </trkpt>
      <trkpt lat="51.7320390232" lon="39.0105690155">
        <ele>132.32</ele>
        <time>2013-08-13T16:58:08.000Z</time>
        <speed>3.8432753812701E+249</speed>
      </trkpt>
      <trkpt lat="51.7316801939" lon="39.0107928962">
        <ele>132.32</ele>
        <time>2013-08-13T16:58:16.000Z</time>
        <speed>3.8432753812701E+249</speed>
      </trkpt>
      <trkpt lat="51.7311855778" lon="39.0107431076">
        <ele>133.28</ele>
        <time>2013-08-13T16:58:26.000Z</time>
        <speed>3.8432753812701E+249</speed>
      </trkpt>
      <trkpt lat="51.7304417677" lon="39.0108164493">
        <ele>134.72</ele>
        <time>2013-08-13T16:58:41.000Z</time>
        <speed>3.8432753812701E+249</speed>
      </trkpt>
      <trkpt lat="51.7296859715" lon="39.0108483844">
        <ele>135.68</ele>
        <time>2013-08-13T16:58:56.000Z</time>
        <speed>3.8432753812701E+249</speed>
      </trkpt>
      <trkpt lat="51.7288822308" lon="39.0106066503">
        <ele>136.64</ele>
        <time>2013-08-13T16:59:12.000Z</time>
        <speed>3.8432753812701E+249</speed>
      </trkpt>
      <trkpt lat="51.7282704357" lon="39.0104125254">
        <ele>137.61</ele>
        <time>2013-08-13T16:59:24.000Z</time>
        <speed>3.8432753812701E+249</speed>
      </trkpt>
      <trkpt lat="51.7279494926" lon="39.0102791693">
        <ele>137.61</ele>
        <time>2013-08-13T16:59:30.000Z</time>
        <speed>3.8432753812701E+249</speed>
      </trkpt>
      <trkpt lat="51.7278380133" lon="39.0102609806">
        <ele>137.61</ele>
        <time>2013-08-13T16:59:32.000Z</time>
        <speed>3.8432753812701E+249</speed>
      </trkpt>
      <trkpt lat="51.7268475238" lon="39.0102133714">
        <ele>138.09</ele>
        <time>2013-08-13T16:59:50.000Z</time>
        <speed>3.8432753812701E+249</speed>
      </trkpt>
      <trkpt lat="51.7261195555" lon="39.0097219404">
        <ele>138.09</ele>
        <time>2013-08-13T17:00:04.000Z</time>
        <speed>3.8432753812701E+249</speed>
      </trkpt>
      <trkpt lat="51.7259123549" lon="39.009637367">
        <ele>137.61</ele>
        <time>2013-08-13T17:00:08.000Z</time>
        <speed>3.8432753812701E+249</speed>
      </trkpt>
      <trkpt lat="51.7256521806" lon="39.0097772609">
        <ele>136.64</ele>
        <time>2013-08-13T17:00:13.000Z</time>
        <speed>3.8432753812701E+249</speed>
      </trkpt>
      <trkpt lat="51.7254233547" lon="39.0098482557">
        <ele>133.76</ele>
        <time>2013-08-13T17:00:17.000Z</time>
        <speed>3.8432753812701E+249</speed>
      </trkpt>
      <trkpt lat="51.7253344227" lon="39.0098866448">
        <ele>132.8</ele>
        <time>2013-08-13T17:00:19.000Z</time>
        <speed>3.8432753812701E+249</speed>
      </trkpt>
      <trkpt lat="51.7253115401" lon="39.0100932587">
        <ele>132.32</ele>
        <time>2013-08-13T17:00:24.000Z</time>
        <speed>3.8432753812701E+249</speed>
      </trkpt>
      <trkpt lat="51.7254763283" lon="39.0110518131">
        <ele>130.4</ele>
        <time>2013-08-13T17:00:39.000Z</time>
        <speed>3.8432753812701E+249</speed>
      </trkpt>
      <trkpt lat="51.7256895639" lon="39.0122401156">
        <ele>126.55</ele>
        <time>2013-08-13T17:00:49.000Z</time>
        <speed>3.8432753812701E+249</speed>
      </trkpt>
      <trkpt lat="51.7258331459" lon="39.0130669903">
        <ele>123.19</ele>
        <time>2013-08-13T17:00:54.000Z</time>
        <speed>3.8432753812701E+249</speed>
      </trkpt>
      <trkpt lat="51.725990558" lon="39.0139750857">
        <ele>119.82</ele>
        <time>2013-08-13T17:00:59.000Z</time>
        <speed>3.8432753812701E+249</speed>
      </trkpt>
      <trkpt lat="51.7261512391" lon="39.0149044711">
        <ele>116.94</ele>
        <time>2013-08-13T17:01:04.000Z</time>
        <speed>3.8432753812701E+249</speed>
      </trkpt>
      <trkpt lat="51.7262658197" lon="39.0155932959">
        <ele>115.01</ele>
        <time>2013-08-13T17:01:08.000Z</time>
        <speed>3.8432753812701E+249</speed>
      </trkpt>
      <trkpt lat="51.7265860923" lon="39.017397752">
        <ele>114.05</ele>
        <time>2013-08-13T17:01:21.000Z</time>
        <speed>3.8432753812701E+249</speed>
      </trkpt>
      <trkpt lat="51.7268449254" lon="39.0189139545">
        <ele>116.46</ele>
        <time>2013-08-13T17:01:36.000Z</time>
        <speed>3.8432753812701E+249</speed>
      </trkpt>
      <trkpt lat="51.7268645391" lon="39.0190037247">
        <ele>116.94</ele>
        <time>2013-08-13T17:01:37.000Z</time>
        <speed>3.8432753812701E+249</speed>
      </trkpt>
      <trkpt lat="51.7270392179" lon="39.0200064518">
        <ele>120.3</ele>
        <time>2013-08-13T17:01:49.000Z</time>
        <speed>3.8432753812701E+249</speed>
      </trkpt>
      <trkpt lat="51.7271439917" lon="39.020605674">
        <ele>122.71</ele>
        <time>2013-08-13T17:01:58.000Z</time>
        <speed>3.8432753812701E+249</speed>
      </trkpt>
      <trkpt lat="51.7272752523" lon="39.0214069001">
        <ele>126.55</ele>
        <time>2013-08-13T17:02:11.000Z</time>
        <speed>3.8432753812701E+249</speed>
      </trkpt>
      <trkpt lat="51.7273945268" lon="39.0220956411">
        <ele>129.43</ele>
        <time>2013-08-13T17:02:24.000Z</time>
        <speed>3.8432753812701E+249</speed>
      </trkpt>
      <trkpt lat="51.7275006417" lon="39.0226883255">
        <ele>132.32</ele>
        <time>2013-08-13T17:02:36.000Z</time>
        <speed>3.8432753812701E+249</speed>
      </trkpt>
      <trkpt lat="51.7275604885" lon="39.0230350848">
        <ele>137.13</ele>
        <time>2013-08-13T17:02:43.000Z</time>
        <speed>3.8432753812701E+249</speed>
      </trkpt>
      <trkpt lat="51.7276831158" lon="39.0237550065">
        <ele>137.61</ele>
        <time>2013-08-13T17:02:57.000Z</time>
        <speed>3.8432753812701E+249</speed>
      </trkpt>
      <trkpt lat="51.7277869675" lon="39.024342997">
        <ele>140.97</ele>
        <time>2013-08-13T17:03:09.000Z</time>
        <speed>3.8432753812701E+249</speed>
      </trkpt>
      <trkpt lat="51.7279185634" lon="39.0251603164">
        <ele>144.34</ele>
        <time>2013-08-13T17:03:25.000Z</time>
        <speed>3.8432753812701E+249</speed>
      </trkpt>
      <trkpt lat="51.7279005423" lon="39.0259054676">
        <ele>146.74</ele>
        <time>2013-08-13T17:03:39.000Z</time>
        <speed>3.8432753812701E+249</speed>
      </trkpt>
      <trkpt lat="51.7277530208" lon="39.0268228669">
        <ele>149.62</ele>
        <time>2013-08-13T17:03:56.000Z</time>
        <speed>3.8432753812701E+249</speed>
      </trkpt>
      <trkpt lat="51.7275475804" lon="39.0278884582">
        <ele>152.51</ele>
        <time>2013-08-13T17:04:14.000Z</time>
        <speed>3.8432753812701E+249</speed>
      </trkpt>
      <trkpt lat="51.7273900006" lon="39.028711142">
        <ele>155.87</ele>
        <time>2013-08-13T17:04:28.000Z</time>
        <speed>3.8432753812701E+249</speed>
      </trkpt>
      <trkpt lat="51.7272188421" lon="39.0295948461">
        <ele>158.75</ele>
        <time>2013-08-13T17:04:43.000Z</time>
        <speed>3.8432753812701E+249</speed>
      </trkpt>
      <trkpt lat="51.7269604281" lon="39.0309377946">
        <ele>161.16</ele>
        <time>2013-08-13T17:05:04.000Z</time>
        <speed>3.8432753812701E+249</speed>
      </trkpt>
      <trkpt lat="51.7265424225" lon="39.0325729363">
        <ele>162.6</ele>
        <time>2013-08-13T17:05:26.000Z</time>
        <speed>3.8432753812701E+249</speed>
      </trkpt>
      <trkpt lat="51.7261595372" lon="39.0340397693">
        <ele>162.6</ele>
        <time>2013-08-13T17:05:43.000Z</time>
        <speed>3.8432753812701E+249</speed>
      </trkpt>
      <trkpt lat="51.7260535061" lon="39.0343895461">
        <ele>162.6</ele>
        <time>2013-08-13T17:05:47.000Z</time>
        <speed>3.8432753812701E+249</speed>
      </trkpt>
      <trkpt lat="51.7257991992" lon="39.0347395744">
        <ele>162.12</ele>
        <time>2013-08-13T17:05:53.000Z</time>
        <speed>3.8432753812701E+249</speed>
      </trkpt>
      <trkpt lat="51.7256708723" lon="39.0348011814">
        <ele>162.12</ele>
        <time>2013-08-13T17:05:55.000Z</time>
        <speed>3.8432753812701E+249</speed>
      </trkpt>
      <trkpt lat="51.7254231032" lon="39.035367379">
        <ele>161.64</ele>
        <time>2013-08-13T17:06:02.000Z</time>
        <speed>3.8432753812701E+249</speed>
      </trkpt>
      <trkpt lat="51.7255790066" lon="39.0357798524">
        <ele>161.16</ele>
        <time>2013-08-13T17:06:07.000Z</time>
        <speed>3.8432753812701E+249</speed>
      </trkpt>
      <trkpt lat="51.7256649211" lon="39.0360207483">
        <ele>161.16</ele>
        <time>2013-08-13T17:06:10.000Z</time>
        <speed>3.8432753812701E+249</speed>
      </trkpt>
      <trkpt lat="51.7257291265" lon="39.036421068">
        <ele>160.68</ele>
        <time>2013-08-13T17:06:15.000Z</time>
        <speed>3.8432753812701E+249</speed>
      </trkpt>
      <trkpt lat="51.7257313058" lon="39.0365641471">
        <ele>160.68</ele>
        <time>2013-08-13T17:06:17.000Z</time>
        <speed>3.8432753812701E+249</speed>
      </trkpt>
      <trkpt lat="51.7257428728" lon="39.0367739461">
        <ele>160.2</ele>
        <time>2013-08-13T17:06:20.000Z</time>
        <speed>3.8432753812701E+249</speed>
      </trkpt>
      <trkpt lat="51.7257505842" lon="39.036985673">
        <ele>160.2</ele>
        <time>2013-08-13T17:06:23.000Z</time>
        <speed>3.8432753812701E+249</speed>
      </trkpt>
      <trkpt lat="51.7258246802" lon="39.0380837023">
        <ele>158.75</ele>
        <time>2013-08-13T17:06:33.000Z</time>
        <speed>3.8432753812701E+249</speed>
      </trkpt>
      <trkpt lat="51.72593683" lon="39.0398568101">
        <ele>153.95</ele>
        <time>2013-08-13T17:06:45.000Z</time>
        <speed>3.8432753812701E+249</speed>
      </trkpt>
      <trkpt lat="51.7260268517" lon="39.041168578">
        <ele>152.99</ele>
        <time>2013-08-13T17:06:53.000Z</time>
        <speed>3.8432753812701E+249</speed>
      </trkpt>
      <trkpt lat="51.7260896321" lon="39.042213466">
        <ele>150.58</ele>
        <time>2013-08-13T17:06:59.000Z</time>
        <speed>3.8432753812701E+249</speed>
      </trkpt>
      <trkpt lat="51.7262043804" lon="39.0435211267">
        <ele>147.22</ele>
        <time>2013-08-13T17:07:06.000Z</time>
        <speed>3.8432753812701E+249</speed>
      </trkpt>
      <trkpt lat="51.7263306119" lon="39.0445086826">
        <ele>143.85</ele>
        <time>2013-08-13T17:07:11.000Z</time>
        <speed>3.8432753812701E+249</speed>
      </trkpt>
      <trkpt lat="51.7264589388" lon="39.0453461185">
        <ele>140.97</ele>
        <time>2013-08-13T17:07:15.000Z</time>
        <speed>3.8432753812701E+249</speed>
      </trkpt>
      <trkpt lat="51.7265951447" lon="39.0461970493">
        <ele>137.61</ele>
        <time>2013-08-13T17:07:19.000Z</time>
        <speed>3.8432753812701E+249</speed>
      </trkpt>
      <trkpt lat="51.7267166823" lon="39.0470418613">
        <ele>133.76</ele>
        <time>2013-08-13T17:07:23.000Z</time>
        <speed>3.8432753812701E+249</speed>
      </trkpt>
      <trkpt lat="51.7267780378" lon="39.0478975698">
        <ele>129.92</ele>
        <time>2013-08-13T17:07:27.000Z</time>
        <speed>3.8432753812701E+249</speed>
      </trkpt>
      <trkpt lat="51.7268080451" lon="39.0487642586">
        <ele>126.07</ele>
        <time>2013-08-13T17:07:31.000Z</time>
        <speed>3.8432753812701E+249</speed>
      </trkpt>
      <trkpt lat="51.7267875094" lon="39.0496301092">
        <ele>122.22</ele>
        <time>2013-08-13T17:07:35.000Z</time>
        <speed>3.8432753812701E+249</speed>
      </trkpt>
      <trkpt lat="51.7266951408" lon="39.0502699837">
        <ele>118.38</ele>
        <time>2013-08-13T17:07:38.000Z</time>
        <speed>3.8432753812701E+249</speed>
      </trkpt>
      <trkpt lat="51.7265439313" lon="39.0511137061">
        <ele>115.01</ele>
        <time>2013-08-13T17:07:42.000Z</time>
        <speed>3.8432753812701E+249</speed>
      </trkpt>
      <trkpt lat="51.7263908777" lon="39.0519332886">
        <ele>112.13</ele>
        <time>2013-08-13T17:07:46.000Z</time>
        <speed>3.8432753812701E+249</speed>
      </trkpt>
      <trkpt lat="51.7262695078" lon="39.0525382943">
        <ele>108.77</ele>
        <time>2013-08-13T17:07:49.000Z</time>
        <speed>3.8432753812701E+249</speed>
      </trkpt>
      <trkpt lat="51.7259706091" lon="39.0538493078">
        <ele>104.92</ele>
        <time>2013-08-13T17:07:56.000Z</time>
        <speed>3.8432753812701E+249</speed>
      </trkpt>
      <trkpt lat="51.7259225808" lon="39.0540187899">
        <ele>104.92</ele>
        <time>2013-08-13T17:07:57.000Z</time>
        <speed>3.8432753812701E+249</speed>
      </trkpt>
      <trkpt lat="51.7251773458" lon="39.0566198621">
        <ele>103</ele>
        <time>2013-08-13T17:08:14.000Z</time>
        <speed>3.8432753812701E+249</speed>
      </trkpt>
      <trkpt lat="51.7245804705" lon="39.0587095544">
        <ele>103.48</ele>
        <time>2013-08-13T17:08:31.000Z</time>
        <speed>3.8432753812701E+249</speed>
      </trkpt>
      <trkpt lat="51.7242557555" lon="39.0598281194">
        <ele>105.4</ele>
        <time>2013-08-13T17:08:42.000Z</time>
        <speed>3.8432753812701E+249</speed>
      </trkpt>
      <trkpt lat="51.7238250934" lon="39.0612898394">
        <ele>106.84</ele>
        <time>2013-08-13T17:08:57.000Z</time>
        <speed>3.8432753812701E+249</speed>
      </trkpt>
      <trkpt lat="51.7234738078" lon="39.0624681674">
        <ele>106.84</ele>
        <time>2013-08-13T17:09:10.000Z</time>
        <speed>3.8432753812701E+249</speed>
      </trkpt>
      <trkpt lat="51.7229422275" lon="39.0642411076">
        <ele>106.84</ele>
        <time>2013-08-13T17:09:29.000Z</time>
        <speed>3.8432753812701E+249</speed>
      </trkpt>
      <trkpt lat="51.7226100527" lon="39.0653224569">
        <ele>104.92</ele>
        <time>2013-08-13T17:09:42.000Z</time>
        <speed>3.8432753812701E+249</speed>
      </trkpt>
      <trkpt lat="51.7224748526" lon="39.0657954477">
        <ele>104.44</ele>
        <time>2013-08-13T17:09:49.000Z</time>
        <speed>3.8432753812701E+249</speed>
      </trkpt>
      <trkpt lat="51.7221789714" lon="39.0658534504">
        <ele>102.52</ele>
        <time>2013-08-13T17:09:55.000Z</time>
        <speed>3.8432753812701E+249</speed>
      </trkpt>
      <trkpt lat="51.7220721021" lon="39.0656854771">
        <ele>102.04</ele>
        <time>2013-08-13T17:09:57.000Z</time>
        <speed>3.8432753812701E+249</speed>
      </trkpt>
      <trkpt lat="51.7217442021" lon="39.0649271663">
        <ele>98.67</ele>
        <time>2013-08-13T17:10:04.000Z</time>
        <speed>3.8432753812701E+249</speed>
      </trkpt>
      <trkpt lat="51.7217095848" lon="39.064799007">
        <ele>98.19</ele>
        <time>2013-08-13T17:10:05.000Z</time>
        <speed>3.8432753812701E+249</speed>
      </trkpt>
      <trkpt lat="51.7217342276" lon="39.0638869721">
        <ele>95.31</ele>
        <time>2013-08-13T17:10:12.000Z</time>
        <speed>3.8432753812701E+249</speed>
      </trkpt>
      <trkpt lat="51.7219902109" lon="39.0634009894">
        <ele>94.83</ele>
        <time>2013-08-13T17:10:20.000Z</time>
        <speed>3.8432753812701E+249</speed>
      </trkpt>
      <trkpt lat="51.7221243214" lon="39.0633431543">
        <ele>94.35</ele>
        <time>2013-08-13T17:10:23.000Z</time>
        <speed>3.8432753812701E+249</speed>
      </trkpt>
      <trkpt lat="51.7222063802" lon="39.063298814">
        <ele>94.83</ele>
        <time>2013-08-13T17:10:25.000Z</time>
        <speed>3.8432753812701E+249</speed>
      </trkpt>
      <trkpt lat="51.7224937119" lon="39.0632003266">
        <ele>94.83</ele>
        <time>2013-08-13T17:10:31.000Z</time>
        <speed>3.8432753812701E+249</speed>
      </trkpt>
      <trkpt lat="51.7230614182" lon="39.0634925198">
        <ele>95.31</ele>
        <time>2013-08-13T17:10:41.000Z</time>
        <speed>3.8432753812701E+249</speed>
      </trkpt>
      <trkpt lat="51.7232241109" lon="39.063593857">
        <ele>95.31</ele>
        <time>2013-08-13T17:10:44.000Z</time>
        <speed>3.8432753812701E+249</speed>
      </trkpt>
      <trkpt lat="51.7236150429" lon="39.0639479086">
        <ele>95.31</ele>
        <time>2013-08-13T17:10:52.000Z</time>
        <speed>3.8432753812701E+249</speed>
      </trkpt>
      <trkpt lat="51.7239003628" lon="39.0643949155">
        <ele>95.31</ele>
        <time>2013-08-13T17:10:59.000Z</time>
        <speed>3.8432753812701E+249</speed>
      </trkpt>
      <trkpt lat="51.7239612155" lon="39.0645617153">
        <ele>95.31</ele>
        <time>2013-08-13T17:11:01.000Z</time>
        <speed>3.8432753812701E+249</speed>
      </trkpt>
      <trkpt lat="51.7240338027" lon="39.0650146734">
        <ele>95.31</ele>
        <time>2013-08-13T17:11:06.000Z</time>
        <speed>3.8432753812701E+249</speed>
      </trkpt>
      <trkpt lat="51.7240133509" lon="39.0654494427">
        <ele>95.31</ele>
        <time>2013-08-13T17:11:11.000Z</time>
        <speed>3.8432753812701E+249</speed>
      </trkpt>
      <trkpt lat="51.7239863612" lon="39.0656099562">
        <ele>95.31</ele>
        <time>2013-08-13T17:11:13.000Z</time>
        <speed>3.8432753812701E+249</speed>
      </trkpt>
      <trkpt lat="51.7238582857" lon="39.0659696236">
        <ele>95.79</ele>
        <time>2013-08-13T17:11:18.000Z</time>
        <speed>3.8432753812701E+249</speed>
      </trkpt>
      <trkpt lat="51.7237175535" lon="39.0662007965">
        <ele>96.75</ele>
        <time>2013-08-13T17:11:22.000Z</time>
        <speed>3.8432753812701E+249</speed>
      </trkpt>
      <trkpt lat="51.7236509174" lon="39.0664316341">
        <ele>97.71</ele>
        <time>2013-08-13T17:11:26.000Z</time>
        <speed>3.8432753812701E+249</speed>
      </trkpt>
      <trkpt lat="51.7238492332" lon="39.066846706">
        <ele>97.23</ele>
        <time>2013-08-13T17:11:37.000Z</time>
        <speed>3.8432753812701E+249</speed>
      </trkpt>
      <trkpt lat="51.7240224034" lon="39.0670524817">
        <ele>96.75</ele>
        <time>2013-08-13T17:11:42.000Z</time>
        <speed>3.8432753812701E+249</speed>
      </trkpt>
      <trkpt lat="51.7244902812" lon="39.0677032527">
        <ele>96.27</ele>
        <time>2013-08-13T17:11:55.000Z</time>
        <speed>3.8432753812701E+249</speed>
      </trkpt>
      <trkpt lat="51.7245265748" lon="39.0677433182">
        <ele>96.27</ele>
        <time>2013-08-13T17:11:56.000Z</time>
        <speed>3.8432753812701E+249</speed>
      </trkpt>
      <trkpt lat="51.7246999964" lon="39.0680052526">
        <ele>96.27</ele>
        <time>2013-08-13T17:12:02.000Z</time>
        <speed>3.8432753812701E+249</speed>
      </trkpt>
      <trkpt lat="51.7246969789" lon="39.0683721285">
        <ele>95.79</ele>
        <time>2013-08-13T17:12:08.000Z</time>
        <speed>3.8432753812701E+249</speed>
      </trkpt>
      <trkpt lat="51.7247854918" lon="39.0686073247">
        <ele>95.31</ele>
        <time>2013-08-13T17:12:12.000Z</time>
        <speed>3.8432753812701E+249</speed>
      </trkpt>
      <trkpt lat="51.725258315" lon="39.0692148451">
        <ele>95.79</ele>
        <time>2013-08-13T17:12:23.000Z</time>
        <speed>3.8432753812701E+249</speed>
      </trkpt>
      <trkpt lat="51.725626532" lon="39.0694835689">
        <ele>95.79</ele>
        <time>2013-08-13T17:12:30.000Z</time>
        <speed>3.8432753812701E+249</speed>
      </trkpt>
      <trkpt lat="51.7257813457" lon="39.06960628">
        <ele>95.79</ele>
        <time>2013-08-13T17:12:33.000Z</time>
        <speed>3.8432753812701E+249</speed>
      </trkpt>
      <trkpt lat="51.726564886" lon="39.070042558">
        <ele>96.27</ele>
        <time>2013-08-13T17:12:47.000Z</time>
        <speed>3.8432753812701E+249</speed>
      </trkpt>
      <trkpt lat="51.7274000589" lon="39.0698377043">
        <ele>95.79</ele>
        <time>2013-08-13T17:13:01.000Z</time>
        <speed>3.8432753812701E+249</speed>
      </trkpt>
      <trkpt lat="51.7283186316" lon="39.0694530588">
        <ele>95.31</ele>
        <time>2013-08-13T17:13:17.000Z</time>
        <speed>3.8432753812701E+249</speed>
      </trkpt>
      <trkpt lat="51.7285032012" lon="39.0694243088">
        <ele>95.31</ele>
        <time>2013-08-13T17:13:20.000Z</time>
        <speed>3.8432753812701E+249</speed>
      </trkpt>
      <trkpt lat="51.7295471672" lon="39.0694836527">
        <ele>95.79</ele>
        <time>2013-08-13T17:13:37.000Z</time>
        <speed>3.8432753812701E+249</speed>
      </trkpt>
      <trkpt lat="51.729673231" lon="39.0695042722">
        <ele>95.79</ele>
        <time>2013-08-13T17:13:39.000Z</time>
        <speed>3.8432753812701E+249</speed>
      </trkpt>
      <trkpt lat="51.730567161" lon="39.0699608345">
        <ele>95.79</ele>
        <time>2013-08-13T17:13:54.000Z</time>
        <speed>3.8432753812701E+249</speed>
      </trkpt>
      <trkpt lat="51.7306265887" lon="39.0699924342">
        <ele>95.79</ele>
        <time>2013-08-13T17:13:55.000Z</time>
        <speed>3.8432753812701E+249</speed>
      </trkpt>
      <trkpt lat="51.731142411" lon="39.0704898164">
        <ele>95.79</ele>
        <time>2013-08-13T17:14:07.000Z</time>
        <speed>3.8432753812701E+249</speed>
      </trkpt>
      <trkpt lat="51.7313748412" lon="39.070727611">
        <ele>95.31</ele>
        <time>2013-08-13T17:14:13.000Z</time>
        <speed>3.8432753812701E+249</speed>
      </trkpt>
      <trkpt lat="51.7321970221" lon="39.071418196">
        <ele>95.79</ele>
        <time>2013-08-13T17:14:29.000Z</time>
        <speed>3.8432753812701E+249</speed>
      </trkpt>
      <trkpt lat="51.7329469509" lon="39.0721485112">
        <ele>95.79</ele>
        <time>2013-08-13T17:14:43.000Z</time>
        <speed>3.8432753812701E+249</speed>
      </trkpt>
      <trkpt lat="51.7337629292" lon="39.0730026271">
        <ele>95.79</ele>
        <time>2013-08-13T17:14:58.000Z</time>
        <speed>3.8432753812701E+249</speed>
      </trkpt>
      <trkpt lat="51.7341894843" lon="39.0734824073">
        <ele>95.79</ele>
        <time>2013-08-13T17:15:06.000Z</time>
        <speed>3.8432753812701E+249</speed>
      </trkpt>
      <trkpt lat="51.7348391656" lon="39.0742806997">
        <ele>95.79</ele>
        <time>2013-08-13T17:15:19.000Z</time>
        <speed>3.8432753812701E+249</speed>
      </trkpt>
      <trkpt lat="51.7352446821" lon="39.0749915689">
        <ele>95.79</ele>
        <time>2013-08-13T17:15:29.000Z</time>
        <speed>3.8432753812701E+249</speed>
      </trkpt>
      <trkpt lat="51.7356340215" lon="39.0754213091">
        <ele>90.98</ele>
        <time>2013-08-13T17:15:38.000Z</time>
        <speed>3.8432753812701E+249</speed>
      </trkpt>
      <trkpt lat="51.7356756795" lon="39.0754626319">
        <ele>95.79</ele>
        <time>2013-08-13T17:15:39.000Z</time>
        <speed>3.8432753812701E+249</speed>
      </trkpt>
      <trkpt lat="51.7359620053" lon="39.0757979918">
        <ele>95.79</ele>
        <time>2013-08-13T17:15:47.000Z</time>
        <speed>3.8432753812701E+249</speed>
      </trkpt>
      <trkpt lat="51.7360545415" lon="39.0758938808">
        <ele>95.79</ele>
        <time>2013-08-13T17:15:49.000Z</time>
        <speed>3.8432753812701E+249</speed>
      </trkpt>
      <trkpt lat="51.7364444677" lon="39.0763895027">
        <ele>95.79</ele>
        <time>2013-08-13T17:15:58.000Z</time>
        <speed>3.8432753812701E+249</speed>
      </trkpt>
      <trkpt lat="51.7368784826" lon="39.0769910719">
        <ele>95.79</ele>
        <time>2013-08-13T17:16:06.000Z</time>
        <speed>3.8432753812701E+249</speed>
      </trkpt>
      <trkpt lat="51.7369781435" lon="39.0771370009">
        <ele>95.79</ele>
        <time>2013-08-13T17:16:08.000Z</time>
        <speed>3.8432753812701E+249</speed>
      </trkpt>
      <trkpt lat="51.737081157" lon="39.0772679262">
        <ele>95.79</ele>
        <time>2013-08-13T17:16:10.000Z</time>
        <speed>3.8432753812701E+249</speed>
      </trkpt>
      <trkpt lat="51.737893112" lon="39.0784380399">
        <ele>95.79</ele>
        <time>2013-08-13T17:16:26.000Z</time>
        <speed>3.8432753812701E+249</speed>
      </trkpt>
      <trkpt lat="51.7386597209" lon="39.0795698483">
        <ele>95.79</ele>
        <time>2013-08-13T17:16:42.000Z</time>
        <speed>3.8432753812701E+249</speed>
      </trkpt>
      <trkpt lat="51.7392440233" lon="39.0807208512">
        <ele>95.79</ele>
        <time>2013-08-13T17:16:57.000Z</time>
        <speed>3.8432753812701E+249</speed>
      </trkpt>
      <trkpt lat="51.7396905273" lon="39.0816872008">
        <ele>95.79</ele>
        <time>2013-08-13T17:17:09.000Z</time>
        <speed>3.8432753812701E+249</speed>
      </trkpt>
      <trkpt lat="51.740139043" lon="39.0826316737">
        <ele>95.79</ele>
        <time>2013-08-13T17:17:21.000Z</time>
        <speed>3.8432753812701E+249</speed>
      </trkpt>
      <trkpt lat="51.7402785178" lon="39.0829603281">
        <ele>95.79</ele>
        <time>2013-08-13T17:17:25.000Z</time>
        <speed>3.8432753812701E+249</speed>
      </trkpt>
      <trkpt lat="51.7403361853" lon="39.0831430536">
        <ele>95.79</ele>
        <time>2013-08-13T17:17:27.000Z</time>
        <speed>3.8432753812701E+249</speed>
      </trkpt>
      <trkpt lat="51.7404275481" lon="39.0836112667">
        <ele>95.79</ele>
        <time>2013-08-13T17:17:32.000Z</time>
        <speed>3.8432753812701E+249</speed>
      </trkpt>
      <trkpt lat="51.7405120376" lon="39.0851953626">
        <ele>94.35</ele>
        <time>2013-08-13T17:17:47.000Z</time>
        <speed>3.8432753812701E+249</speed>
      </trkpt>
      <trkpt lat="51.7405939288" lon="39.0866604354">
        <ele>94.35</ele>
        <time>2013-08-13T17:18:00.000Z</time>
        <speed>3.8432753812701E+249</speed>
      </trkpt>
      <trkpt lat="51.7407451384" lon="39.0877212491">
        <ele>94.35</ele>
        <time>2013-08-13T17:18:10.000Z</time>
        <speed>3.8432753812701E+249</speed>
      </trkpt>
      <trkpt lat="51.7409362458" lon="39.0891238768">
        <ele>94.35</ele>
        <time>2013-08-13T17:18:24.000Z</time>
        <speed>3.8432753812701E+249</speed>
      </trkpt>
      <trkpt lat="51.7409494054" lon="39.0892123058">
        <ele>94.35</ele>
        <time>2013-08-13T17:18:25.000Z</time>
        <speed>3.8432753812701E+249</speed>
      </trkpt>
      <trkpt lat="51.7410285305" lon="39.0895902459">
        <ele>94.83</ele>
        <time>2013-08-13T17:18:29.000Z</time>
        <speed>3.8432753812701E+249</speed>
      </trkpt>
      <trkpt lat="51.7411197256" lon="39.0899195708">
        <ele>94.83</ele>
        <time>2013-08-13T17:18:33.000Z</time>
        <speed>3.8432753812701E+249</speed>
      </trkpt>
      <trkpt lat="51.741349306" lon="39.090458611">
        <ele>94.83</ele>
        <time>2013-08-13T17:18:42.000Z</time>
        <speed>3.8432753812701E+249</speed>
      </trkpt>
      <trkpt lat="51.7413916346" lon="39.0906510595">
        <ele>94.83</ele>
        <time>2013-08-13T17:19:43.000Z</time>
        <speed>3.8432753812701E+249</speed>
      </trkpt>
      <trkpt lat="51.7416017689" lon="39.0911350306">
        <ele>94.35</ele>
        <time>2013-08-13T17:19:50.000Z</time>
        <speed>3.8432753812701E+249</speed>
      </trkpt>
      <trkpt lat="51.7416666448" lon="39.0912864078">
        <ele>94.35</ele>
        <time>2013-08-13T17:19:52.000Z</time>
        <speed>3.8432753812701E+249</speed>
      </trkpt>
      <trkpt lat="51.7419512104" lon="39.0918433852">
        <ele>94.83</ele>
        <time>2013-08-13T17:20:00.000Z</time>
        <speed>3.8432753812701E+249</speed>
      </trkpt>
      <trkpt lat="51.7421632726" lon="39.0921353269">
        <ele>94.35</ele>
        <time>2013-08-13T17:20:05.000Z</time>
        <speed>3.8432753812701E+249</speed>
      </trkpt>
      <trkpt lat="51.7429142911" lon="39.0928608645">
        <ele>94.35</ele>
        <time>2013-08-13T17:20:20.000Z</time>
        <speed>3.8432753812701E+249</speed>
      </trkpt>
      <trkpt lat="51.7432429455" lon="39.0931483638">
        <ele>94.35</ele>
        <time>2013-08-13T17:20:26.000Z</time>
        <speed>3.8432753812701E+249</speed>
      </trkpt>
      <trkpt lat="51.7440935411" lon="39.0937052574">
        <ele>94.83</ele>
        <time>2013-08-13T17:20:41.000Z</time>
        <speed>3.8432753812701E+249</speed>
      </trkpt>
      <trkpt lat="51.7441487778" lon="39.0937385336">
        <ele>94.83</ele>
        <time>2013-08-13T17:20:42.000Z</time>
        <speed>3.8432753812701E+249</speed>
      </trkpt>
      <trkpt lat="51.7442600895" lon="39.0937879868">
        <ele>94.83</ele>
        <time>2013-08-13T17:20:44.000Z</time>
        <speed>3.8432753812701E+249</speed>
      </trkpt>
      <trkpt lat="51.7448936775" lon="39.0941879712">
        <ele>95.31</ele>
        <time>2013-08-13T17:20:56.000Z</time>
        <speed>3.8432753812701E+249</speed>
      </trkpt>
      <trkpt lat="51.7450420372" lon="39.094289057">
        <ele>95.31</ele>
        <time>2013-08-13T17:20:59.000Z</time>
        <speed>3.8432753812701E+249</speed>
      </trkpt>
      <trkpt lat="51.7451918218" lon="39.0948424302">
        <ele>94.83</ele>
        <time>2013-08-13T17:21:07.000Z</time>
        <speed>3.8432753812701E+249</speed>
      </trkpt>
      <trkpt lat="51.7451778241" lon="39.0949415043">
        <ele>94.83</ele>
        <time>2013-08-13T17:21:08.000Z</time>
        <speed>3.8432753812701E+249</speed>
      </trkpt>
      <trkpt lat="51.7451061588" lon="39.0953719988">
        <ele>95.31</ele>
        <time>2013-08-13T17:21:12.000Z</time>
        <speed>3.8432753812701E+249</speed>
      </trkpt>
      <trkpt lat="51.7449253611" lon="39.0966529213">
        <ele>95.31</ele>
        <time>2013-08-13T17:21:25.000Z</time>
        <speed>3.8432753812701E+249</speed>
      </trkpt>
      <trkpt lat="51.7446844652" lon="39.0983671043">
        <ele>95.31</ele>
        <time>2013-08-13T17:21:42.000Z</time>
        <speed>3.8432753812701E+249</speed>
      </trkpt>
      <trkpt lat="51.7444108799" lon="39.1001893301">
        <ele>94.83</ele>
        <time>2013-08-13T17:22:00.000Z</time>
        <speed>3.8432753812701E+249</speed>
      </trkpt>
      <trkpt lat="51.7442380451" lon="39.1013902891">
        <ele>94.83</ele>
        <time>2013-08-13T17:22:12.000Z</time>
        <speed>3.8432753812701E+249</speed>
      </trkpt>
      <trkpt lat="51.7439626157" lon="39.1032301169">
        <ele>93.87</ele>
        <time>2013-08-13T17:22:29.000Z</time>
        <speed>3.8432753812701E+249</speed>
      </trkpt>
      <trkpt lat="51.7438093945" lon="39.1042060219">
        <ele>94.83</ele>
        <time>2013-08-13T17:22:38.000Z</time>
        <speed>3.8432753812701E+249</speed>
      </trkpt>
      <trkpt lat="51.7437616177" lon="39.1045278031">
        <ele>94.83</ele>
        <time>2013-08-13T17:22:41.000Z</time>
        <speed>3.8432753812701E+249</speed>
      </trkpt>
      <trkpt lat="51.7435092386" lon="39.1061681416">
        <ele>94.83</ele>
        <time>2013-08-13T17:22:56.000Z</time>
        <speed>3.8432753812701E+249</speed>
      </trkpt>
      <trkpt lat="51.743268678" lon="39.1078252438">
        <ele>94.35</ele>
        <time>2013-08-13T17:23:11.000Z</time>
        <speed>3.8432753812701E+249</speed>
      </trkpt>
      <trkpt lat="51.7430258542" lon="39.1094491538">
        <ele>94.35</ele>
        <time>2013-08-13T17:23:26.000Z</time>
        <speed>3.8432753812701E+249</speed>
      </trkpt>
      <trkpt lat="51.7430109344" lon="39.1095524188">
        <ele>94.83</ele>
        <time>2013-08-13T17:23:27.000Z</time>
        <speed>3.8432753812701E+249</speed>
      </trkpt>
      <trkpt lat="51.7429510877" lon="39.1098484676">
        <ele>94.83</ele>
        <time>2013-08-13T17:23:30.000Z</time>
        <speed>3.8432753812701E+249</speed>
      </trkpt>
      <trkpt lat="51.7426711321" lon="39.1118157003">
        <ele>94.35</ele>
        <time>2013-08-13T17:23:49.000Z</time>
        <speed>3.8432753812701E+249</speed>
      </trkpt>
      <trkpt lat="51.7426439747" lon="39.1120223142">
        <ele>94.35</ele>
        <time>2013-08-13T17:23:51.000Z</time>
        <speed>3.8432753812701E+249</speed>
      </trkpt>
      <trkpt lat="51.7426062562" lon="39.1123353783">
        <ele>94.35</ele>
        <time>2013-08-13T17:23:54.000Z</time>
        <speed>3.8432753812701E+249</speed>
      </trkpt>
      <trkpt lat="51.7425232753" lon="39.1128374543">
        <ele>94.35</ele>
        <time>2013-08-13T17:23:59.000Z</time>
        <speed>3.8432753812701E+249</speed>
      </trkpt>
      <trkpt lat="51.7424848862" lon="39.1130340099">
        <ele>94.83</ele>
        <time>2013-08-13T17:24:01.000Z</time>
        <speed>3.8432753812701E+249</speed>
      </trkpt>
      <trkpt lat="51.7422095407" lon="39.1148869134">
        <ele>94.83</ele>
        <time>2013-08-13T17:24:19.000Z</time>
        <speed>3.8432753812701E+249</speed>
      </trkpt>
      <trkpt lat="51.7419502046" lon="39.1166518908">
        <ele>94.83</ele>
        <time>2013-08-13T17:24:36.000Z</time>
        <speed>3.8432753812701E+249</speed>
      </trkpt>
      <trkpt lat="51.7418678105" lon="39.1171833873">
        <ele>94.35</ele>
        <time>2013-08-13T17:24:41.000Z</time>
        <speed>3.8432753812701E+249</speed>
      </trkpt>
      <trkpt lat="51.7416953947" lon="39.1182818357">
        <ele>94.35</ele>
        <time>2013-08-13T17:24:51.000Z</time>
        <speed>3.8432753812701E+249</speed>
      </trkpt>
      <trkpt lat="51.7414687481" lon="39.1199357528">
        <ele>94.83</ele>
        <time>2013-08-13T17:25:07.000Z</time>
        <speed>3.8432753812701E+249</speed>
      </trkpt>
      <trkpt lat="51.741270097" lon="39.121340476">
        <ele>94.35</ele>
        <time>2013-08-13T17:25:21.000Z</time>
        <speed>3.8432753812701E+249</speed>
      </trkpt>
      <trkpt lat="51.7411563545" lon="39.1221576277">
        <ele>94.35</ele>
        <time>2013-08-13T17:25:29.000Z</time>
        <speed>3.8432753812701E+249</speed>
      </trkpt>
      <trkpt lat="51.7409445439" lon="39.1236638557">
        <ele>94.83</ele>
        <time>2013-08-13T17:25:44.000Z</time>
        <speed>3.8432753812701E+249</speed>
      </trkpt>
      <trkpt lat="51.7406578828" lon="39.1256019194">
        <ele>94.83</ele>
        <time>2013-08-13T17:26:03.000Z</time>
        <speed>3.8432753812701E+249</speed>
      </trkpt>
      <trkpt lat="51.740407683" lon="39.1273637116">
        <ele>94.83</ele>
        <time>2013-08-13T17:26:20.000Z</time>
        <speed>3.8432753812701E+249</speed>
      </trkpt>
      <trkpt lat="51.7401571479" lon="39.129162468">
        <ele>94.35</ele>
        <time>2013-08-13T17:26:37.000Z</time>
        <speed>3.8432753812701E+249</speed>
      </trkpt>
      <trkpt lat="51.7398969736" lon="39.1307738889">
        <ele>94.83</ele>
        <time>2013-08-13T17:26:53.000Z</time>
        <speed>3.8432753812701E+249</speed>
      </trkpt>
      <trkpt lat="51.7398279067" lon="39.131223578">
        <ele>94.83</ele>
        <time>2013-08-13T17:26:58.000Z</time>
        <speed>3.8432753812701E+249</speed>
      </trkpt>
      <trkpt lat="51.7397641204" lon="39.1315892804">
        <ele>94.83</ele>
        <time>2013-08-13T17:27:02.000Z</time>
        <speed>3.8432753812701E+249</speed>
      </trkpt>
      <trkpt lat="51.7396010086" lon="39.1327288002">
        <ele>94.83</ele>
        <time>2013-08-13T17:27:14.000Z</time>
        <speed>3.8432753812701E+249</speed>
      </trkpt>
      <trkpt lat="51.7394243181" lon="39.1340196971">
        <ele>95.31</ele>
        <time>2013-08-13T17:27:28.000Z</time>
        <speed>3.8432753812701E+249</speed>
      </trkpt>
      <trkpt lat="51.7393682431" lon="39.134395374">
        <ele>95.31</ele>
        <time>2013-08-13T17:27:32.000Z</time>
        <speed>3.8432753812701E+249</speed>
      </trkpt>
      <trkpt lat="51.7392677441" lon="39.1347697098">
        <ele>94.83</ele>
        <time>2013-08-13T17:27:36.000Z</time>
        <speed>3.8432753812701E+249</speed>
      </trkpt>
      <trkpt lat="51.7388744652" lon="39.1351772379">
        <ele>94.35</ele>
        <time>2013-08-13T17:27:44.000Z</time>
        <speed>3.8432753812701E+249</speed>
      </trkpt>
      <trkpt lat="51.7386872973" lon="39.1351467278">
        <ele>94.35</ele>
        <time>2013-08-13T17:27:47.000Z</time>
        <speed>3.8432753812701E+249</speed>
      </trkpt>
      <trkpt lat="51.7382736504" lon="39.1349800117">
        <ele>94.35</ele>
        <time>2013-08-13T17:27:55.000Z</time>
        <speed>3.8432753812701E+249</speed>
      </trkpt>
      <trkpt lat="51.7381740734" lon="39.1349122021">
        <ele>93.87</ele>
        <time>2013-08-13T17:27:57.000Z</time>
        <speed>3.8432753812701E+249</speed>
      </trkpt>
      <trkpt lat="51.7376755178" lon="39.1346515249">
        <ele>94.35</ele>
        <time>2013-08-13T17:28:06.000Z</time>
        <speed>3.8432753812701E+249</speed>
      </trkpt>
      <trkpt lat="51.7375185248" lon="39.1345490981">
        <ele>94.35</ele>
        <time>2013-08-13T17:28:09.000Z</time>
        <speed>3.8432753812701E+249</speed>
      </trkpt>
      <trkpt lat="51.736767171" lon="39.1341590043">
        <ele>94.35</ele>
        <time>2013-08-13T17:28:23.000Z</time>
        <speed>3.8432753812701E+249</speed>
      </trkpt>
      <trkpt lat="51.7361915018" lon="39.1338537354">
        <ele>94.35</ele>
        <time>2013-08-13T17:28:34.000Z</time>
        <speed>3.8432753812701E+249</speed>
      </trkpt>
      <trkpt lat="51.7360462435" lon="39.1338141728">
        <ele>94.35</ele>
        <time>2013-08-13T17:28:37.000Z</time>
        <speed>3.8432753812701E+249</speed>
      </trkpt>
      <trkpt lat="51.7358907592" lon="39.1338857543">
        <ele>94.35</ele>
        <time>2013-08-13T17:28:41.000Z</time>
        <speed>3.8432753812701E+249</speed>
      </trkpt>
      <trkpt lat="51.73565045" lon="39.1345770936">
        <ele>94.83</ele>
        <time>2013-08-13T17:28:54.000Z</time>
        <speed>3.8432753812701E+249</speed>
      </trkpt>
      <trkpt lat="51.735575432" lon="39.1350062471">
        <ele>95.31</ele>
        <time>2013-08-13T17:29:06.000Z</time>
        <speed>3.8432753812701E+249</speed>
      </trkpt>
      <trkpt lat="51.7355305888" lon="39.1352510825">
        <ele>95.79</ele>
        <time>2013-08-13T17:29:21.000Z</time>
        <speed>3.8432753812701E+249</speed>
      </trkpt>
      <trkpt lat="51.7355326843" lon="39.1352511663">
        <ele>95.79</ele>
        <time>2013-08-13T17:29:23.000Z</time>
        <speed>3.8432753812701E+249</speed>
      </trkpt>
      <trkpt lat="51.7355299182" lon="39.1353473067">
        <ele>95.79</ele>
        <time>2013-08-13T17:29:27.000Z</time>
        <speed>3.8432753812701E+249</speed>
      </trkpt>
      <trkpt lat="51.7354298383" lon="39.135937728">
        <ele>96.75</ele>
        <time>2013-08-13T17:29:39.000Z</time>
        <speed>3.8432753812701E+249</speed>
      </trkpt>
      <trkpt lat="51.7351853382" lon="39.1364323441">
        <ele>98.19</ele>
        <time>2013-08-13T17:29:53.000Z</time>
        <speed>3.8432753812701E+249</speed>
      </trkpt>
      <trkpt lat="51.7349885311" lon="39.1369962785">
        <ele>100.6</ele>
        <time>2013-08-13T17:30:06.000Z</time>
        <speed>3.8432753812701E+249</speed>
      </trkpt>
      <trkpt lat="51.7347102519" lon="39.1375211533">
        <ele>103.96</ele>
        <time>2013-08-13T17:30:20.000Z</time>
        <speed>3.8432753812701E+249</speed>
      </trkpt>
      <trkpt lat="51.7344652489" lon="39.1378466226">
        <ele>105.4</ele>
        <time>2013-08-13T17:30:31.000Z</time>
        <speed>3.8432753812701E+249</speed>
      </trkpt>
      <trkpt lat="51.7342425417" lon="39.1381434258">
        <ele>107.81</ele>
        <time>2013-08-13T17:30:42.000Z</time>
        <speed>3.8432753812701E+249</speed>
      </trkpt>
      <trkpt lat="51.733985804" lon="39.1385957133">
        <ele>110.69</ele>
        <time>2013-08-13T17:30:56.000Z</time>
        <speed>3.8432753812701E+249</speed>
      </trkpt>
      <trkpt lat="51.7337642703" lon="39.1388123017">
        <ele>113.09</ele>
        <time>2013-08-13T17:31:08.000Z</time>
        <speed>3.8432753812701E+249</speed>
      </trkpt>
      <trkpt lat="51.7335283197" lon="39.1389276367">
        <ele>115.5</ele>
        <time>2013-08-13T17:31:17.000Z</time>
        <speed>3.8432753812701E+249</speed>
      </trkpt>
      <trkpt lat="51.7333296686" lon="39.1390458215">
        <ele>117.42</ele>
        <time>2013-08-13T17:31:25.000Z</time>
        <speed>3.8432753812701E+249</speed>
      </trkpt>
      <trkpt lat="51.7328829132" lon="39.1389459092">
        <ele>119.34</ele>
        <time>2013-08-13T17:31:39.000Z</time>
        <speed>3.8432753812701E+249</speed>
      </trkpt>
      <trkpt lat="51.7325260118" lon="39.1388081945">
        <ele>120.3</ele>
        <time>2013-08-13T17:31:51.000Z</time>
        <speed>3.8432753812701E+249</speed>
      </trkpt>
      <trkpt lat="51.7323687673" lon="39.1391494218">
        <ele>121.26</ele>
        <time>2013-08-13T17:32:00.000Z</time>
        <speed>3.8432753812701E+249</speed>
      </trkpt>
      <trkpt lat="51.7323344853" lon="39.139348492">
        <ele>121.26</ele>
        <time>2013-08-13T17:32:03.000Z</time>
        <speed>3.8432753812701E+249</speed>
      </trkpt>
      <trkpt lat="51.7322488222" lon="39.140357757">
        <ele>122.71</ele>
        <time>2013-08-13T17:32:17.000Z</time>
        <speed>3.8432753812701E+249</speed>
      </trkpt>
      <trkpt lat="51.7322388478" lon="39.1405903548">
        <ele>123.19</ele>
        <time>2013-08-13T17:32:20.000Z</time>
        <speed>3.8432753812701E+249</speed>
      </trkpt>
      <trkpt lat="51.7321704514" lon="39.141905224">
        <ele>125.11</ele>
        <time>2013-08-13T17:32:37.000Z</time>
        <speed>3.8432753812701E+249</speed>
      </trkpt>
      <trkpt lat="51.7320894822" lon="39.1431833804">
        <ele>127.51</ele>
        <time>2013-08-13T17:32:54.000Z</time>
        <speed>3.8432753812701E+249</speed>
      </trkpt>
      <trkpt lat="51.7320765741" lon="39.1438473109">
        <ele>127.99</ele>
        <time>2013-08-13T17:33:03.000Z</time>
        <speed>3.8432753812701E+249</speed>
      </trkpt>
      <trkpt lat="51.7321520112" lon="39.1441839281">
        <ele>128.47</ele>
        <time>2013-08-13T17:33:08.000Z</time>
        <speed>3.8432753812701E+249</speed>
      </trkpt>
      <trkpt lat="51.7320671864" lon="39.1444187891">
        <ele>128.95</ele>
        <time>2013-08-13T17:33:13.000Z</time>
        <speed>3.8432753812701E+249</speed>
      </trkpt>
      <trkpt lat="51.7319620773" lon="39.1446072143">
        <ele>129.43</ele>
        <time>2013-08-13T17:33:17.000Z</time>
        <speed>3.8432753812701E+249</speed>
      </trkpt>
      <trkpt lat="51.7317039147" lon="39.1450312547">
        <ele>130.4</ele>
        <time>2013-08-13T17:33:26.000Z</time>
        <speed>3.8432753812701E+249</speed>
      </trkpt>
      <trkpt lat="51.7313256394" lon="39.1457137931">
        <ele>131.84</ele>
        <time>2013-08-13T17:33:40.000Z</time>
        <speed>3.8432753812701E+249</speed>
      </trkpt>
      <trkpt lat="51.7311086319" lon="39.1460271087">
        <ele>132.8</ele>
        <time>2013-08-13T17:33:47.000Z</time>
        <speed>3.8432753812701E+249</speed>
      </trkpt>
      <trkpt lat="51.7307738587" lon="39.1465367284">
        <ele>133.76</ele>
        <time>2013-08-13T17:33:58.000Z</time>
        <speed>3.8432753812701E+249</speed>
      </trkpt>
      <trkpt lat="51.7306986731" lon="39.1467500478">
        <ele>134.24</ele>
        <time>2013-08-13T17:34:02.000Z</time>
        <speed>3.8432753812701E+249</speed>
      </trkpt>
      <trkpt lat="51.7304954119" lon="39.1472967155">
        <ele>135.2</ele>
        <time>2013-08-13T17:34:13.000Z</time>
        <speed>3.8432753812701E+249</speed>
      </trkpt>
      <trkpt lat="51.730433302" lon="39.1475973744">
        <ele>136.16</ele>
        <time>2013-08-13T17:34:18.000Z</time>
        <speed>3.8432753812701E+249</speed>
      </trkpt>
      <trkpt lat="51.7304013669" lon="39.1478557047">
        <ele>136.16</ele>
        <time>2013-08-13T17:34:22.000Z</time>
        <speed>3.8432753812701E+249</speed>
      </trkpt>
      <trkpt lat="51.7303013708" lon="39.1483446211">
        <ele>137.13</ele>
        <time>2013-08-13T17:34:30.000Z</time>
        <speed>3.8432753812701E+249</speed>
      </trkpt>
      <trkpt lat="51.7302753869" lon="39.1486111656">
        <ele>138.09</ele>
        <time>2013-08-13T17:34:34.000Z</time>
        <speed>3.8432753812701E+249</speed>
      </trkpt>
      <trkpt lat="51.7300517578" lon="39.149589166">
        <ele>140.49</ele>
        <time>2013-08-13T17:34:50.000Z</time>
        <speed>3.8432753812701E+249</speed>
      </trkpt>
      <trkpt lat="51.7299734708" lon="39.1498781741">
        <ele>140.97</ele>
        <time>2013-08-13T17:34:55.000Z</time>
        <speed>3.8432753812701E+249</speed>
      </trkpt>
      <trkpt lat="51.729876576" lon="39.1501492448">
        <ele>140.97</ele>
        <time>2013-08-13T17:35:00.000Z</time>
        <speed>3.8432753812701E+249</speed>
      </trkpt>
      <trkpt lat="51.7295202613" lon="39.150933288">
        <ele>143.85</ele>
        <time>2013-08-13T17:35:15.000Z</time>
        <speed>3.8432753812701E+249</speed>
      </trkpt>
      <trkpt lat="51.7294718977" lon="39.1510223038">
        <ele>143.85</ele>
        <time>2013-08-13T17:35:17.000Z</time>
        <speed>3.8432753812701E+249</speed>
      </trkpt>
      <trkpt lat="51.7294024117" lon="39.1512481961">
        <ele>144.34</ele>
        <time>2013-08-13T17:35:21.000Z</time>
        <speed>3.8432753812701E+249</speed>
      </trkpt>
      <trkpt lat="51.7291241325" lon="39.1518415511">
        <ele>146.26</ele>
        <time>2013-08-13T17:35:33.000Z</time>
        <speed>3.8432753812701E+249</speed>
      </trkpt>
      <trkpt lat="51.7286921293" lon="39.1525245924">
        <ele>147.22</ele>
        <time>2013-08-13T17:35:50.000Z</time>
        <speed>3.8432753812701E+249</speed>
      </trkpt>
      <trkpt lat="51.7281369958" lon="39.1533251479">
        <ele>149.14</ele>
        <time>2013-08-13T17:36:09.000Z</time>
        <speed>3.8432753812701E+249</speed>
      </trkpt>
      <trkpt lat="51.7278453894" lon="39.1536872461">
        <ele>149.62</ele>
        <time>2013-08-13T17:36:20.000Z</time>
        <speed>3.8432753812701E+249</speed>
      </trkpt>
      <trkpt lat="51.7276170664" lon="39.1540700477">
        <ele>150.58</ele>
        <time>2013-08-13T17:36:30.000Z</time>
        <speed>3.8432753812701E+249</speed>
      </trkpt>
      <trkpt lat="51.7270798702" lon="39.1548499838">
        <ele>151.54</ele>
        <time>2013-08-13T17:36:48.000Z</time>
        <speed>3.8432753812701E+249</speed>
      </trkpt>
      <trkpt lat="51.7267805524" lon="39.1552709229">
        <ele>152.51</ele>
        <time>2013-08-13T17:36:58.000Z</time>
        <speed>3.8432753812701E+249</speed>
      </trkpt>
      <trkpt lat="51.7266234756" lon="39.1554968152">
        <ele>152.99</ele>
        <time>2013-08-13T17:37:03.000Z</time>
        <speed>3.8432753812701E+249</speed>
      </trkpt>
      <trkpt lat="51.7261287756" lon="39.1561694629">
        <ele>153.95</ele>
        <time>2013-08-13T17:37:19.000Z</time>
        <speed>3.8432753812701E+249</speed>
      </trkpt>
      <trkpt lat="51.7258544359" lon="39.1566923261">
        <ele>154.43</ele>
        <time>2013-08-13T17:37:31.000Z</time>
        <speed>3.8432753812701E+249</speed>
      </trkpt>
      <trkpt lat="51.725687217" lon="39.1569612175">
        <ele>154.43</ele>
        <time>2013-08-13T17:37:37.000Z</time>
        <speed>3.8432753812701E+249</speed>
      </trkpt>
      <trkpt lat="51.7255655117" lon="39.1571118403">
        <ele>154.91</ele>
        <time>2013-08-13T17:37:41.000Z</time>
        <speed>3.8432753812701E+249</speed>
      </trkpt>
      <trkpt lat="51.7250703089" lon="39.157884568">
        <ele>155.87</ele>
        <time>2013-08-13T17:37:58.000Z</time>
        <speed>3.8432753812701E+249</speed>
      </trkpt>
      <trkpt lat="51.7250061035" lon="39.157958664">
        <ele>156.83</ele>
        <time>2013-08-13T17:38:06.000Z</time>
        <speed>3.8432753812701E+249</speed>
      </trkpt>
      <trkpt lat="51.7248650361" lon="39.1581294872">
        <ele>157.79</ele>
        <time>2013-08-13T17:38:21.000Z</time>
        <speed>3.8432753812701E+249</speed>
      </trkpt>
      <trkpt lat="51.7247820552" lon="39.1580995638">
        <ele>157.79</ele>
        <time>2013-08-13T17:38:27.000Z</time>
        <speed>3.8432753812701E+249</speed>
      </trkpt>
      <trkpt lat="51.7246481124" lon="39.1581830475">
        <ele>156.83</ele>
        <time>2013-08-13T17:38:35.000Z</time>
        <speed>3.8432753812701E+249</speed>
      </trkpt>
      <trkpt lat="51.7246352043" lon="39.1582771763">
        <ele>156.83</ele>
        <time>2013-08-13T17:38:41.000Z</time>
        <speed>3.8432753812701E+249</speed>
      </trkpt>
      <trkpt lat="51.72462238" lon="39.1584145557">
        <ele>156.83</ele>
        <time>2013-08-13T17:38:46.000Z</time>
        <speed>3.8432753812701E+249</speed>
      </trkpt>
      <trkpt lat="51.7244770378" lon="39.1586737242">
        <ele>156.35</ele>
        <time>2013-08-13T17:38:57.000Z</time>
        <speed>3.8432753812701E+249</speed>
      </trkpt>
      <trkpt lat="51.7243573442" lon="39.158920655">
        <ele>156.83</ele>
        <time>2013-08-13T17:39:08.000Z</time>
        <speed>3.8432753812701E+249</speed>
      </trkpt>
      <trkpt lat="51.7243470345" lon="39.1589422803">
        <ele>156.83</ele>
        <time>2013-08-13T17:39:09.000Z</time>
        <speed>3.8432753812701E+249</speed>
      </trkpt>
      <trkpt lat="51.7239927314" lon="39.1594744474">
        <ele>157.31</ele>
        <time>2013-08-13T17:39:26.000Z</time>
        <speed>3.8432753812701E+249</speed>
      </trkpt>
      <trkpt lat="51.7236804217" lon="39.1596026067">
        <ele>157.31</ele>
        <time>2013-08-13T17:39:35.000Z</time>
        <speed>3.8432753812701E+249</speed>
      </trkpt>
      <trkpt lat="51.7234947626" lon="39.15955198">
        <ele>156.83</ele>
        <time>2013-08-13T17:39:40.000Z</time>
        <speed>3.8432753812701E+249</speed>
      </trkpt>
      <trkpt lat="51.7234573793" lon="39.1595670674">
        <ele>156.83</ele>
        <time>2013-08-13T17:39:42.000Z</time>
        <speed>3.8432753812701E+249</speed>
      </trkpt>
      <trkpt lat="51.7233769968" lon="39.1595710069">
        <ele>157.31</ele>
        <time>2013-08-13T17:39:48.000Z</time>
        <speed>3.8432753812701E+249</speed>
      </trkpt>
      <trkpt lat="51.7233609036" lon="39.1600688081">
        <ele>157.79</ele>
        <time>2013-08-13T17:39:58.000Z</time>
        <speed>3.8432753812701E+249</speed>
      </trkpt>
      <trkpt lat="51.7232050002" lon="39.1606087703">
        <ele>158.27</ele>
        <time>2013-08-13T17:40:08.000Z</time>
        <speed>3.8432753812701E+249</speed>
      </trkpt>
      <trkpt lat="51.7231121287" lon="39.1611017939">
        <ele>158.27</ele>
        <time>2013-08-13T17:40:18.000Z</time>
        <speed>3.8432753812701E+249</speed>
      </trkpt>
      <trkpt lat="51.7232017312" lon="39.1617850028">
        <ele>159.24</ele>
        <time>2013-08-13T17:40:30.000Z</time>
        <speed>3.8432753812701E+249</speed>
      </trkpt>
      <trkpt lat="51.7233262025" lon="39.1620959714">
        <ele>159.24</ele>
        <time>2013-08-13T17:40:38.000Z</time>
        <speed>3.8432753812701E+249</speed>
      </trkpt>
      <trkpt lat="51.7233998794" lon="39.162177695">
        <ele>159.24</ele>
        <time>2013-08-13T17:40:48.000Z</time>
        <speed>3.8432753812701E+249</speed>
      </trkpt>
      <trkpt lat="51.7234308925" lon="39.1624210216">
        <ele>159.24</ele>
        <time>2013-08-13T17:40:57.000Z</time>
        <speed>3.8432753812701E+249</speed>
      </trkpt>
      <trkpt lat="51.7234272882" lon="39.1624478437">
        <ele>159.24</ele>
        <time>2013-08-13T17:40:58.000Z</time>
        <speed>3.8432753812701E+249</speed>
      </trkpt>
      <trkpt lat="51.7234317306" lon="39.1625305731">
        <ele>159.24</ele>
        <time>2013-08-13T17:41:01.000Z</time>
        <speed>3.8432753812701E+249</speed>
      </trkpt>
      <trkpt lat="51.7234842014" lon="39.1627075989">
        <ele>159.24</ele>
        <time>2013-08-13T17:41:05.000Z</time>
        <speed>3.8432753812701E+249</speed>
      </trkpt>
      <trkpt lat="51.7235464789" lon="39.1628515162">
        <ele>159.24</ele>
        <time>2013-08-13T17:41:08.000Z</time>
        <speed>3.8432753812701E+249</speed>
      </trkpt>
      <trkpt lat="51.7237504944" lon="39.1631997004">
        <ele>159.24</ele>
        <time>2013-08-13T17:41:17.000Z</time>
        <speed>3.8432753812701E+249</speed>
      </trkpt>
      <trkpt lat="51.723865075" lon="39.1635002755">
        <ele>159.72</ele>
        <time>2013-08-13T17:41:25.000Z</time>
        <speed>3.8432753812701E+249</speed>
      </trkpt>
      <trkpt lat="51.7238432821" lon="39.1637221444">
        <ele>159.72</ele>
        <time>2013-08-13T17:41:31.000Z</time>
        <speed>3.8432753812701E+249</speed>
      </trkpt>
      <trkpt lat="51.7236704472" lon="39.1642102227">
        <ele>160.2</ele>
        <time>2013-08-13T17:41:43.000Z</time>
        <speed>3.8432753812701E+249</speed>
      </trkpt>
      <trkpt lat="51.723647397" lon="39.1642611846">
        <ele>160.2</ele>
        <time>2013-08-13T17:41:44.000Z</time>
        <speed>3.8432753812701E+249</speed>
      </trkpt>
      <trkpt lat="51.7234409507" lon="39.1647078563">
        <ele>160.68</ele>
        <time>2013-08-13T17:41:54.000Z</time>
        <speed>3.8432753812701E+249</speed>
      </trkpt>
      <trkpt lat="51.7233475763" lon="39.1649278812">
        <ele>161.16</ele>
        <time>2013-08-13T17:42:00.000Z</time>
        <speed>3.8432753812701E+249</speed>
      </trkpt>
      <trkpt lat="51.7233131267" lon="39.1649942659">
        <ele>161.16</ele>
        <time>2013-08-13T17:42:02.000Z</time>
        <speed>3.8432753812701E+249</speed>
      </trkpt>
      <trkpt lat="51.7231188342" lon="39.165259134">
        <ele>161.16</ele>
        <time>2013-08-13T17:42:08.000Z</time>
        <speed>3.8432753812701E+249</speed>
      </trkpt>
      <trkpt lat="51.7227709014" lon="39.1654385068">
        <ele>161.16</ele>
        <time>2013-08-13T17:42:18.000Z</time>
        <speed>3.8432753812701E+249</speed>
      </trkpt>
      <trkpt lat="51.722740978" lon="39.165447643">
        <ele>161.16</ele>
        <time>2013-08-13T17:42:20.000Z</time>
        <speed>3.8432753812701E+249</speed>
      </trkpt>
      <trkpt lat="51.7225978989" lon="39.1656297818">
        <ele>161.16</ele>
        <time>2013-08-13T17:42:25.000Z</time>
        <speed>3.8432753812701E+249</speed>
      </trkpt>
      <trkpt lat="51.7222699989" lon="39.1657407582">
        <ele>160.68</ele>
        <time>2013-08-13T17:42:34.000Z</time>
        <speed>3.8432753812701E+249</speed>
      </trkpt>
      <trkpt lat="51.7221206333" lon="39.1657745373">
        <ele>161.16</ele>
        <time>2013-08-13T17:42:38.000Z</time>
        <speed>3.8432753812701E+249</speed>
      </trkpt>
      <trkpt lat="51.7221182864" lon="39.1658891179">
        <ele>161.16</ele>
        <time>2013-08-13T17:42:42.000Z</time>
        <speed>3.8432753812701E+249</speed>
      </trkpt>
      <trkpt lat="51.7221410852" lon="39.1663141642">
        <ele>161.16</ele>
        <time>2013-08-13T17:42:48.000Z</time>
        <speed>3.8432753812701E+249</speed>
      </trkpt>
      <trkpt lat="51.7220218107" lon="39.1664808802">
        <ele>161.16</ele>
        <time>2013-08-13T17:42:52.000Z</time>
        <speed>3.8432753812701E+249</speed>
      </trkpt>
      <trkpt lat="51.7217506561" lon="39.1665108036">
        <ele>161.64</ele>
        <time>2013-08-13T17:42:58.000Z</time>
        <speed>3.8432753812701E+249</speed>
      </trkpt>
      <trkpt lat="51.721314881" lon="39.1672413703">
        <ele>161.64</ele>
        <time>2013-08-13T17:43:11.000Z</time>
        <speed>3.8432753812701E+249</speed>
      </trkpt>
      <trkpt lat="51.7212806828" lon="39.1673052404">
        <ele>161.64</ele>
        <time>2013-08-13T17:43:12.000Z</time>
        <speed>3.8432753812701E+249</speed>
      </trkpt>
      <trkpt lat="51.7206609249" lon="39.1678825859">
        <ele>162.12</ele>
        <time>2013-08-13T17:43:26.000Z</time>
        <speed>3.8432753812701E+249</speed>
      </trkpt>
      <trkpt lat="51.7204724159" lon="39.1680693347">
        <ele>162.12</ele>
        <time>2013-08-13T17:43:30.000Z</time>
        <speed>3.8432753812701E+249</speed>
      </trkpt>
      <trkpt lat="51.7203717493" lon="39.1681589372">
        <ele>162.12</ele>
        <time>2013-08-13T17:43:32.000Z</time>
        <speed>3.8432753812701E+249</speed>
      </trkpt>
      <trkpt lat="51.7196297832" lon="39.1688206047">
        <ele>162.12</ele>
        <time>2013-08-13T17:43:47.000Z</time>
        <speed>3.8432753812701E+249</speed>
      </trkpt>
      <trkpt lat="51.7192541901" lon="39.1691393685">
        <ele>162.6</ele>
        <time>2013-08-13T17:43:55.000Z</time>
        <speed>3.8432753812701E+249</speed>
      </trkpt>
      <trkpt lat="51.7190802656" lon="39.1693007201">
        <ele>162.6</ele>
        <time>2013-08-13T17:44:00.000Z</time>
        <speed>3.8432753812701E+249</speed>
      </trkpt>
      <trkpt lat="51.7190215085" lon="39.169375319">
        <ele>162.6</ele>
        <time>2013-08-13T17:44:02.000Z</time>
        <speed>3.8432753812701E+249</speed>
      </trkpt>
      <trkpt lat="51.7189624161" lon="39.1694624908">
        <ele>162.6</ele>
        <time>2013-08-13T17:44:04.000Z</time>
        <speed>3.8432753812701E+249</speed>
      </trkpt>
      <trkpt lat="51.7187983822" lon="39.169717133">
        <ele>162.6</ele>
        <time>2013-08-13T17:44:10.000Z</time>
        <speed>3.8432753812701E+249</speed>
      </trkpt>
      <trkpt lat="51.7187009007" lon="39.1699735355">
        <ele>163.08</ele>
        <time>2013-08-13T17:44:16.000Z</time>
        <speed>3.8432753812701E+249</speed>
      </trkpt>
      <trkpt lat="51.7185372021" lon="39.1699788161">
        <ele>162.6</ele>
        <time>2013-08-13T17:44:22.000Z</time>
        <speed>3.8432753812701E+249</speed>
      </trkpt>
      <trkpt lat="51.7185079493" lon="39.1699909698">
        <ele>163.08</ele>
        <time>2013-08-13T17:44:24.000Z</time>
        <speed>3.8432753812701E+249</speed>
      </trkpt>
      <trkpt lat="51.7184087075" lon="39.1700205579">
        <ele>162.6</ele>
        <time>2013-08-13T17:44:28.000Z</time>
        <speed>3.8432753812701E+249</speed>
      </trkpt>
      <trkpt lat="51.7183128186" lon="39.1703390703">
        <ele>162.6</ele>
        <time>2013-08-13T17:44:34.000Z</time>
        <speed>3.8432753812701E+249</speed>
      </trkpt>
      <trkpt lat="51.7183290794" lon="39.1703437641">
        <ele>162.6</ele>
        <time>2013-08-13T17:44:36.000Z</time>
        <speed>3.8432753812701E+249</speed>
      </trkpt>
      <trkpt lat="51.7183193564" lon="39.1703175288">
        <ele>163.08</ele>
        <time>2013-08-13T17:44:38.000Z</time>
        <speed>3.8432753812701E+249</speed>
      </trkpt>
      <trkpt lat="51.7182077933" lon="39.1705504619">
        <ele>162.6</ele>
        <time>2013-08-13T17:44:42.000Z</time>
        <speed>3.8432753812701E+249</speed>
      </trkpt>
      <trkpt lat="51.7180133332" lon="39.1709444951">
        <ele>163.08</ele>
        <time>2013-08-13T17:44:48.000Z</time>
        <speed>3.8432753812701E+249</speed>
      </trkpt>
      <trkpt lat="51.7179297656" lon="39.1711013205">
        <ele>163.08</ele>
        <time>2013-08-13T17:44:51.000Z</time>
        <speed>3.8432753812701E+249</speed>
      </trkpt>
      <trkpt lat="51.7177886143" lon="39.1712991334">
        <ele>163.08</ele>
        <time>2013-08-13T17:44:55.000Z</time>
        <speed>3.8432753812701E+249</speed>
      </trkpt>
      <trkpt lat="51.7176035419" lon="39.1714465711">
        <ele>163.08</ele>
        <time>2013-08-13T17:45:03.000Z</time>
        <speed>3.8432753812701E+249</speed>
      </trkpt>
      <trkpt lat="51.717525674" lon="39.1713827848">
        <ele>163.08</ele>
        <time>2013-08-13T17:45:07.000Z</time>
        <speed>3.8432753812701E+249</speed>
      </trkpt>
      <trkpt lat="51.7170672677" lon="39.170964025">
        <ele>162.6</ele>
        <time>2013-08-13T17:45:15.000Z</time>
        <speed>3.8432753812701E+249</speed>
      </trkpt>
      <trkpt lat="51.7166097835" lon="39.1708594188">
        <ele>162.6</ele>
        <time>2013-08-13T17:45:21.000Z</time>
        <speed>3.8432753812701E+249</speed>
      </trkpt>
      <trkpt lat="51.7164796963" lon="39.1709019151">
        <ele>162.12</ele>
        <time>2013-08-13T17:45:23.000Z</time>
        <speed>3.8432753812701E+249</speed>
      </trkpt>
      <trkpt lat="51.7157631274" lon="39.1715238523">
        <ele>162.6</ele>
        <time>2013-08-13T17:45:35.000Z</time>
        <speed>3.8432753812701E+249</speed>
      </trkpt>
      <trkpt lat="51.7155436054" lon="39.172003381">
        <ele>162.12</ele>
        <time>2013-08-13T17:45:41.000Z</time>
        <speed>3.8432753812701E+249</speed>
      </trkpt>
      <trkpt lat="51.7153919768" lon="39.1725900304">
        <ele>161.64</ele>
        <time>2013-08-13T17:45:48.000Z</time>
        <speed>3.8432753812701E+249</speed>
      </trkpt>
      <trkpt lat="51.7151375022" lon="39.1731032543">
        <ele>161.16</ele>
        <time>2013-08-13T17:45:57.000Z</time>
        <speed>3.8432753812701E+249</speed>
      </trkpt>
    </trkseg>
  </trk>
</gpx>